[[{"header":{"parameterUnit":"m.s-1","parameterCategory":1,"la1":31.0,"la2":29.5877,"lo1":-88.7671,"lo2":-86.6584,"dy":0.0162,"dx":0.0185,"nx":115,"ny":88,"refTime":"2026-03-14T12:00:00:Z","depth":0,"parameterNumber":2,"parameterNumberName":"U-component_of_WINDS"},"data":[0.0,0.0,0.0,0.0,0.0,0.0,0.0,0.0,0.0,0.0,0.0,0.0,0.0,0.0,0.0,0.0,0.0,0.0,0.0,0.0,0.0,0.0,0.0,0.0,0.0,0.0,0.0,0.0,0.0,0.0,0.0,0.0,0.0,0.0,0.0,0.0,0.0,0.0,0.0,0.0,0.0,0.0,0.0,0.0,0.0,0.0,0.0,0.0,0.0,0.0,0.0,0.0,0.0,0.0,0.0,0.0,0.0,0.0,0.0,0.0,0.0,0.0,0.0,0.0,0.0,0.0,0.0,0.0,0.0,0.0,0.0,0.0,0.0,0.0,0.0,0.0,0.0,0.0,0.0,0.0,0.0,0.0,0.0,0.0,0.0,0.0,0.0,0.0,0.0,0.0,0.0,0.0,0.0,0.0,0.0,0.0,0.0,0.0,0.0,0.0,0.0,0.0,0.0,0.0,0.0,0.0,0.0,0.0,0.0,0.0,0.0,0.0,0.0,0.0,0.0,0.0,0.0,0.0,0.0,0.0,0.0,0.0,0.0,0.0,0.0,0.0,0.0,0.0,0.0,0.0,0.0,0.0,0.0,0.0,0.0,0.0,0.0,0.0,0.0,0.0,0.0,0.0,0.0,0.0,0.0,0.0,0.0,0.0,0.0,0.0,0.0,0.0,0.0,0.0,0.0,0.0,0.0,0.0,0.0,0.0,0.0,0.0,0.0,0.0,0.0,0.0,0.0,0.0,0.0,0.0,0.0,0.0,0.0,0.0,0.0,0.0,0.0,0.0,0.0,0.0,0.0,0.0,0.0,0.0,0.0,0.0,0.0,0.0,0.0,0.0,0.0,0.0,0.0,0.0,0.0,0.0,0.0,0.0,0.0,0.0,0.0,0.0,0.0,0.0,0.0,0.0,0.0,0.0,0.0,0.0,0.0,0.0,0.0,0.0,0.0,0.0,0.0,0.0,0.0,0.0,0.0,0.0,0.0,0.0,0.0,0.0,0.0,0.0,0.0,0.0,0.0,0.0,0.0,0.0,0.0,0.0,0.0,0.0,0.0,0.0,0.0,0.0,0.0,0.0,0.0,0.0,0.0,0.0,0.0,0.0,0.0,0.0,0.0,0.0,0.0,0.0,0.0,0.0,0.0,0.0,0.0,0.0,0.0,0.0,0.0,0.0,0.0,0.0,0.0,0.0,0.0,0.0,0.0,0.0,0.0,0.0,0.0,0.0,0.0,0.0,0.0,0.0,0.0,0.0,0.0,0.0,0.0,0.0,0.0,0.0,0.0,0.0,0.0,0.0,0.0,0.0,0.0,0.0,0.0,0.0,0.0,0.0,0.0,0.0,0.0,0.0,0.0,0.0,0.0,0.0,0.0,0.0,0.0,0.0,0.0,0.0,0.0,0.0,0.0,0.0,0.0,0.0,0.0,0.0,0.0,0.0,0.0,0.0,0.0,0.0,0.0,0.0,0.0,0.0,0.0,0.0,0.0,0.0,0.0,0.0,0.0,0.0,0.0,0.0,0.0,0.0,0.0,0.0,0.0,0.0,0.0,0.0,0.0,0.0,0.0,0.0,0.0,0.0,0.0,0.0,0.0,0.0,0.0,0.0,0.0,0.0,0.0,0.0,0.0,0.0,0.0,0.0,0.0,0.0,0.0,0.0,0.0,0.0,0.0,0.0,0.0,0.0,0.0,0.0,0.0,0.0,0.0,0.0,0.0,0.0,0.0,0.0,0.0,0.0,0.0,0.0,0.0,0.0,0.0,0.0,0.0,0.0,0.0,0.0,0.0,0.0,0.0,0.0,0.0,0.0,0.0,0.0,0.0,0.0,0.0,0.0,0.0,0.0,0.0,0.0,0.0,0.0,0.0,0.0,0.0,0.0,0.0,0.0,0.0,0.0,0.0,0.0,0.0,0.0,0.0,0.0,0.0,0.0,0.0,0.0,0.0,0.0,0.0,0.0,0.0,0.0,0.0,0.0,0.0,0.0,0.0,0.0,0.0,0.0,0.0,0.0,0.0,0.0,0.0,0.0,0.0,0.0,0.0,0.0,0.0,0.0,0.0,0.0,0.0,0.0,0.0,0.0,0.0,0.0,0.0,0.0,0.0,0.0,0.0,0.0,0.0,0.0,0.0,0.0,0.0,0.0,0.0,0.0,0.0,0.0,0.0,0.0,0.0,0.0,0.0,0.0,0.0,0.0,0.0,0.0,0.0,0.0,0.0,0.0,0.0,0.0,0.0,0.0,0.0,0.0,0.0,0.0,0.0,0.0,0.0,0.0,0.0,0.0,0.0,0.0,0.0,0.0,0.0,0.0,0.0,0.0,0.0,0.0,0.0,0.0,0.0,0.0,0.0,0.0,0.0,0.0,0.0,0.0,0.0,0.0,0.0,0.0,0.0,0.0,0.0,0.0,0.0,0.0,0.0,0.0,0.0,0.0,0.0,0.0,0.0,0.0,0.0,0.0,0.0,0.0,0.0,0.0,0.0,0.0,0.0,0.0,0.0,0.0,0.0,0.0,0.0,0.0,0.0,0.0,0.0,0.0,0.0,0.0,0.0,0.0,0.0,0.0,0.0,0.0,0.0,0.0,0.0,0.0,0.0,0.0,0.0,0.0,0.0,0.0,0.0,0.0,0.0,0.0,0.0,0.0,0.0,0.0,0.0,0.0,0.0,0.0,0.0,0.0,0.0,0.0,0.0,0.0,0.0,0.0,0.0,0.0,0.0,0.0,0.0,0.0,0.0,0.0,0.0,0.0,0.0,0.0,0.0,0.0,0.0,0.0,0.0,0.0,0.0,0.0,0.0,0.0,0.0,0.0,0.0,0.0,0.0,0.0,0.0,0.0,0.0,0.0,0.0,0.0,0.0,0.0,0.0,0.0,0.0,0.0,0.0,0.0,0.0,0.0,0.0,0.0,0.0,0.0,0.0,0.0,0.0,0.0,0.0,0.0,0.0,0.0,0.0,0.0,0.0,0.0,0.0,0.0,0.0,0.0,0.0,0.0,0.0,0.0,0.0,0.0,0.0,0.0,0.0,0.0,0.0,0.0,0.0,0.0,0.0,0.0,0.0,0.0,0.0,0.0,0.0,0.0,0.0,0.0,0.0,0.0,0.0,0.0,0.0,0.0,0.0,0.0,0.0,0.0,0.0,0.0,0.0,0.0,0.0,0.0,0.0,0.0,0.0,0.0,0.0,0.0,0.0,0.0,0.0,0.0,0.0,0.0,0.0,0.0,0.0,0.0,0.0,0.0,0.0,0.0,0.0,0.0,0.0,0.0,0.0,0.0,0.0,0.0,0.0,0.0,0.0,0.0,0.0,0.0,0.0,0.0,0.0,0.0,0.0,0.0,0.0,0.0,0.0,0.0,0.0,0.0,0.0,0.0,0.0,0.0,0.0,0.0,0.0,0.0,0.0,0.0,0.0,0.0,0.0,0.0,0.0,0.0,0.0,0.0,0.0,0.0,0.0,0.0,0.0,0.0,0.0,0.0,0.0,0.0,0.0,0.0,0.0,0.0,0.0,0.0,0.0,0.0,0.0,0.0,0.0,0.0,0.0,0.0,0.0,0.0,0.0,0.0,0.0,0.0,0.0,0.0,0.0,0.0,0.0,0.0,0.0,0.0,0.0,0.0,0.0,0.0,0.0,0.0,0.0,0.0,0.0,0.0,0.0,0.0,0.0,0.0,0.0,0.0,0.0,0.0,0.0,0.0,0.0,0.0,0.0,0.0,0.0,0.0,0.0,0.0,0.0,0.0,0.0,0.0,0.0,0.0,0.0,0.0,0.0,0.0,0.0,0.0,0.0,0.0,0.0,0.0,0.0,0.0,0.0,0.0,0.0,0.0,0.0,0.0,0.0,0.0,0.0,0.0,0.0,0.0,0.0,0.0,0.0,0.0,0.0,0.0,0.0,0.0,0.0,0.0,0.0,0.0,0.0,0.0,0.0,0.0,0.0,0.0,0.0,0.0,0.0,0.0,0.0,0.0,0.0,0.0,0.0,0.0,0.0,0.0,0.0,0.0,0.0,0.0,0.0,0.0,0.0,0.0,0.0,0.0,0.0,0.0,0.0,0.0,0.0,0.0,0.0,0.0,0.0,0.0,0.0,0.0,0.0,0.0,0.0,0.0,0.0,0.0,0.0,0.0,0.0,0.0,0.0,0.0,0.0,0.0,0.0,0.0,0.0,0.0,0.0,0.0,0.0,0.0,0.0,0.0,0.0,0.0,0.0,0.0,0.0,0.0,0.0,0.0,0.0,0.0,0.0,0.0,-0.2292,0.0,0.0,0.0,0.0,0.0,0.0,0.0,0.0,0.0,0.0,0.0,0.0,0.0,0.0,0.0,0.0,0.0,0.0,0.0,0.0,0.0,0.0,0.0,0.0,0.0,0.0,0.0,0.0,0.0,0.0,0.0,0.0,0.0,0.0,0.0,0.0,0.0,0.0,0.0,0.0,0.0,0.0,0.0,0.0,0.0,0.0,0.0,0.0,0.0,0.0,0.0,0.0,0.0,0.0,0.0,0.0,0.0,0.0,0.0,0.0,0.0,0.0,0.0,0.0,0.0,0.0,0.0,0.0,0.0,0.0,0.0,0.0,0.0,0.0,0.0,0.0,0.0,0.0,0.0,0.0,0.0,0.0,0.0,0.0,0.0,0.0,0.0,0.0,0.0,0.0,0.0,0.0,0.0,0.0,0.0,0.0,0.0,0.0,0.0,0.0,0.0,0.0,0.0,0.0,0.0,0.0,0.0,0.0,0.0,0.0,-0.2617,-0.2287,-0.2129,-0.2152,-0.2363,0.0,0.0,0.0,0.0,0.0,0.0,0.0,0.0,0.0,0.0,0.0,0.0,0.0,0.0,0.0,0.0,0.0,0.0,0.0,0.0,0.0,0.0,0.0,0.0,0.0,0.0,0.0,0.0,0.0,0.0,0.0,0.0,0.0,0.0,0.0,0.0,0.0,0.0,0.0,0.0,0.0,0.0,0.0,0.0,0.0,0.0,0.0,0.0,0.0,0.0,0.0,0.0,0.0,0.0,0.0,0.0,0.0,0.0,0.0,0.0,0.0,0.0,0.0,0.0,0.0,0.0,0.0,0.0,0.0,0.0,0.0,0.0,0.0,0.0,0.0,0.0,0.0,0.0,0.0,0.0,0.0,0.0,0.0,0.0,0.0,0.0,0.0,0.0,0.0,0.0,0.0,0.0,0.0,0.0,0.0,0.0,0.0,0.0,0.0,0.0,0.0,0.0,0.0,0.0,0.0,0.0,0.0,0.0,0.0,0.0,0.0,0.0,-0.1655,-0.178,-0.2165,0.0,0.0,0.0,0.0,0.0,0.0,0.0,0.0,0.0,0.0,0.0,0.0,0.0,0.0,0.0,0.0,0.0,0.0,0.0,0.0,0.0,0.0,0.0,0.0,0.0,0.0,0.0,0.0,0.0,0.0,0.0,0.0,0.0,0.0,0.0,0.0,0.0,0.0,0.0,0.0,0.0,0.0,0.0,0.0,0.0,0.0,0.0,0.0,0.0,0.0,0.0,0.0,0.0,0.0,0.0,0.0,0.0,0.0,0.0,0.0,0.0,0.0,0.0,0.0,0.0,0.0,0.0,0.0,0.0,0.0,0.0,0.0,0.0,0.0,0.0,0.0,0.0,0.0,0.0,0.0,0.0,0.0,0.0,0.0,0.0,0.0,0.0,0.0,0.0,0.0,0.0,0.0,0.0,0.0,0.0,0.0,0.0,0.0,0.0,0.0,0.0,0.0,0.0,0.0,0.0,0.0,0.0,0.0,0.0,0.0,-0.1775,-0.1031,-0.1376,0.0,-0.0994,0.0,0.0,0.0,0.0,0.0,0.0,0.0,0.0,0.0,0.0,0.0,0.0,0.0,0.0,0.0,0.0,0.0,0.0,0.0,0.0,0.0,0.0,0.0,0.0,0.0,0.0,0.0,0.0,0.0,0.0,0.0,0.0,0.0,0.0,0.0,0.0,0.0,0.0,0.0,0.0,0.0,0.0,0.0,0.0,0.0,0.0,0.0,0.0,0.0,0.0,0.0,0.0,0.0,0.0,0.0,0.0,0.0,0.0,0.0,0.0,0.0,0.0,0.0,0.0,0.0,0.0,0.0,0.0,0.0,0.0,0.0,0.0,0.0,0.0,0.0,0.0,0.0,0.0,0.0,0.0,0.0,0.0,0.0,0.0,0.0,0.0,0.0,0.0,0.0,0.0,0.0,0.0,0.0,0.0,0.0,0.0,0.0,0.0,0.0,0.0,0.0,0.0,0.0,0.0,0.0,0.0,0.0,0.0,0.0,0.0,-0.0901,-0.026,-0.05,-0.0506,0.0,0.0,0.0,0.0,0.0,0.0,0.0,0.0,0.0,0.0,0.0,0.0,0.0,0.0,0.0,0.0,0.0,0.0,0.0,0.0,0.0,0.0,0.0,0.0,0.0,0.0,0.0,0.0,0.0,0.0,0.0,0.0,0.0,0.0,0.0,0.0,0.0,0.0,0.0,0.0,0.0,0.0,0.0,0.0,0.0,0.0,0.0,0.0,0.0,0.0,0.0,0.0,0.0,0.0,0.0,0.0,0.0,0.0,0.0,0.0,0.0,0.0,0.0,0.0,0.0,0.0,0.0,0.0,0.0,0.0,0.0,0.0,0.0,0.0,0.0,0.0,0.0,0.0,0.0,0.0,0.0,0.0,0.0,0.0,0.0,0.0,0.0,0.0,0.0,0.0,0.0,0.0,0.0,0.0,0.0,0.0,0.0,0.0,0.0,0.0,0.0,0.0,0.0,0.0,0.0,0.0,0.0,0.0,0.0,0.0,-0.0641,-0.0132,0.0315,0.0209,0.0222,0.0397,0.0,0.0,0.0,0.0,0.0,0.0,0.0,0.0,0.0,0.0,0.0,0.0,0.0,0.0,0.0,0.0,0.0,0.0,0.0,0.0,0.0,0.0,0.0,0.0,0.0,0.0,0.0,0.0,0.0,0.0,0.0,0.0,0.0,0.0,0.0,0.0,0.0,0.0,0.0,0.0,0.0,0.0,0.0,0.0,0.0,0.0,0.0,0.0,0.0,0.0,0.0,0.0,0.0,0.0,0.0,0.0,0.0,0.0,0.0,0.0,0.0,0.0,0.0,0.0,0.0,0.0,0.0,0.0,0.0,0.0,0.0,0.0,0.0,0.0,0.0,0.0,0.0,0.0,0.0,0.0,0.0,0.0,0.0,0.0,0.0,0.0,0.0,0.0,0.0,0.0,0.0,0.0,0.0,0.0,0.0,0.0,0.0,0.0,0.0,0.0,0.0,0.0,0.0,0.0,0.0,0.0,0.0,0.0,0.0,0.0183,0.0375,0.0788,0.0593,0.0559,0.0,0.0,0.0,0.0,0.0,0.0,0.0,0.0,0.0,0.0,0.0,0.0,0.0,0.0,0.0,0.0,0.0,0.0,0.0,0.0,0.0,0.0,0.0,0.0,0.0,0.0,0.0,0.0,0.0,0.0,0.0,0.0,0.0,0.0,0.0,0.0,0.0,0.0,0.0,0.0,0.0,0.0,0.0,0.0,0.0,0.0,0.0,0.0,0.0,0.0,0.0,0.0,0.0,0.0,0.0,0.0,0.0,0.0,0.0,0.0,0.0,0.0,0.0,0.0,0.0,0.0,0.0,0.0,0.0,0.0,0.0,0.0,0.0,0.0,0.0,0.0,0.0,0.0,0.0,0.0,0.0,0.0,0.0,0.0,0.0,0.0,0.0,0.0,0.0,0.0,0.0,0.0,0.0,0.0,0.0,0.0,0.0,0.0,0.0,0.0,0.0,0.0,0.0,0.0,0.0,0.0,0.0,0.0,0.0,0.0394,0.0945,0.1419,0.1794,0.1414,0.1278,0.0,0.0,0.0,0.0,0.0,0.0,0.0,0.0,0.0,0.0,0.0,0.0,0.0,0.0,0.0,0.0,0.0,0.0,0.0,0.0,0.0,0.0,0.0,0.0,0.0,0.0,0.0,0.0,0.0,0.0,0.0,0.0,0.0,0.0,0.0,0.0,0.0,0.0,0.0,0.0,0.0,0.0,0.0,0.0,0.0,0.0,0.0,0.0,0.0,0.0,0.0,0.0,0.0,0.0,0.0,0.0,0.0,0.0,0.0,0.0,0.0,0.0,0.0,0.0,0.0,0.0,0.0,0.0,0.0,0.0,0.0,0.0,0.0,0.0,0.0,0.0,0.0,0.0,0.0,0.0,0.0,0.0,0.0,0.0,0.0,0.0,0.0,0.0,0.0,0.0,0.0,0.0,0.0,0.0,0.0,0.0,0.0,0.0,0.0,0.0,0.0,0.0,0.0,0.0,0.0,0.0,0.0,0.0,0.0,0.1211,0.0,0.2669,0.0,0.2293,0.2002,0.0,0.0,0.0,0.0,0.0,0.0,0.0,0.0,0.0,0.0,0.0,0.0,0.0,0.0,0.0,0.0,0.0,0.0,0.0,0.0,0.0,0.0,0.0,0.0,0.0,0.0,0.0,0.0,0.0,0.0,0.0,0.0,0.0,0.0,0.0,0.0,0.0,0.0,0.0,0.0,0.0,0.0,0.0,0.0,0.0,0.0,0.0,0.0,0.0,0.0,0.0,0.0,0.0,0.0,0.0,0.0,0.0,0.0,0.0,0.0,0.0,0.0,0.0,0.0,0.0,0.0,0.0,0.0,0.0,0.0,0.0,0.0,0.0,0.0,0.0,0.0,0.0,0.0,0.0,0.0,0.0,0.0,0.0,0.0,0.0,0.0,0.0,0.0,0.0,0.0,0.0,0.0,0.0,0.0,0.0,0.0,0.0,0.0,0.0,0.0,0.0,0.0,0.0,0.0,0.0,0.0,0.0,0.0,0.1263,0.2712,0.3734,0.3996,0.3694,0.3138,0.2629,0.0,0.0,0.0,0.0,0.0,0.0,0.0,0.0,0.0,0.0,0.0,0.0,0.0,0.0,0.0,0.0,0.0,0.0,0.0,0.0,0.0,0.0,0.0,0.0,0.0,0.0,0.0,0.0,0.0,0.0,0.0,0.0,0.0,0.0,0.0,0.0,0.0,0.0,0.0,0.0,0.0,0.0,0.0,0.0,0.0,0.0,0.0,0.0,0.0,0.0,0.0,0.0,0.0,0.0,0.0,0.0,0.0,0.0,0.0,0.0,0.0,0.0,0.0,0.0,0.0,0.0,0.0,0.0,0.0,0.0,0.0,0.0,0.0,0.0,0.0,0.0,0.0,0.0,0.0,0.0,0.0,0.0,0.0,0.0,0.0,0.0,0.0,0.0,0.0,0.0,0.0,0.0,0.0,0.0,0.0,0.0,0.0,0.0,0.0,0.0,0.0,0.0,0.0,0.0,0.0,0.0,0.0,0.0,0.0,0.2415,0.3496,0.3978,0.376,0.3205,0.2871,0.0,0.0,0.0,0.0,0.0,0.0,0.0,0.0,0.0,0.0,0.0,0.0,0.0,0.0,0.0,0.0,0.0,0.0,0.0,0.0,0.0,0.0,0.0,0.0,0.0,0.0,0.0,0.0,0.0,0.0,0.0,0.0,0.0,0.0,0.0,0.0,0.0,0.0,0.0,0.0,0.0,0.0,0.0,0.0,0.0,0.0,0.0,0.0,0.0,0.0,0.0,0.0,0.0,0.0,0.0,0.0,0.0,0.0,0.0,0.0,0.0,0.0,0.0,0.0,0.0,0.0,0.0,0.0,0.0,0.0,0.0,0.0,0.0,0.0,0.0,0.0,0.0,0.0,0.0,0.0,0.0,0.0,0.0,0.0,0.0,0.0,0.0,0.0,0.0,0.0,0.0,0.0,0.0,0.0,0.0,0.0,0.0,0.0,0.0,0.0,0.0,0.0,0.0,0.0,0.0,0.0,0.0,0.0,0.0,0.3118,0.4039,0.4407,0.4096,0.3444,0.3093,0.3087,0.0,0.0,0.0,0.0,0.0,0.0,0.0,0.0,0.0,0.0,0.0,0.0,0.0,0.0,0.0,0.0,0.0,0.0,0.0,0.0,0.0,0.0,0.0,0.0,0.0,0.0,0.0,0.0,0.0,0.0,0.0,0.0,0.0,0.0,0.0,0.0,0.0,0.0,0.0,0.0,0.0,0.0,0.0,0.0,0.0,0.0,0.0,0.0,0.0,0.0,0.0,0.0,0.0,0.0,0.0,0.0,0.0,0.0,0.0,0.0,0.0,0.0,0.0,0.0,0.0,0.0,0.0,0.0,0.0,0.0,0.0,0.0,0.0,0.0,0.0,0.0,0.0,0.0,0.0,0.0,0.0,0.0,0.0,0.0,0.0,0.0,0.0,0.0,0.0,0.0,0.0,0.0,0.0,0.0,0.0,0.0,0.0,0.0,0.0,0.0,0.0,0.0,0.0,0.0,0.0,0.0,0.0,0.0,0.4485,0.5163,0.5202,0.459,0.3862,0.3336,0.0,0.0,0.0,0.0,0.0,0.0,0.0,0.0,0.0,0.0,0.0,0.0,0.0,0.0,0.0,0.0,0.0,0.0,0.0,0.0,0.0,0.0,0.0,0.0,0.0,0.0,0.0,0.0,0.0,0.0,0.0,0.0,0.0,0.0,0.0,0.0,0.0,0.0,0.0,0.0,0.0,0.0,0.0,0.0,0.0,0.0,0.0,0.0,0.0,0.0,0.0,0.0,0.0,0.0,0.0,0.0,0.0,0.0,0.0,0.0,0.0,0.0,0.0,0.0,0.0,0.0,0.0,0.0,0.0,0.0,0.0,0.0,0.0,0.0,0.0,0.0,0.0,0.0,0.0,0.0,0.0,0.0,0.0,0.0,0.0,0.0,0.0,0.0,0.0,0.0,0.0,0.0,0.0,0.0,0.0,0.0,0.0,0.0,0.0,0.0,0.0,0.0,0.0,0.0,0.0,0.0,0.0,0.0,0.0,0.4518,0.5158,0.5222,0.4621,0.4255,0.3717,0.0,0.0,0.0,0.0,0.0,0.0,0.0,0.0,0.0,0.0,0.0,0.0,0.0,0.0,0.0,0.0,0.0,0.0,0.0,0.0,0.0,0.0,0.0,0.0,0.0,0.0,0.0,0.0,0.0,0.0,0.0,0.0,0.0,0.0,0.0,0.0,0.0,0.0,0.0,0.0,0.0,0.0,0.0,0.0,0.0,0.0,0.0,0.0,0.0,0.0,0.0,0.0,0.0,0.0,0.0,0.0,0.0,0.0,0.0,0.0,0.0,0.0,0.0,0.0,0.0,0.0,0.0,0.0,0.0,0.0,0.0,0.0,0.0,0.0,0.0,0.0,0.0,0.0,0.0,0.0,0.0,0.0,0.0,0.0,0.0,0.0,0.0,0.0,0.0,0.0,0.0,0.0,0.0,0.0,0.0,0.0,0.0,0.0,0.0,0.0,0.0,0.0,0.0,0.0,0.0,0.0,0.0,0.0,0.4888,0.5212,0.5543,0.5438,0.487,0.474,0.4158,0.0,0.0,0.0,0.0,0.0,0.0,0.0,0.0,0.0,0.0,0.0,0.0,0.0,0.0,0.0,0.0,0.0,0.0,0.0,0.0,0.0,0.0,0.0,0.0,0.0,0.0,0.0,0.0,0.0,0.0,0.0,0.0,0.0,0.0,0.0,0.0,0.0,0.0,0.0,0.0,0.0,0.0,0.0,0.0,0.0,0.0,0.0,0.0,0.0,0.0,0.0,0.0,0.0,0.0,0.0,0.0,0.0,0.0,0.0,0.0,0.0,0.0,0.0,0.0,0.0,0.0,0.0,0.0,0.0,0.0,0.0,0.0,0.0,0.0,0.0,0.0,0.0,0.0,0.0,0.0,0.0,0.0,0.0,0.0,0.0,0.0,0.0,0.0,0.0,0.0,0.0,0.0,0.0,0.0,0.0,0.0,0.0,0.0,0.0,0.0,0.0,0.0,0.0,0.0,0.0,0.0,0.0,0.0,0.5575,0.6077,0.6057,0.5757,0.524,0.5243,0.4622,0.0,0.0,0.0,0.0,0.0,0.0,0.0,0.0,0.0,0.0,0.0,0.0,0.0,0.0,0.0,0.0,0.0,0.0,0.0,0.0,0.0,0.0,0.0,0.0,0.0,0.0,0.0,0.0,0.0,0.0,0.0,0.0,0.0,0.0,0.0,0.0,0.0,0.0,0.0,0.0,0.0,0.0,0.0,0.0,0.0,0.0,0.0,0.0,0.0,0.0,0.0,0.0,0.0,0.0,0.0,0.0,0.0,0.0,0.0,0.0,0.0,0.0,0.0,0.0,0.0,0.0,0.0,0.0,0.0,0.0,0.0,0.0,0.0,0.0,0.0,0.0,0.0,0.0,0.0,0.0,0.0,0.0,0.0,0.0,0.0,0.0,0.0,0.0,0.0,0.0,0.0,0.0,0.0,0.0,0.0,0.0,0.0,0.0,0.0,0.0,0.0,0.0,0.0,0.0,0.0,0.0,0.0,0.0,0.5556,0.5423,0.5951,0.5907,0.5217,0.5496,0.5003,0.0,0.0,0.0,0.0,0.0,0.0,0.0,0.0,0.0,0.0,0.0,0.0,0.0,0.0,0.0,0.0,0.0,0.0,0.0,0.0,0.0,0.0,0.0,0.0,0.0,0.0,0.0,0.0,0.0,0.0,0.0,0.0,0.0,0.0,0.0,0.0,0.0,0.0,0.0,0.0,0.0,0.0,0.0,0.0,0.0,0.0,0.0,0.0,0.6916,0.0,0.0,0.0,0.0,0.0,0.0,0.0,0.0,0.0,0.0,0.0,0.0,0.0,0.0,0.0,0.0,0.0,0.0,0.0,0.0,0.0,0.0,0.0,0.0,0.0,0.0,0.0,0.0,0.0,0.0,0.0,0.0,0.0,0.0,0.0,0.0,0.0,0.0,0.0,0.0,0.0,0.0,0.0,0.0,0.0,0.0,0.0,0.0,0.0,0.0,0.0,0.0,0.0,0.0,0.0,0.0,0.0,0.0,0.0,0.5818,0.5818,0.6036,0.5976,0.5611,0.5909,0.5436,0.0,0.0,0.0,0.0,0.0,0.0,0.0,0.0,0.0,0.0,0.0,0.0,0.0,0.0,0.0,0.0,0.0,0.0,0.0,0.0,0.0,0.0,0.0,0.0,0.0,0.0,0.0,0.0,0.0,0.0,0.0,0.0,0.0,0.0,0.0,0.0,0.0,0.0,0.0,0.0,0.0,0.0,0.0,0.0,0.0,0.0,0.0,0.0,0.0,0.0,0.0,0.0,0.0,0.0,0.0,0.0,0.0,0.0,0.0,0.0,0.0,0.0,0.0,0.0,0.0,0.0,0.0,0.0,0.0,0.0,0.0,0.0,0.0,0.0,0.0,0.0,0.0,0.0,0.0,0.0,0.0,0.0,0.0,0.0,0.0,0.0,0.0,0.0,0.0,0.0,0.0,0.0,0.0,0.0,0.0,0.0,0.0,0.0,0.0,0.0,0.0,0.0,0.0,0.0,0.0,0.0,0.0,0.5976,0.6195,0.6441,0.6159,0.6013,0.6013,0.6151,0.5734,0.4696,0.0,0.0,0.0,0.0,0.0,0.0,0.0,0.0,0.0,0.0,0.0,0.0,0.0,0.0,0.0,0.0,0.0,0.0,0.0,0.0,0.0,0.0,0.0,0.0,0.0,0.0,0.0,0.0,0.0,0.0,0.0,0.0,0.0,0.0,0.0,0.0,0.0,0.0,0.6119,0.7563,0.0,0.0,0.0,0.0,0.0,0.0,0.0,0.0,0.7284,0.0,0.0,0.0,0.0,0.0,0.0,0.0,0.0,0.0,0.0,0.0,0.0,0.0,0.0,0.0,0.0,0.0,0.0,0.0,0.0,0.0,0.0,0.0,0.0,0.0,0.0,0.0,0.0,0.0,0.0,0.0,0.0,0.0,0.0,0.0,0.0,0.0,0.0,0.0,0.0,0.0,0.0,0.0,0.0,0.0,0.0,0.0,0.0,0.0,0.0,0.0,0.0,0.0,0.0,0.0,0.0,0.5555,0.612,0.6388,0.6326,0.6122,0.6013,0.5988,0.5719,0.5461,0.5253,0.0,0.0,0.0,0.0,0.0,0.0,0.0,0.0,0.0,0.0,0.0,0.0,0.0,0.0,0.0,0.0,0.0,0.0,0.0,0.0,0.0,0.0,0.0,0.0,0.0,0.0,0.0,0.0,0.0,0.0,0.0,0.0,0.0,0.0,0.0,0.0,0.0,0.0,0.0,0.7819,0.8815,0.0,0.0,0.0,0.0,0.0,0.0,0.0,0.0,0.7013,0.0,0.0,0.0,0.0,0.0,0.0,0.0,0.0,0.0,0.0,0.0,0.0,0.0,0.0,0.0,0.0,0.0,0.0,0.0,0.0,0.0,0.0,0.0,0.0,0.0,0.0,0.0,0.0,0.0,0.0,0.0,0.0,0.0,0.0,0.0,0.0,0.0,0.0,0.0,0.0,0.0,0.0,0.0,0.0,0.0,0.0,0.0,0.0,0.0,0.0,0.0,0.0,0.0,0.0,0.0,0.5477,0.6016,0.6274,0.6149,0.5957,0.5792,0.5686,0.5494,0.5339,0.0,0.0,0.0,0.0,0.0,0.0,0.0,0.0,0.0,0.0,0.0,0.0,0.0,0.0,0.0,0.0,0.0,0.0,0.0,0.0,0.0,0.0,0.0,0.0,0.0,0.0,0.0,0.0,0.0,0.0,0.0,0.0,0.0,0.0,0.0,0.0,0.0,0.0,0.0,0.0,0.831,0.8874,0.8124,0.0,0.0,0.0,0.0,0.0,0.0,0.7506,0.731,0.0,0.0,0.0,0.0,0.0,0.0,0.0,0.0,0.0,0.0,0.0,0.0,0.0,0.0,0.0,0.0,0.0,0.0,0.0,0.0,0.0,0.0,0.0,0.0,0.0,0.0,0.0,0.0,0.0,0.0,0.0,0.0,0.0,0.0,0.0,0.0,0.0,0.0,0.0,0.0,0.0,0.0,0.0,0.0,0.0,0.0,0.0,0.0,0.0,0.0,0.0,0.0,0.0,0.0,0.0,0.5182,0.5808,0.6089,0.5943,0.5746,0.5565,0.541,0.5526,0.5417,0.0,0.0,0.0,0.0,0.0,0.0,0.0,0.0,0.0,0.0,0.0,0.0,0.0,0.0,0.0,0.0,0.0,0.0,0.0,0.0,0.0,0.0,0.0,0.0,0.0,0.0,0.0,0.0,0.0,0.0,0.0,0.0,0.0,0.0,0.0,0.0,0.0,0.0,0.0,0.0,0.0,0.9047,0.8401,0.9012,0.0,0.0,0.0,0.0,0.8648,0.8235,0.0,0.0,0.0,0.0,0.0,0.0,0.0,0.0,0.0,0.0,0.0,0.0,0.0,0.0,0.0,0.0,0.0,0.0,0.0,0.0,0.0,0.0,0.0,0.0,0.0,0.0,0.0,0.0,0.0,0.0,0.0,0.0,0.0,0.0,0.0,0.0,0.0,0.0,0.0,0.0,0.0,0.0,0.0,0.0,0.0,0.0,0.0,0.0,0.0,0.0,0.0,0.0,0.0,0.0,0.0,0.0,0.4663,0.554,0.5918,0.5721,0.5541,0.5434,0.5405,0.5981,0.5826,0.0,0.0,0.0,0.0,0.0,0.0,0.0,0.0,0.0,0.0,0.0,0.0,0.0,0.0,0.0,0.0,0.0,0.0,0.0,0.0,0.0,0.0,0.0,0.0,0.0,0.0,0.0,0.0,0.0,0.0,0.0,0.0,0.0,0.0,0.0,0.0,0.0,0.0,0.0,0.0,0.0,0.9942,0.8202,0.8692,0.9275,0.0,0.0,0.8642,0.8902,0.8699,0.0,0.0,0.0,0.0,0.0,0.0,0.0,0.0,0.0,0.0,0.0,0.0,0.0,0.0,0.0,0.0,0.0,0.0,0.0,0.0,0.0,0.0,0.0,0.0,0.0,0.0,0.0,0.0,0.0,0.0,0.0,0.0,0.0,0.0,0.0,0.0,0.0,0.0,0.0,0.0,0.0,0.0,0.0,0.0,0.0,0.0,0.0,0.0,0.0,0.0,0.0,0.0,0.0,0.0,0.0,0.5161,0.4887,0.5492,0.5732,0.5532,0.5442,0.5347,0.5228,0.5732,0.5598,0.0,0.0,0.0,0.0,0.0,0.0,0.0,0.0,0.0,0.0,0.0,0.0,0.0,0.0,0.0,0.0,0.0,0.0,0.0,0.0,0.0,0.0,0.0,0.0,0.0,0.0,0.0,0.0,0.0,0.0,0.0,0.0,0.0,0.0,0.0,0.0,0.0,0.0,0.0,0.0,0.0,0.0,0.9565,0.9857,0.0,0.0,0.0,0.9922,1.0468,0.0,0.0,0.0,0.0,0.0,0.0,0.0,0.0,0.0,0.0,0.0,0.0,0.0,0.0,0.0,0.0,0.0,0.0,0.0,0.0,0.0,0.0,0.0,0.0,0.0,0.0,0.0,0.0,0.0,0.0,0.0,0.0,0.0,0.0,0.0,0.0,0.0,0.0,0.0,0.0,0.0,0.0,0.0,0.0,0.0,0.0,0.0,0.0,0.0,0.0,0.0,0.0,0.0,0.0,0.0,0.0,0.0,0.503,0.5408,0.5518,0.5338,0.5314,0.5252,0.5103,0.5382,0.0,0.0,0.0,0.0,0.0,0.0,0.0,0.0,0.0,0.0,0.0,0.0,0.0,0.0,0.0,0.0,0.0,0.0,0.0,0.0,0.0,0.0,0.0,0.0,0.0,0.0,0.0,0.3638,0.0,0.0,0.0,0.0,0.0,0.0,0.0,0.0,0.0,0.0,0.0,0.0,0.0,0.0,0.9616,1.0474,1.0747,1.0948,0.0,0.0,1.1005,1.1386,1.0265,0.9413,0.0,0.0,0.0,0.0,0.0,0.0,0.0,0.0,0.0,0.0,0.0,0.0,0.0,0.0,0.0,0.0,0.0,0.0,0.0,0.0,0.0,0.0,0.0,0.0,0.0,0.0,0.0,0.0,0.0,0.0,0.0,0.0,0.0,0.0,0.0,0.0,0.0,0.0,0.0,0.0,0.0,0.0,0.0,0.0,0.0,0.0,0.0,0.0,0.0,0.0,0.0,0.0,0.0,0.0,0.0,0.4833,0.5224,0.5319,0.5127,0.5112,0.5112,0.5103,0.5127,0.5009,0.0,0.0,0.0,0.0,0.0,0.0,0.0,0.0,0.0,0.0,0.0,0.0,0.0,0.0,0.0,0.0,0.0,0.0,0.0,0.0,0.0,0.0,0.0,0.0,0.0,0.0,0.0,0.0,0.0,0.0,0.0,0.0,0.0,0.0,0.0,0.0,0.0,0.0,0.0,0.0,0.0,1.0288,0.9992,1.0612,1.0966,0.0,0.0,1.1436,1.0853,1.0458,1.0221,1.0241,0.0,0.0,0.0,0.0,0.0,0.0,0.0,0.0,0.0,0.0,0.0,0.0,0.0,0.0,0.0,0.0,0.0,0.0,0.0,0.0,0.0,0.0,0.0,0.0,0.0,0.0,0.0,0.0,0.0,0.0,0.0,0.0,0.0,0.0,0.0,0.0,0.0,0.0,0.0,0.0,0.0,0.0,0.0,0.0,0.0,0.0,0.0,0.0,0.0,0.0,0.0,0.0,0.0,0.4789,0.4793,0.5064,0.518,0.5098,0.5103,0.5103,0.5103,0.5304,0.5195,0.0,0.0,0.0,0.0,0.0,0.0,0.0,0.0,0.0,0.0,0.0,0.0,0.0,0.0,0.0,0.0,0.0,0.0,0.0,0.0,0.0,0.0,0.0,0.0,0.0,0.0,0.0,0.0,0.4347,0.4847,0.518,0.0,0.0,0.0,0.0,0.0,0.0,0.0,0.0,0.0,0.0,1.066,1.0638,1.1,0.0,0.0,1.1392,1.1454,1.1748,1.0788,1.0179,1.0762,0.9893,0.0,0.0,0.0,0.0,0.0,0.0,0.0,0.0,0.0,0.0,0.0,0.0,0.0,0.0,0.0,0.0,0.0,0.0,0.0,0.0,0.0,0.0,0.0,0.0,0.0,0.0,0.0,0.0,0.0,0.0,0.0,0.0,0.0,0.0,0.0,0.0,0.0,0.0,0.0,0.0,0.0,0.0,0.0,0.0,0.0,0.0,0.0,0.0,0.0,0.0,0.0,0.0,0.4827,0.4892,0.5034,0.5103,0.5103,0.5103,0.5103,0.5098,0.5187,0.5077,0.0,0.0,0.0,0.0,0.0,0.0,0.0,0.0,0.0,0.0,0.0,0.0,0.0,0.0,0.0,0.0,0.0,0.0,0.0,0.0,0.0,0.0,0.0,0.0,0.0,0.0,0.0,0.0,0.5007,0.5582,0.6003,0.0,0.0,0.0,0.0,0.0,0.0,0.0,0.0,0.0,0.0,1.0695,1.1266,1.1573,1.1848,1.2138,1.196,1.1927,1.2296,1.1428,1.0822,1.1149,0.0,0.0,0.0,0.0,0.0,0.0,0.0,0.0,0.0,0.0,0.0,0.0,0.0,0.0,0.0,0.0,0.0,0.0,0.0,0.0,0.0,0.0,0.0,0.0,0.0,0.0,0.0,0.0,0.0,0.0,0.1569,0.0,0.0,0.0,0.0,0.0,0.0,0.0,0.0,0.0,0.0,0.0,0.0,0.0,0.0,0.0,0.0,0.0,0.0,0.0,0.0,0.0,0.0,0.4892,0.5098,0.5112,0.5112,0.5103,0.5103,0.5098,0.5088,0.4665,0.4573,0.4869,0.0,0.0,0.0,0.0,0.0,0.0,0.0,0.0,0.0,0.0,0.0,0.0,0.0,0.0,0.0,0.0,0.0,0.0,0.0,0.0,0.0,0.0,0.0,0.0,0.0,0.0,0.5666,0.5716,0.5766,0.0,0.0,0.0,0.0,0.0,0.0,0.0,0.0,0.0,0.0,0.9933,1.0345,1.1678,1.2224,1.2456,1.2385,1.2923,1.3032,1.2185,1.2462,1.2477,0.0,0.0,0.0,0.0,0.0,0.0,0.0,0.0,0.0,0.0,0.0,0.0,0.0,0.0,0.0,0.0,0.0,0.0,0.0,0.0,0.0,0.0,0.0,0.0,0.0,0.0,0.0,0.0968,0.1318,0.0,0.0,0.0,0.0,0.0,0.0,0.0,0.0,0.0,0.0,0.0,0.6562,0.6406,0.0,0.0,0.0,0.0,0.0,0.0,0.0,0.0,0.0,0.0,0.0,0.0,0.5044,0.5112,0.5415,0.5405,0.5122,0.5353,0.5372,0.5112,0.4862,0.4701,0.4628,0.0,0.0,0.0,0.0,0.0,0.0,0.0,0.0,0.0,0.0,0.0,0.0,0.0,0.0,0.0,0.0,0.0,0.0,0.0,0.0,0.0,0.0,0.0,0.0,0.0,0.5699,0.0,0.0,0.0,0.0,0.0,0.0,0.0,0.0,0.0,0.0,0.0,0.9453,0.9791,1.0961,1.1827,1.1963,1.2571,1.282,0.0,0.0,0.0,0.0,0.0,0.0,0.0,0.0,0.0,0.0,0.0,0.0,0.0,0.0,1.2016,1.0115,0.9305,0.8902,0.8889,0.0,0.0,0.0,0.0,0.0,0.0,0.0,0.0,0.0,0.0,0.0,0.0,0.0,0.0,0.1715,0.0,0.2011,0.0,0.0,0.0,0.0,0.0,0.0,0.0,0.0,0.6473,0.6939,0.6991,0.7052,0.7036,0.0,0.6743,0.6821,0.0,0.0,0.0,0.0,0.0,0.0,0.0,0.0,0.5173,0.554,0.5584,0.5567,0.5516,0.5631,0.5545,0.5247,0.4997,0.4711,0.4408,0.4119,0.4101,0.0,0.0,0.0,0.0,0.0,0.0,0.0,0.0,0.0,0.0,0.0,0.0,0.0,0.0,0.0,0.0,0.0,0.0,0.0,0.0,0.0,0.0,0.0,0.6428,0.0,0.0,0.0,0.0,0.0,0.0,0.0,0.0,0.0,0.7944,0.8831,0.9678,1.0159,1.1216,1.202,1.2275,0.0,0.0,0.0,0.0,0.0,0.0,0.0,1.3804,1.3796,1.3477,1.3064,1.2651,1.2933,1.3158,1.2941,0.0,0.0,1.1292,1.0494,1.0096,1.0084,1.0697,1.1219,1.1213,1.2106,1.2902,0.0,0.0,0.0,0.0,0.0,0.0,0.0,0.0,0.1756,0.2294,0.0,0.294,0.0,0.0,0.0,0.0,0.0,0.5059,0.0,0.0,0.677,0.7334,0.7787,0.7719,0.7723,0.7788,0.7959,0.7897,0.7493,0.6128,0.0,0.0,0.0,0.0,0.0,0.0,0.5358,0.6278,0.5646,0.5587,0.6223,0.5909,0.5651,0.5493,0.5061,0.4643,0.4264,0.4556,0.4598,0.4237,0.419,0.0,0.0,0.0,0.0,0.0,0.0,0.0,0.0,0.0,0.0,0.0,0.0,0.0,0.0,0.0,0.0,0.0,0.0,0.0,0.0,0.7435,0.0,0.0,0.0,0.0,0.0,0.0,0.0,0.0,0.0,0.0,0.9522,0.9265,0.9555,1.1018,0.0,0.0,0.0,0.0,1.3394,1.4402,1.5104,1.547,1.5405,1.5408,1.5074,1.4014,0.0,0.0,1.2307,1.3035,1.3608,1.3064,1.3011,1.315,1.3713,1.3137,1.2724,1.2763,1.2784,1.2915,1.3019,1.3757,1.4541,0.093,0.0,0.0,0.0,0.0,0.1377,0.1764,0.2174,0.2553,0.3045,0.3553,0.3548,0.0,0.0,0.0,0.0,0.0,0.0,0.5437,0.5401,0.5978,0.6385,0.662,0.6498,0.6614,0.6941,0.692,0.6852,0.6731,0.6314,0.5989,0.5744,0.0,0.0,0.0,0.0,0.5951,0.5981,0.6072,0.6043,0.5869,0.6046,0.5895,0.5435,0.5304,0.5035,0.4643,0.4479,0.4456,0.4602,0.4073,0.0,0.0,0.0,0.0,0.0,0.0,0.0,0.0,0.0,0.0,0.0,0.0,0.0,0.0,0.0,0.0,0.0,0.0,0.0,0.6754,0.6943,0.7085,0.0,0.0,0.0,0.0,0.0,0.0,0.0,0.0,0.0,1.0546,1.0959,1.128,0.0,0.0,1.3531,1.4036,1.4467,1.4725,1.462,0.0,0.0,0.0,1.4616,1.4751,1.4424,1.4358,1.4245,1.3918,1.3822,1.3861,1.4058,1.411,1.4284,1.4768,1.3492,1.2518,1.2802,1.3234,1.3665,1.4071,1.4738,1.5257,0.1293,0.1268,0.1057,0.118,0.1529,0.1894,0.2335,0.2823,0.3235,0.3827,0.4524,0.4598,0.4667,0.4749,0.467,0.0,0.0,0.0,0.5852,0.5917,0.6401,0.6673,0.6795,0.6679,0.6747,0.7031,0.6955,0.6922,0.6914,0.6914,0.6691,0.6271,0.0,0.0,0.617,0.6091,0.6063,0.6121,0.6144,0.6182,0.6167,0.6332,0.6175,0.5659,0.5418,0.5133,0.4807,0.4491,0.4487,0.478,0.4187,0.3994,0.0,0.0,0.0,0.0,0.0,0.0,0.0,0.0,0.0,0.0,0.0,0.3934,0.0,0.0,0.0,0.0,0.5477,0.6516,0.7203,0.7456,0.0,0.0,0.0,0.0,0.0,0.0,0.0,0.9866,0.9764,1.0115,1.135,1.2003,1.2275,1.2039,1.3118,1.4018,1.4241,0.0,1.4777,1.462,1.5095,1.5251,1.4581,1.4541,1.4585,1.4585,1.4803,1.4938,1.4947,1.4676,1.4598,1.4855,1.496,1.5078,1.5434,1.4315,1.3471,1.3848,1.4215,1.4581,1.4917,1.5421,1.5862,0.1384,0.159,0.1454,0.1666,0.21,0.2309,0.2757,0.3368,0.3724,0.4494,0.5495,0.5738,0.5872,0.5882,0.5355,0.0,0.6129,0.6402,0.6782,0.7248,0.7507,0.7683,0.7806,0.771,0.7663,0.7657,0.7682,0.7693,0.7684,0.7681,0.7396,0.6783,0.6398,0.6339,0.6556,0.5962,0.5932,0.6551,0.604,0.6089,0.6792,0.6657,0.6383,0.5927,0.5394,0.5009,0.479,0.459,0.4595,0.4779,0.4383,0.4185,0.4225,0.0,0.0,0.0,0.0,0.0,0.0,0.0,0.0,0.0,0.0,0.0,0.0,0.0,0.0,0.0,0.6652,0.0,0.7676,0.847,0.0,0.0,0.0,0.8035,0.7929,0.8382,0.8942,0.9569,0.0,0.0,1.1949,0.0,1.2742,1.2158,1.2638,1.3242,1.3791,1.3901,1.4045,1.4541,1.5065,1.5408,1.527,1.4964,1.4738,1.4751,1.5134,1.5457,1.5457,1.5457,1.5483,1.5575,1.5575,1.5604,1.564,1.5614,1.5627,1.5601,1.5565,1.5565,1.5679,1.6098,1.6454,0.1077,0.145,0.14,0.1679,0.2125,0.2373,0.2644,0.2982,0.3518,0.4075,0.4628,0.5138,0.56,0.5989,0.6093,0.6212,0.6346,0.6665,0.6809,0.6844,0.69,0.6956,0.7001,0.7201,0.7322,0.7338,0.7575,0.7689,0.7696,0.7688,0.762,0.7458,0.7273,0.6991,0.6602,0.6671,0.6601,0.6363,0.6238,0.6133,0.606,0.6249,0.6054,0.5412,0.5257,0.4991,0.4581,0.4517,0.4585,0.477,0.4118,0.3985,0.4484,0.4212,0.0,0.0,0.0,0.0,0.0,0.0,0.0,0.0,0.0,0.6196,0.5635,0.0,0.6812,0.0,0.6929,0.7099,0.691,0.744,0.0,0.0,0.8769,0.9126,0.9629,0.957,0.9838,1.0703,1.1044,1.1389,1.1935,1.2917,1.336,1.2789,1.3561,1.4254,1.4406,1.4411,1.445,1.4581,1.4751,1.4816,1.4872,1.5113,1.53,1.5278,1.5418,1.55,1.55,1.55,1.563,1.6062,1.6199,1.6346,1.6689,1.6794,1.6781,1.6778,1.6477,1.6323,1.6702,1.6911,1.7003,0.0628,0.0992,0.1008,0.1245,0.1699,0.2095,0.259,0.3087,0.3414,0.381,0.4245,0.4819,0.5384,0.5911,0.6081,0.6291,0.6555,0.6715,0.6972,0.7219,0.7178,0.7178,0.7238,0.7363,0.7422,0.7425,0.7612,0.7696,0.7692,0.7684,0.7604,0.7434,0.7354,0.7106,0.6671,0.6859,0.6783,0.6407,0.6297,0.6169,0.6036,0.6207,0.6028,0.5453,0.5308,0.5151,0.4964,0.4857,0.4983,0.5289,0.4739,0.4627,0.5096,0.5006,0.5036,0.0,0.0,0.0,0.0,0.0,0.0,0.0,0.0,0.0,0.0,0.0,0.7419,0.0,0.741,0.7589,0.8143,0.8494,0.8875,0.927,0.9313,0.9503,0.9904,0.9986,1.0334,1.1116,1.1409,1.1768,1.2335,1.2977,1.3391,1.3294,1.3852,1.4254,1.4267,1.4437,1.4585,1.4598,1.4829,1.4999,1.499,1.5509,1.5911,1.5928,1.6111,1.6255,1.6245,1.6245,1.6385,1.6676,1.6765,1.6856,1.7146,1.7222,1.7222,1.716,1.6963,1.6898,1.7157,1.7222,1.7222,0.0181,0.0445,0.043,0.0703,0.1193,0.1699,0.2407,0.3227,0.333,0.3639,0.4111,0.4606,0.5143,0.5659,0.5653,0.6008,0.6603,0.665,0.7088,0.779,0.768,0.7722,0.785,0.7701,0.7637,0.7628,0.7601,0.7565,0.7581,0.7546,0.7355,0.7014,0.7014,0.6919,0.6716,0.6786,0.6732,0.6502,0.6298,0.6226,0.6223,0.6262,0.6098,0.5713,0.5479,0.5412,0.552,0.5357,0.5491,0.5953,0.5639,0.5539,0.5708,0.5875,0.5812,0.0,0.6081,0.0,0.0,0.0,0.0,0.0,0.0,0.0,0.0,0.7266,0.8002,0.8214,0.8059,0.8491,0.9898,1.0064,0.9991,0.9775,0.9669,0.9623,0.9734,1.0201,1.0723,1.1233,1.1794,1.2315,1.2802,1.2967,1.3242,1.3674,1.3909,1.4014,1.3953,1.4319,1.462,1.4694,1.5235,1.5653,1.5774,1.6166,1.6506,1.6545,1.683,1.7209,1.7157,1.7146,1.7196,1.7196,1.716,1.7186,1.7222,1.7222,1.7222,1.7199,1.7173,1.7173,1.7209,1.7222,1.7222,0.0044,0.0089,0.008,0.0588,0.1346,0.14,0.1748,0.2297,0.2947,0.3504,0.3955,0.4284,0.4629,0.5001,0.5266,0.564,0.6146,0.642,0.6834,0.7332,0.7304,0.7451,0.7719,0.7447,0.7294,0.7283,0.7013,0.6897,0.6878,0.6659,0.6542,0.646,0.6565,0.6639,0.6694,0.0,0.0,0.0,0.6322,0.6085,0.5846,0.6076,0.6046,0.5717,0.5707,0.0,0.5648,0.5639,0.5734,0.5965,0.5833,0.0,0.0,0.0,0.0,0.0,0.0,0.0,0.0,0.0,0.0,0.0,0.8143,0.8008,0.7479,0.8464,0.91,0.893,0.9055,0.915,0.9123,0.9023,0.9094,0.9516,0.9923,1.0331,1.0808,1.135,1.1726,1.1845,1.2376,1.2755,1.2928,1.332,1.3674,1.3822,1.4184,1.4437,1.4463,1.4585,1.479,1.527,1.5875,1.6375,1.6807,1.6927,1.7003,1.7078,1.7105,1.7209,1.7222,1.7222,1.7222,1.7222,1.7222,1.7222,1.7222,1.7222,1.7222,1.7222,1.7222,1.7222,1.7222,1.7222,1.7222,-0.0457,0.0,-0.0126,0.0229,0.0,0.1203,0.1576,0.1838,0.2555,0.3075,0.3433,0.3654,0.3915,0.4238,0.4731,0.5167,0.5583,0.5969,0.6413,0.6844,0.6851,0.6981,0.7206,0.7034,0.6918,0.6844,0.6689,0.6535,0.6456,0.6311,0.6194,0.6049,0.6114,0.6269,0.6507,0.6842,0.687,0.6587,0.6344,0.603,0.5716,0.5735,0.5677,0.5531,0.0,0.0,0.0,0.0,0.0,0.0,0.0,0.0,0.0,0.0,0.0,0.6456,0.6897,0.708,0.6878,0.7201,0.7595,0.7966,0.8381,0.8592,0.8586,0.8618,0.8685,0.885,0.9248,0.9527,0.9595,0.9764,1.0115,1.0677,1.0977,1.127,1.1585,1.2094,1.2427,1.2492,1.2977,1.3338,1.3338,1.3582,1.3901,1.4149,1.4415,1.482,1.5365,1.5496,1.5696,1.6232,1.6558,1.6895,1.7133,1.7222,1.7222,1.7209,1.7222,1.7222,1.7222,1.7222,1.7222,1.7222,1.7222,1.7222,1.7222,1.7222,1.7222,1.7222,1.7222,1.7222,1.7222,1.7222,1.7222,-0.0881,-0.0771,-0.025,-0.0057,0.0011,0.1022,0.153,0.1732,0.0,0.0,0.0,0.3127,0.3406,0.3685,0.4289,0.4766,0.5136,0.5524,0.5943,0.6371,0.6377,0.6491,0.6678,0.6591,0.6489,0.6437,0.6331,0.6189,0.6024,0.5943,0.5819,0.5615,0.5626,0.5894,0.6299,0.6778,0.6886,0.6667,0.6452,0.6175,0.5872,0.5646,0.5536,0.5521,0.5799,0.6089,0.6356,0.6698,0.6822,0.6718,0.6804,0.6804,0.6723,0.7149,0.7513,0.7767,0.8145,0.8073,0.7474,0.8081,0.8276,0.7799,0.8556,0.9187,0.9498,0.8667,0.8409,0.9009,0.9606,1.0122,1.0567,1.103,1.1514,1.1955,1.2099,1.2151,1.2205,1.2682,1.3072,1.3111,1.3482,1.3791,1.377,1.3875,1.4084,1.4515,1.482,1.5278,1.6255,1.648,1.6611,1.7003,1.7107,1.7196,1.7222,1.7222,1.7222,1.7222,1.7222,1.7222,1.7222,1.7222,1.7222,1.7222,1.7222,1.7222,1.7222,1.7222,1.7222,1.7222,1.7222,1.7225,1.7329,1.7366,1.7382,-0.0845,-0.045,-0.0261,0.0058,0.0414,0.0709,0.1285,0.2065,0.2658,0.2911,0.2906,0.3228,0.3552,0.3869,0.4253,0.4714,0.5177,0.5253,0.5502,0.0,0.5894,0.6176,0.6659,0.6165,0.6001,0.6107,0.5618,0.5366,0.5301,0.4999,0.4803,0.4814,0.4999,0.5524,0.6267,0.6751,0.699,0.694,0.6906,0.675,0.6483,0.6443,0.6416,0.6424,0.6504,0.6589,0.663,0.6949,0.7133,0.7121,0.7504,0.7542,0.7153,0.7548,0.7653,0.7338,0.736,0.7416,0.7491,0.7816,0.8356,0.9174,1.0207,1.0461,0.959,0.9764,1.0188,1.0782,1.1252,1.1681,1.1765,1.1838,1.1936,1.2052,1.2479,1.2776,1.2789,1.3273,1.3626,1.3634,1.3731,1.3817,1.3883,1.4201,1.4498,1.4742,1.5474,1.6349,1.6846,1.7094,1.7107,1.7186,1.7222,1.7222,1.7222,1.7222,1.7222,1.7222,1.7222,1.7222,1.7222,1.7222,1.7222,1.7222,1.7222,1.7222,1.7222,1.7222,1.7248,1.7261,1.7277,1.7395,1.7817,1.7939,1.7965,-0.1575,-0.1292,-0.0602,-0.0182,0.0036,0.0502,0.1086,0.1731,0.2005,0.243,0.2907,0.3068,0.332,0.3652,0.3979,0.4368,0.4779,0.4991,0.5225,0.5458,0.5469,0.5646,0.5881,0.5663,0.5516,0.5487,0.522,0.5002,0.4806,0.4631,0.4513,0.4487,0.5048,0.5583,0.599,0.6662,0.6983,0.6983,0.685,0.671,0.6603,0.6462,0.6381,0.64,0.6576,0.6717,0.6717,0.7014,0.7103,0.6892,0.7207,0.7259,0.6922,0.7457,0.7731,0.7606,0.7829,0.8024,0.8136,0.8848,0.9722,1.0775,1.1344,1.1415,1.0919,1.1069,1.1329,1.1611,1.1864,1.2138,1.2447,1.2486,1.2617,1.2936,1.3234,1.3386,1.3404,1.3616,1.3791,1.3791,1.3791,1.3914,1.4188,1.445,1.4921,1.547,1.6336,1.6924,1.716,1.7222,1.7222,1.7222,1.7222,1.7222,1.7222,1.7222,1.7222,1.7222,1.7222,1.7222,1.7222,1.7222,1.7222,1.7222,1.7222,1.7222,1.7222,1.7222,1.734,1.7656,1.7693,1.7874,1.8129,1.8259,1.8477,-0.2186,-0.1974,-0.0905,-0.0419,-0.0315,0.029,0.0806,0.1219,0.1245,0.1826,0.2707,0.2866,0.3115,0.3499,0.3804,0.4092,0.4351,0.4697,0.4915,0.5019,0.5111,0.5201,0.5268,0.5222,0.5124,0.502,0.4936,0.4778,0.4555,0.4477,0.4401,0.4392,0.5232,0.5712,0.5701,0.655,0.6983,0.6986,0.68,0.668,0.669,0.6425,0.6278,0.6267,0.6631,0.681,0.6819,0.7254,0.7346,0.7071,0.7267,0.7347,0.7253,0.779,0.8208,0.8407,0.873,0.9039,0.9272,1.0059,1.0977,1.1911,1.2125,1.219,1.2203,1.2333,1.2333,1.2249,1.2374,1.2635,1.3011,1.3119,1.3286,1.3739,1.3791,1.3765,1.3791,1.3791,1.387,1.3948,1.3966,1.4188,1.465,1.4934,1.5444,1.6385,1.695,1.7186,1.7222,1.7222,1.7222,1.7222,1.7222,1.7222,1.7222,1.7222,1.7222,1.7222,1.7222,1.7222,1.7222,1.7222,1.7222,1.7235,1.7356,1.7458,1.7421,1.7565,1.7757,1.8059,1.8093,1.8161,1.8253,1.84,1.8758,-0.2198,-0.1682,-0.1018,-0.0494,-0.0215,-0.0013,0.0355,0.0758,0.0769,0.1357,0.238,0.2748,0.3217,0.3746,0.3979,0.409,0.416,0.4356,0.4486,0.4541,0.4854,0.5129,0.5251,0.501,0.4924,0.5006,0.4725,0.4618,0.4644,0.444,0.4302,0.4403,0.5243,0.5707,0.5803,0.6571,0.6983,0.6983,0.6984,0.697,0.6957,0.669,0.6494,0.6376,0.6931,0.7191,0.7093,0.7904,0.8351,0.8349,0.8471,0.8738,0.9009,0.928,0.956,0.9845,0.9916,1.0226,1.0789,1.0967,1.1321,1.1945,1.2531,1.2808,1.2841,1.3299,1.337,1.3025,1.3299,1.3552,1.3705,1.3713,1.3744,1.3857,1.3896,1.3791,1.3861,1.3791,1.3979,1.4476,1.4528,1.4742,1.5317,1.5836,1.6425,1.6937,1.7042,1.7146,1.7209,1.7133,1.7173,1.7186,1.7222,1.7222,1.7222,1.7222,1.7222,1.7222,1.7222,1.7238,1.7264,1.7269,1.7238,1.7445,1.7655,1.7941,1.8037,1.8353,1.8505,1.8297,1.8282,1.8291,1.8326,1.8403,1.8754,-0.3021,-0.2734,-0.1752,-0.1034,-0.0497,-0.0229,0.0188,0.0686,0.078,0.1424,0.2362,0.2603,0.3026,0.3636,0.3835,0.3978,0.4112,0.4427,0.4608,0.471,0.4951,0.5091,0.5137,0.493,0.479,0.4734,0.4571,0.4519,0.4578,0.458,0.4495,0.443,0.5306,0.5787,0.5766,0.656,0.6983,0.6983,0.6983,0.6985,0.6937,0.6827,0.6761,0.6779,0.6944,0.7206,0.7466,0.788,0.821,0.8489,0.8687,0.8935,0.9281,0.9491,0.9739,1.0059,1.01,1.0473,1.1293,1.1491,1.1923,1.2767,1.3197,1.3409,1.3422,1.3665,1.3665,1.353,1.3652,1.3791,1.3835,1.4079,1.4289,1.4319,1.4581,1.4803,1.4812,1.4799,1.4908,1.5104,1.5143,1.5352,1.5944,1.6519,1.6937,1.712,1.6963,1.6836,1.7107,1.6937,1.6885,1.7133,1.7222,1.7222,1.7222,1.7222,1.7222,1.7222,1.7222,1.7264,1.7611,1.746,1.7417,1.7745,1.7992,1.8068,1.7863,1.8222,1.8475,1.8359,1.8409,1.8386,1.8327,1.818,1.8224,-0.3638,-0.3458,-0.2289,-0.1343,-0.0687,-0.0393,-0.0014,0.0421,0.0659,0.1289,0.2142,0.2296,0.2695,0.326,0.35,0.3673,0.383,0.4154,0.4368,0.4484,0.4774,0.4917,0.4916,0.4898,0.4754,0.4569,0.4529,0.4488,0.4476,0.4638,0.4576,0.4488,0.5341,0.5797,0.5809,0.655,0.6983,0.6983,0.6985,0.696,0.6918,0.6872,0.6872,0.694,0.7113,0.7385,0.7757,0.8069,0.8386,0.8757,0.9018,0.9302,0.9636,0.986,1.0127,1.0438,1.048,1.0827,1.1612,1.1866,1.237,1.323,1.3552,1.3803,1.3971,1.4018,1.4097,1.4267,1.4258,1.4284,1.4153,1.4546,1.486,1.5019,1.5346,1.5509,1.5474,1.55,1.5522,1.5705,1.5735,1.5967,1.649,1.6807,1.6924,1.6885,1.665,1.6493,1.6885,1.6781,1.6804,1.7133,1.7209,1.7222,1.7222,1.7222,1.7222,1.7275,1.7314,1.76,1.7948,1.7653,1.7527,1.781,1.8056,1.8199,1.8141,1.8287,1.84,1.8405,1.8348,1.8222,1.8033,1.7813,1.7686,-0.378,-0.3572,-0.2207,-0.1273,-0.0687,-0.0477,-0.0378,-0.0182,0.0252,0.0812,0.1468,0.1874,0.2305,0.2759,0.2946,0.3055,0.3093,0.3312,0.3444,0.3542,0.4214,0.4529,0.4541,0.4824,0.4883,0.4675,0.459,0.4447,0.434,0.4464,0.444,0.4365,0.5261,0.5712,0.5814,0.6571,0.6989,0.6996,0.6933,0.6929,0.6954,0.6815,0.673,0.6798,0.7495,0.7893,0.8057,0.8787,0.9267,0.9432,0.9769,1.0157,1.0492,1.0765,1.1054,1.1347,1.1404,1.1599,1.1954,1.2111,1.2487,1.3104,1.3382,1.3749,1.4445,1.4523,1.4723,1.5317,1.5308,1.5232,1.4963,1.5228,1.5597,1.5879,1.5704,1.5623,1.5575,1.5692,1.581,1.6215,1.6349,1.6506,1.7003,1.6728,1.6532,1.648,1.6425,1.6464,1.6699,1.6948,1.7144,1.729,1.7329,1.7248,1.7248,1.7342,1.7316,1.7412,1.7713,1.7926,1.785,1.7784,1.7805,1.7809,1.7921,1.81,1.8332,1.8473,1.8521,1.8404,1.7989,1.7799,1.7717,1.7592,1.7493,-0.3852,-0.3028,-0.211,-0.1372,-0.0827,-0.0659,-0.0378,0.0042,0.0601,0.1133,0.1637,0.2113,0.2338,0.2392,0.2463,0.256,0.2695,0.3021,0.3217,0.338,0.4095,0.4441,0.4468,0.4827,0.4927,0.4767,0.4731,0.4593,0.448,0.4739,0.4686,0.4532,0.5337,0.5792,0.5863,0.656,0.6975,0.6933,0.695,0.6918,0.684,0.6819,0.6793,0.6736,0.7209,0.7697,0.8106,0.8637,0.9136,0.9603,0.9922,1.0244,1.0602,1.106,1.1361,1.1494,1.1504,1.1597,1.1828,1.2023,1.2534,1.3346,1.3458,1.3879,1.4627,1.4873,1.4966,1.5245,1.5792,1.595,1.593,1.599,1.614,1.6267,1.6474,1.6545,1.6584,1.6584,1.6686,1.6859,1.6898,1.6885,1.6676,1.6529,1.6398,1.6369,1.6075,1.6362,1.716,1.7366,1.7471,1.8098,1.8296,1.8296,1.8296,1.797,1.7811,1.7915,1.8101,1.8185,1.8168,1.7909,1.7844,1.7994,1.8009,1.7923,1.8127,1.8042,1.817,1.7993,1.7604,1.7548,1.7407,1.7396,1.7354,-0.4015,-0.2792,-0.2319,-0.1665,-0.0925,-0.0813,-0.0532,-0.0084,0.0643,0.1161,0.1525,0.2073,0.2268,0.2142,0.2102,0.2142,0.2312,0.2643,0.2961,0.3284,0.3907,0.4311,0.4536,0.4914,0.5026,0.4902,0.4841,0.4727,0.463,0.486,0.4845,0.4664,0.549,0.5901,0.6025,0.6624,0.6975,0.6939,0.696,0.6886,0.6793,0.6804,0.6878,0.6963,0.7209,0.76,0.8124,0.8624,0.9108,0.9604,0.9941,1.0293,1.0726,1.122,1.1504,1.1504,1.1504,1.1541,1.1676,1.199,1.2531,1.333,1.3571,1.4065,1.5092,1.5243,1.5381,1.5748,1.621,1.665,1.664,1.665,1.666,1.6686,1.6977,1.7209,1.7222,1.7196,1.7183,1.7133,1.6963,1.6751,1.6464,1.6241,1.6111,1.6124,1.5996,1.665,1.7447,1.7878,1.7944,1.8728,1.8819,1.8925,1.8972,1.8734,1.8258,1.8282,1.8364,1.8449,1.8261,1.8008,1.7919,1.8088,1.8077,1.7922,1.7783,1.7673,1.7562,1.7454,1.7448,1.7407,1.7348,1.732,1.7202,-0.4208,-0.2963,-0.2894,-0.2055,-0.1009,-0.0926,-0.0883,-0.0673,0.0224,0.0701,0.0897,0.1624,0.1975,0.1975,0.1908,0.1839,0.1909,0.2144,0.2517,0.3028,0.3591,0.4113,0.4598,0.5058,0.5209,0.5093,0.4909,0.4812,0.4816,0.4857,0.4938,0.5232,0.5636,0.604,0.6307,0.6749,0.6989,0.6975,0.6935,0.6899,0.6878,0.6762,0.6931,0.7314,0.7566,0.7808,0.8062,0.8829,0.9328,0.9534,0.9921,1.0399,1.0954,1.1323,1.1504,1.1504,1.1515,1.1526,1.1599,1.2107,1.2615,1.3201,1.3559,1.4391,1.5456,1.5795,1.6115,1.6734,1.7016,1.7146,1.7133,1.7131,1.712,1.7173,1.7186,1.7209,1.7222,1.7222,1.7222,1.7146,1.6846,1.6464,1.6294,1.6124,1.5892,1.6009,1.6545,1.7251,1.7735,1.8349,1.8808,1.9002,1.92,1.9449,1.95,1.9459,1.8933,1.8538,1.8622,1.8658,1.8205,1.7898,1.7798,1.79,1.7758,1.7615,1.7615,1.7493,1.7324,1.723,1.7257,1.7131,1.6923,1.6819,1.6901,-0.3918,-0.3016,-0.2587,-0.1961,-0.1206,-0.108,-0.1038,-0.0968,-0.0224,0.0224,0.0575,0.1121,0.1555,0.181,0.1825,0.1797,0.1811,0.1909,0.2088,0.249,0.3253,0.3838,0.4225,0.4936,0.5283,0.523,0.5174,0.5086,0.5028,0.502,0.519,0.5546,0.5792,0.6169,0.6636,0.6881,0.6975,0.6929,0.6903,0.6872,0.6772,0.6736,0.6931,0.7377,0.7725,0.8093,0.8535,0.9007,0.9316,0.9514,1.0108,1.0717,1.1231,1.1438,1.1504,1.1536,1.1809,1.1973,1.2037,1.2481,1.3114,1.3778,1.4207,1.484,1.5798,1.6243,1.6507,1.6879,1.7063,1.7222,1.7222,1.7222,1.716,1.7209,1.7222,1.7173,1.716,1.7183,1.7222,1.7186,1.7052,1.6817,1.6581,1.6388,1.6634,1.6686,1.7342,1.8009,1.8793,1.9107,1.9721,2.002,2.0074,1.9781,1.9726,1.9481,1.8982,1.8672,1.8706,1.8634,1.8203,1.7815,1.7734,1.7634,1.7476,1.736,1.736,1.7266,1.7101,1.6896,1.6795,1.6556,1.6274,1.641,1.6753,-0.3962,-0.3241,-0.2699,-0.2085,-0.1499,-0.1346,-0.129,-0.1192,-0.0645,-0.0112,0.035,0.0757,0.1276,0.1699,0.1755,0.1727,0.1741,0.1783,0.1976,0.2348,0.3153,0.3835,0.4336,0.4967,0.5315,0.5315,0.5315,0.5254,0.519,0.5412,0.5695,0.6019,0.6304,0.6695,0.7147,0.7225,0.7194,0.7087,0.7067,0.6929,0.6787,0.6878,0.7253,0.7798,0.8254,0.8785,0.9373,0.9649,0.969,0.9718,1.0235,1.0812,1.1278,1.1579,1.1764,1.1842,1.2169,1.2452,1.2517,1.2942,1.3549,1.4326,1.4707,1.5277,1.6079,1.6571,1.6723,1.6903,1.6876,1.6908,1.6882,1.665,1.6663,1.6898,1.6895,1.6908,1.6898,1.6898,1.7016,1.7055,1.7,1.6833,1.6846,1.7186,1.7523,1.7628,1.8242,1.8689,1.9422,1.9605,1.993,1.9985,1.9553,1.9508,1.9795,1.9484,1.9007,1.8814,1.8726,1.8546,1.8213,1.7791,1.7554,1.7493,1.7376,1.7129,1.7071,1.697,1.6819,1.6593,1.6507,1.6613,1.667,1.6874,1.7144,-0.4228,-0.3558,-0.31,-0.2474,-0.1846,-0.1654,-0.1612,-0.1529,-0.1037,-0.0435,0.0154,0.0477,0.1066,0.1628,0.1685,0.1628,0.1642,0.1741,0.2184,0.2738,0.3389,0.4098,0.506,0.526,0.5301,0.5315,0.5315,0.533,0.5456,0.5855,0.6368,0.6697,0.7042,0.748,0.7718,0.775,0.7548,0.7348,0.7293,0.7126,0.6829,0.7241,0.7809,0.8546,0.9009,0.9617,1.0288,1.0509,1.0376,0.9967,1.0479,1.094,1.1199,1.1828,1.2254,1.2255,1.2682,1.29,1.3063,1.3445,1.395,1.451,1.5053,1.5679,1.6378,1.6568,1.6751,1.6959,1.6702,1.6451,1.6359,1.6281,1.6205,1.6398,1.6634,1.6621,1.649,1.6519,1.6794,1.7042,1.6807,1.6611,1.7107,1.7656,1.7944,1.8192,1.8857,1.9161,1.9136,1.9278,1.9345,1.9201,1.8959,1.8932,1.9128,1.882,1.8425,1.8667,1.8489,1.813,1.7842,1.7414,1.7206,1.7178,1.7222,1.6975,1.6899,1.6896,1.6798,1.6637,1.6732,1.6973,1.71,1.7163,1.7448,-0.3799,-0.3227,-0.3088,-0.2685,-0.2127,-0.1947,-0.1891,-0.1863,-0.1596,-0.0826,-0.0098,0.0028,0.0715,0.1699,0.1656,0.1656,0.1727,0.1783,0.2408,0.3267,0.35,0.4239,0.5118,0.5315,0.5301,0.5301,0.5342,0.554,0.5955,0.6159,0.6634,0.7406,0.7435,0.7678,0.7957,0.7831,0.7681,0.7598,0.7486,0.7378,0.7284,0.7809,0.8383,0.8856,0.9371,1.0012,1.07,1.0832,1.091,1.0926,1.1305,1.1705,1.1985,1.2452,1.2725,1.2801,1.3183,1.3477,1.3576,1.3926,1.4314,1.4609,1.5228,1.5788,1.6117,1.6375,1.6505,1.6595,1.6451,1.6411,1.6516,1.6974,1.7222,1.7003,1.699,1.6963,1.6935,1.7013,1.7068,1.716,1.7078,1.7091,1.7366,1.7761,1.8129,1.8257,1.8675,1.912,1.8938,1.8875,1.8966,1.8727,1.8515,1.8387,1.8258,1.7981,1.7946,1.8349,1.8103,1.7502,1.7094,1.6578,1.6539,1.6579,1.6931,1.6852,1.7052,1.7183,1.6985,1.6784,1.6932,1.7137,1.7056,1.709,1.7599,-0.3549,-0.3218,-0.3021,-0.2745,-0.2368,-0.1987,-0.1832,-0.1748,-0.1357,-0.0714,0.0014,0.0028,0.0617,0.1642,0.1487,0.1501,0.1685,0.1727,0.2364,0.3417,0.4001,0.4612,0.5128,0.5274,0.5274,0.5256,0.5476,0.5827,0.6227,0.6548,0.7093,0.7601,0.7825,0.8011,0.8204,0.815,0.7969,0.7842,0.7743,0.7681,0.772,0.8308,0.8936,0.951,1.0109,1.0777,1.1331,1.1414,1.146,1.1572,1.1782,1.2115,1.2595,1.3022,1.3227,1.3259,1.3729,1.398,1.4024,1.4265,1.4524,1.4823,1.5344,1.5612,1.5891,1.6229,1.6516,1.6431,1.6598,1.6702,1.6872,1.7578,1.7863,1.7667,1.7578,1.7392,1.6961,1.683,1.7131,1.7342,1.7382,1.7434,1.7787,1.8194,1.8338,1.8493,1.8702,1.8754,1.8597,1.8586,1.8492,1.8291,1.8198,1.8145,1.812,1.793,1.7922,1.8248,1.8066,1.7368,1.7059,1.6513,1.6611,1.6809,1.683,1.6929,1.7248,1.7431,1.7289,1.7204,1.7255,1.7416,1.7489,1.7501,1.7964,-0.333,-0.3288,-0.2886,-0.2663,-0.2479,-0.1931,-0.1595,-0.1384,-0.0854,-0.0224,0.0224,0.0252,0.0701,0.1543,0.1318,0.1318,0.1614,0.1726,0.2448,0.3472,0.4377,0.5042,0.5004,0.5201,0.5252,0.533,0.5768,0.6159,0.658,0.7187,0.7576,0.7871,0.821,0.8342,0.837,0.8469,0.8352,0.8076,0.8025,0.8116,0.8331,0.8844,0.9464,1.0233,1.1014,1.1529,1.188,1.2015,1.203,1.1981,1.2009,1.2417,1.299,1.3499,1.3729,1.3805,1.4112,1.4342,1.4386,1.4386,1.4503,1.4835,1.5129,1.5385,1.5694,1.6276,1.671,1.6587,1.699,1.7356,1.7682,1.8035,1.8166,1.8153,1.814,1.7575,1.6794,1.648,1.6895,1.7798,1.7463,1.78,1.8323,1.8728,1.8649,1.8035,1.8296,1.8296,1.8178,1.8154,1.8039,1.7867,1.7878,1.7958,1.7964,1.7965,1.8081,1.8254,1.8036,1.7664,1.7676,1.7376,1.7312,1.7339,1.7333,1.7431,1.7617,1.7661,1.7618,1.7805,1.8008,1.8269,1.8454,1.8407,1.8659,-0.2842,-0.283,-0.2747,-0.2424,-0.2001,-0.1818,-0.1482,-0.102,-0.0852,-0.028,0.014,0.0224,0.0659,0.1361,0.1276,0.1375,0.1684,0.2004,0.2726,0.3855,0.4694,0.4932,0.4881,0.5046,0.533,0.5614,0.5968,0.6561,0.7241,0.7523,0.7923,0.8322,0.8322,0.8395,0.8395,0.8408,0.8342,0.82,0.826,0.8482,0.8871,0.9348,1.0014,1.0806,1.1559,1.1892,1.1965,1.2051,1.2229,1.2507,1.2765,1.3035,1.349,1.3963,1.4188,1.4221,1.4298,1.4407,1.4396,1.4375,1.4312,1.4384,1.5125,1.5617,1.5442,1.65,1.7011,1.7131,1.7575,1.8283,1.8963,1.8872,1.8793,1.8715,1.8375,1.7865,1.7212,1.7026,1.716,1.7342,1.7356,1.7316,1.7588,1.7695,1.7672,1.7591,1.7708,1.7785,1.7846,1.7897,1.7934,1.7978,1.8197,1.835,1.8231,1.8277,1.8358,1.8496,1.8308,1.8165,1.8196,1.8127,1.8017,1.7912,1.7832,1.7963,1.8152,1.8234,1.8274,1.8522,1.875,1.8876,1.8997,1.9096,1.8919,-0.2691,-0.2663,-0.2396,-0.2099,-0.1734,-0.1189,-0.0769,-0.0448,-0.0168,0.0154,0.0463,0.0519,0.0785,0.1178,0.1164,0.136,0.1989,0.2713,0.3366,0.4049,0.4629,0.4812,0.4839,0.5101,0.5481,0.58,0.6439,0.7074,0.7509,0.7836,0.8089,0.8381,0.8401,0.8355,0.8348,0.8388,0.8421,0.8401,0.8408,0.8692,0.9347,0.9767,1.0533,1.133,1.1906,1.2064,1.2026,1.2064,1.2409,1.2827,1.312,1.3348,1.3727,1.4139,1.4384,1.4407,1.4407,1.4407,1.4385,1.4233,1.4315,1.479,1.5378,1.581,1.6289,1.7215,1.7629,1.7848,1.8401,1.9277,2.0073,2.002,1.9681,1.9264,1.8806,1.8244,1.7721,1.7392,1.7353,1.7447,1.7408,1.746,1.746,1.7395,1.7525,1.7813,1.7931,1.8022,1.8414,1.846,1.8465,1.8541,1.8788,1.8846,1.8647,1.8604,1.866,1.8819,1.8918,1.8864,1.8897,1.879,1.8676,1.8552,1.8421,1.8585,1.8755,1.8817,1.8961,1.9221,1.9394,1.942,1.9322,1.9124,1.8868,-0.2663,-0.2521,-0.2001,-0.1692,-0.1385,-0.0476,0.0014,0.021,0.0659,0.0771,0.0897,0.0912,0.0968,0.1052,0.1163,0.1611,0.2503,0.3341,0.3965,0.4187,0.4536,0.4767,0.4949,0.5413,0.585,0.595,0.6783,0.7388,0.7742,0.8008,0.8215,0.8268,0.8308,0.8295,0.8261,0.8374,0.8434,0.8448,0.8533,0.8981,0.9703,1.0102,1.0825,1.1744,1.2051,1.2088,1.2101,1.2203,1.2486,1.3072,1.323,1.3374,1.361,1.4081,1.4407,1.4407,1.4407,1.4461,1.4563,1.4446,1.4766,1.595,1.6054,1.6333,1.7244,1.803,1.8488,1.8716,1.9161,1.9826,2.0477,2.0151,1.989,1.9499,1.8989,1.8558,1.8048,1.7562,1.7654,1.7667,1.7473,1.7408,1.7641,1.7732,1.7902,1.8048,1.8179,1.8414,1.8832,1.9076,1.9124,1.9427,1.9749,1.9754,1.9561,1.9071,1.9106,1.9094,1.9307,1.9353,1.943,1.9436,1.9289,1.9119,1.9076,1.9207,1.9311,1.9374,1.956,1.9863,1.9711,1.9442,1.9249,1.9105,1.8839,-0.2396,-0.1931,-0.1832,-0.1231,-0.035,-0.0056,0.0294,0.0715,0.0827,0.0883,0.0912,0.101,0.101,0.1107,0.1596,0.2362,0.3169,0.385,0.4192,0.4387,0.464,0.4806,0.5175,0.5845,0.6378,0.685,0.7347,0.7767,0.808,0.8242,0.8389,0.8453,0.8366,0.8258,0.8333,0.8408,0.8526,0.8547,0.8778,0.9393,0.9994,1.0435,1.0926,1.1902,1.2064,1.2113,1.2209,1.2431,1.2676,1.2835,1.337,1.3491,1.3573,1.4068,1.4405,1.4441,1.4485,1.4616,1.4859,1.533,1.5624,1.6209,1.6893,1.7394,1.7923,1.8713,1.9304,1.9414,1.9513,1.9826,1.9891,1.963,1.904,1.8571,1.8438,1.8151,1.7745,1.7735,1.78,1.7748,1.7525,1.746,1.7852,1.8179,1.8362,1.8636,1.8922,1.9251,1.9695,1.9874,1.9921,2.0334,2.0835,2.0737,2.0571,1.9936,1.9598,1.9424,1.95,1.9569,1.9682,1.9916,1.9873,1.9355,1.9447,1.9725,1.9813,1.9781,1.9711,1.9684,1.9511,1.9313,1.9227,1.9116,1.8844,-0.2071,-0.1748,-0.1147,-0.0546,0.0,0.0336,0.0617,0.0855,0.0883,0.0883,0.0912,0.0982,0.1163,0.1386,0.1679,0.2514,0.3485,0.4157,0.4434,0.4625,0.4699,0.4819,0.5256,0.6065,0.6591,0.7102,0.7677,0.8157,0.8362,0.8562,0.8637,0.8737,0.8661,0.8619,0.8677,0.8903,0.8898,0.8898,0.9323,0.988,1.0485,1.0884,1.1523,1.1843,1.2098,1.22,1.2421,1.2554,1.2908,1.326,1.3607,1.3763,1.398,1.4308,1.4717,1.4678,1.4766,1.4951,1.5183,1.5601,1.6085,1.7084,1.7739,1.8415,1.9039,1.9819,2.0049,1.9812,1.942,1.9342,1.9329,1.9043,1.8806,1.8597,1.8504,1.8349,1.8231,1.8364,1.8246,1.8063,1.8231,1.8336,1.8388,1.8662,1.8845,1.9172,1.9589,2.0008,2.044,2.0575,2.0591,2.0886,2.1227,2.0958,2.0692,2.0062,1.9616,1.9514,1.9453,1.9506,1.9518,1.9573,1.9453,1.9119,1.9442,2.0014,1.978,1.9557,1.9524,1.9513,1.9411,1.9316,1.9242,1.9103,1.8869,-0.1651,-0.1357,-0.0406,0.007,0.0252,0.0687,0.0869,0.0883,0.0883,0.0982,0.1079,0.112,0.1456,0.1906,0.2266,0.284,0.3845,0.4508,0.4699,0.4738,0.4767,0.4865,0.5534,0.6131,0.6919,0.758,0.8262,0.8708,0.8583,0.8706,0.8901,0.8943,0.8986,0.9118,0.9239,0.9451,0.9487,0.9811,1.0069,1.056,1.1002,1.1553,1.1989,1.2088,1.2088,1.2258,1.2458,1.2897,1.3248,1.3715,1.4095,1.4357,1.4609,1.4996,1.5203,1.5196,1.5314,1.5408,1.5587,1.5733,1.6503,1.763,1.7958,1.8906,1.9717,2.0067,2.0242,1.9811,1.9133,1.8858,1.895,1.8795,1.8793,1.8872,1.8847,1.8873,1.8834,1.8912,1.9056,1.9017,1.9146,1.9159,1.9133,1.9172,1.9355,1.9746,2.0163,2.0294,2.0713,2.108,2.1199,2.1335,2.1388,2.1022,2.0547,1.9817,1.9428,1.9184,1.9072,1.9026,1.9004,1.8967,1.8923,1.9098,1.959,2.0014,1.966,1.9447,1.9529,1.9529,1.9414,1.9308,1.9241,1.9204,1.9071,-0.1189,-0.0196,-0.007,0.0294,0.0743,0.0869,0.0883,0.0897,0.0912,0.1204,0.1623,0.172,0.2028,0.2599,0.3266,0.3894,0.4436,0.4738,0.4872,0.4875,0.4981,0.551,0.6396,0.6779,0.7527,0.8153,0.8917,0.9106,0.8953,0.8847,0.8879,0.9021,0.9105,0.9276,0.9827,1.0058,1.0471,1.0963,1.1102,1.1284,1.1616,1.1971,1.2134,1.2125,1.2174,1.2274,1.2588,1.3223,1.3849,1.4065,1.4988,1.5354,1.5322,1.5529,1.5922,1.6041,1.6036,1.5913,1.6194,1.6386,1.678,1.7784,1.8301,1.8994,1.9462,1.9717,1.976,1.9812,1.886,1.8466,1.8649,1.8493,1.8543,1.878,1.9041,1.9041,1.9068,1.9538,1.9669,1.9773,1.985,1.9811,1.9798,1.9824,1.9903,2.0333,2.066,2.0778,2.095,2.1303,2.1603,2.1701,2.1414,2.1053,2.066,1.9903,1.9377,1.9049,1.878,1.8678,1.8753,1.8851,1.9098,1.9333,1.9764,1.9873,1.9573,1.9469,1.9589,1.9534,1.9392,1.9303,1.9236,1.9231,1.9311,-0.0476,0.0028,0.0364,0.0645,0.0883,0.0883,0.0883,0.0954,0.126,0.1553,0.1846,0.2179,0.2639,0.3258,0.3972,0.4437,0.4723,0.4916,0.5005,0.5177,0.5433,0.5981,0.6603,0.7347,0.8153,0.8576,0.9117,0.9353,0.925,0.9226,0.926,0.9368,0.9368,0.9647,1.0349,1.0711,1.1123,1.1565,1.1936,1.2297,1.2559,1.2693,1.267,1.2485,1.2643,1.2847,1.3223,1.3806,1.4563,1.4855,1.5492,1.5537,1.5636,1.59,1.6223,1.6403,1.6308,1.6199,1.623,1.6622,1.7134,1.7664,1.8203,1.8432,1.8861,1.8963,1.8899,1.8795,1.8414,1.831,1.8545,1.8532,1.8911,1.9198,1.9419,1.9615,1.9758,2.0033,2.0334,2.0438,2.0477,2.0347,2.0255,2.0268,2.0281,2.049,2.0857,2.108,2.1225,2.1456,2.173,2.1952,2.1521,2.1011,2.0647,2.0118,1.9566,1.9148,1.8596,1.8552,1.8695,1.8862,1.9087,1.9098,1.9163,1.925,1.9353,1.9469,1.9556,1.9469,1.9349,1.9444,1.9565,1.9646,1.9921,0.021,0.0266,0.0729,0.0883,0.0912,0.1052,0.1121,0.119,0.1761,0.2125,0.2402,0.2903,0.343,0.3851,0.4405,0.4736,0.4775,0.5053,0.5274,0.5567,0.5981,0.6495,0.718,0.7991,0.8449,0.8737,0.9249,0.9446,0.948,0.948,0.952,0.9718,0.9711,1.012,1.0782,1.1391,1.1899,1.2374,1.2799,1.3071,1.3195,1.3241,1.3102,1.3069,1.3244,1.3609,1.3964,1.4669,1.5337,1.5591,1.5955,1.6107,1.626,1.6468,1.6634,1.6702,1.6588,1.6359,1.6306,1.6497,1.7044,1.7404,1.7861,1.8062,1.875,1.8493,1.8466,1.8756,1.8481,1.8532,1.8728,1.9094,1.9393,1.9785,2.0034,2.0334,2.0542,2.0542,2.0555,2.0582,2.0595,2.0621,2.0582,2.0621,2.0686,2.0738,2.1001,2.1276,2.1355,2.1402,2.1338,2.1419,2.1125,2.0665,2.0456,2.0091,1.9652,1.9405,1.8855,1.8578,1.8797,1.8892,1.9052,1.8954,1.8936,1.9472,2.0085,1.9812,1.9583,1.9888,2.0118,1.996,1.9977,2.0107,2.0774,0.0827,0.0841,0.0883,0.0912,0.0967,0.1498,0.172,0.1776,0.2374,0.2959,0.3444,0.4018,0.4253,0.4468,0.4657,0.4872,0.4903,0.5242,0.5683,0.6085,0.6482,0.7186,0.7877,0.842,0.8821,0.9258,0.9484,0.9484,0.9526,0.9606,0.958,0.9564,0.991,1.0638,1.1434,1.2172,1.2781,1.3209,1.3538,1.3489,1.3456,1.3419,1.3364,1.3418,1.3693,1.3993,1.4077,1.5178,1.5914,1.6138,1.6578,1.6866,1.692,1.7019,1.7074,1.691,1.6577,1.6332,1.6256,1.6096,1.6039,1.6374,1.7102,1.8015,1.8632,1.8872,1.9069,1.9409,1.9159,1.9445,1.9824,2.0177,2.0085,2.0229,2.0399,2.049,2.0621,2.0634,2.0647,2.0686,2.0699,2.0699,2.0699,2.0699,2.0699,2.0738,2.0738,2.1001,2.0898,2.0888,2.063,2.054,2.0412,2.0209,2.0135,1.9977,2.0106,2.0001,1.961,1.9209,1.9033,1.9116,1.9366,1.9438,1.9605,2.0215,2.0733,2.0662,2.0675,2.0842,2.0856,2.0616,2.079,2.1115,2.204,0.0883,0.0912,0.1288,0.1442,0.1484,0.1692,0.2026,0.2416,0.2986,0.3583,0.4153,0.4411,0.4556,0.4668,0.4802,0.4941,0.5111,0.5749,0.613,0.6674,0.7263,0.7967,0.8571,0.892,0.9264,0.9446,0.9494,0.9494,0.951,0.9718,0.9686,0.9782,1.0142,1.1038,1.1942,1.2902,1.3603,1.3886,1.4088,1.409,1.4083,1.402,1.3919,1.3728,1.4416,1.4718,1.4962,1.5825,1.6394,1.6792,1.7124,1.7245,1.7306,1.7306,1.7139,1.6841,1.6391,1.6087,1.5966,1.5861,1.5951,1.6543,1.7499,1.8411,1.8638,1.9004,1.9435,1.9734,1.9942,2.0242,2.0438,2.0503,2.0477,2.0621,2.0699,2.0699,2.0699,2.0699,2.0699,2.0699,2.0699,2.0699,2.0699,2.0699,2.0699,2.0699,2.0699,2.0699,2.0715,2.073,2.0616,2.0682,2.0669,2.0705,2.0694,2.0707,2.0754,2.0568,2.0361,2.0004,1.9707,1.9842,2.0048,2.012,2.0306,2.0846,2.1276,2.1578,2.1633,2.1519,2.1355,2.1143,2.1511,2.208,2.2995,0.101,0.1205,0.1624,0.1804,0.1846,0.2179,0.2583,0.3012,0.3611,0.4073,0.4491,0.4494,0.459,0.4715,0.4835,0.5181,0.552,0.608,0.6621,0.7246,0.7967,0.8576,0.892,0.9183,0.943,0.9494,0.9494,0.9494,0.951,0.9888,1.0104,1.0256,1.0453,1.1288,1.2019,1.3383,1.4133,1.4297,1.4381,1.4441,1.4413,1.4445,1.4396,1.4232,1.4912,1.5348,1.5644,1.6301,1.6873,1.7126,1.7281,1.7292,1.7306,1.7227,1.6983,1.6544,1.6099,1.5749,1.5783,1.5937,1.638,1.7128,1.8327,1.8697,1.8769,1.9355,2.006,2.0125,2.0477,2.0777,2.0882,2.0856,2.066,2.0699,2.0699,2.0699,2.0699,2.0699,2.0699,2.0699,2.0699,2.0725,2.0844,2.087,2.0909,2.0844,2.0712,2.0831,2.1054,2.1068,2.1056,2.1212,2.1419,2.148,2.1549,2.1588,2.1611,2.1433,2.1202,2.0811,2.0595,2.0677,2.0658,2.0648,2.0939,2.1459,2.1902,2.2302,2.2198,2.198,2.197,2.2078,2.2612,2.3209,2.3673,0.1247,0.1762,0.1818,0.186,0.2041,0.3056,0.3527,0.3638,0.4156,0.4436,0.4494,0.4515,0.4597,0.475,0.4963,0.5453,0.6042,0.6444,0.7116,0.8064,0.8474,0.892,0.9215,0.9462,0.9494,0.9494,0.9494,0.9494,0.951,0.9919,1.0392,1.0944,1.1139,1.1467,1.153,1.2827,1.3769,1.4237,1.4306,1.4327,1.4381,1.447,1.4451,1.4728,1.5303,1.5746,1.6089,1.6691,1.7166,1.7264,1.7306,1.7306,1.7306,1.7216,1.6929,1.6457,1.604,1.6031,1.6421,1.6658,1.7248,1.8043,1.9202,1.9447,1.9301,1.9889,2.0661,2.0674,2.0779,2.1104,2.1196,2.1156,2.0842,2.0699,2.0699,2.0699,2.0699,2.0948,2.1014,2.104,2.087,2.0791,2.0961,2.108,2.1132,2.1053,2.0804,2.0949,2.1368,2.1511,2.1563,2.1746,2.1992,2.2102,2.2208,2.2441,2.2464,2.2295,2.2053,2.1697,2.1397,2.1286,2.1262,2.1203,2.1647,2.2237,2.2665,2.3055,2.2907,2.2818,2.3099,2.3337,2.3859,2.416,2.4437,0.161,0.1874,0.2653,0.3,0.3056,0.3405,0.3818,0.4181,0.4408,0.4491,0.4515,0.4586,0.4712,0.4951,0.5478,0.5966,0.6444,0.7553,0.8307,0.8458,0.8898,0.9215,0.9452,0.9494,0.9494,0.9494,0.9494,0.951,0.9516,1.012,1.0503,1.0975,1.1732,1.2274,1.2773,1.3565,1.4034,1.4261,1.4312,1.4342,1.4426,1.4485,1.4654,1.4946,1.5584,1.6032,1.6304,1.6987,1.7264,1.7306,1.7306,1.7306,1.7216,1.7106,1.6612,1.6217,1.5869,1.6247,1.6954,1.7557,1.8286,1.9152,1.9838,2.0111,1.9746,2.0597,2.1067,2.1171,2.108,2.1315,2.142,2.104,2.0739,2.0712,2.0699,2.0699,2.0778,2.1263,2.1511,2.1551,2.1446,2.1642,2.1838,2.1851,2.1851,2.1982,2.1865,2.1786,2.2074,2.2113,2.2139,2.2322,2.2515,2.2647,2.2803,2.3045,2.2921,2.262,2.265,2.2662,2.2368,2.1951,2.1893,2.185,2.2436,2.3012,2.322,2.3412,2.3652,2.3773,2.3819,2.3746,2.3814,2.4239,2.4762,0.2041,0.25,0.3264,0.3724,0.389,0.3901,0.4153,0.446,0.4491,0.4491,0.4522,0.4637,0.496,0.5389,0.5895,0.6749,0.7135,0.7962,0.8753,0.884,0.9253,0.943,0.9478,0.9494,0.9494,0.9494,0.9516,0.9564,0.9846,1.0685,1.1125,1.1499,1.2151,1.2788,1.3359,1.37,1.3995,1.4163,1.4237,1.4342,1.4431,1.4571,1.4828,1.525,1.5773,1.6285,1.6637,1.6987,1.7306,1.7306,1.7306,1.7317,1.7172,1.6964,1.6525,1.6217,1.6349,1.6904,1.7848,1.8841,1.9598,2.0328,2.0792,2.0661,2.0387,2.0963,2.1132,2.1237,2.1276,2.1263,2.1198,2.0791,2.0804,2.0764,2.0948,2.0961,2.1145,2.1616,2.1982,2.2021,2.2113,2.2387,2.2661,2.2701,2.2688,2.2858,2.2989,2.2871,2.2728,2.2702,2.2768,2.2977,2.3133,2.3293,2.3442,2.3625,2.3401,2.2967,2.3035,2.3195,2.2866,2.2399,2.2448,2.2573,2.3085,2.3499,2.3558,2.373,2.39,2.4062,2.4159,2.4042,2.3831,2.4364,2.5076,0.2541,0.3527,0.3624,0.3962,0.4432,0.4422,0.446,0.4491,0.4491,0.4491,0.4501,0.4651,0.5133,0.5858,0.618,0.7033,0.813,0.8484,0.892,0.9269,0.9446,0.9494,0.9494,0.9494,0.9494,0.9516,0.9612,0.9884,1.0276,1.0841,1.1421,1.2143,1.282,1.3208,1.342,1.361,1.3845,1.3995,1.4222,1.4297,1.4396,1.4719,1.5025,1.5483,1.6032,1.6485,1.6807,1.7085,1.725,1.7306,1.7306,1.7314,1.7314,1.7306,1.695,1.6834,1.7062,1.7726,1.8643,1.9576,2.033,2.0746,2.1172,2.1067,2.0936,2.0988,2.1054,2.0962,2.0883,2.087,2.0791,2.0844,2.0909,2.1105,2.138,2.1485,2.1629,2.1956,2.2321,2.2491,2.2597,2.2832,2.3171,2.3302,2.3302,2.3485,2.3563,2.3485,2.3341,2.3276,2.338,2.3668,2.3825,2.3955,2.4057,2.4002,2.3708,2.32,2.3333,2.3435,2.3093,2.2957,2.311,2.332,2.3719,2.3938,2.3879,2.3949,2.4091,2.4262,2.4504,2.4457,2.4289,2.4872,2.5454,0.3275,0.3638,0.4073,0.4353,0.4491,0.4491,0.4491,0.4491,0.4491,0.4491,0.4518,0.4753,0.5325,0.6017,0.6743,0.7614,0.8361,0.8947,0.9253,0.9452,0.9494,0.9494,0.9494,0.9494,0.9494,0.9638,0.9868,1.0149,1.0523,1.1014,1.1988,1.2926,1.3003,1.317,1.3329,1.3459,1.364,1.386,1.4118,1.4297,1.4482,1.4863,1.525,1.5787,1.6275,1.6722,1.7046,1.7213,1.7347,1.735,1.7317,1.739,1.7791,1.7511,1.715,1.7087,1.7153,1.7402,1.8426,1.9251,1.9956,2.054,2.0809,2.0884,2.0791,2.083,2.087,2.0765,2.0713,2.0765,2.0988,2.1132,2.1341,2.1668,2.1917,2.2073,2.2243,2.2569,2.2909,2.304,2.3146,2.3355,2.368,2.3732,2.3772,2.3993,2.4058,2.3954,2.3862,2.3745,2.3758,2.4032,2.4111,2.4111,2.4111,2.407,2.3791,2.3539,2.3643,2.3673,2.348,2.345,2.3717,2.3933,2.4101,2.4134,2.4068,2.4215,2.453,2.4676,2.4881,2.4816,2.4892,2.5472,2.5845,0.3738,0.3987,0.4349,0.4491,0.4491,0.4491,0.4491,0.4491,0.4491,0.4491,0.456,0.4991,0.5567,0.6347,0.7226,0.8064,0.8766,0.9201,0.9462,0.9462,0.9494,0.9494,0.9494,0.9532,0.9676,0.9868,1.0165,1.0491,1.0973,1.1755,1.2682,1.2942,1.2858,1.2996,1.3155,1.3268,1.3413,1.3664,1.3944,1.4282,1.4675,1.5093,1.5575,1.6101,1.6584,1.6998,1.728,1.7412,1.7544,1.7576,1.7576,1.7686,1.7912,1.7562,1.7317,1.7285,1.7458,1.7836,1.862,1.9199,1.972,2.0156,2.0511,2.0662,2.0712,2.0726,2.0739,2.0699,2.0739,2.0844,2.1185,2.1538,2.1917,2.231,2.2493,2.2688,2.2975,2.3275,2.3458,2.3588,2.3758,2.3928,2.4071,2.4111,2.4111,2.4111,2.4111,2.4071,2.4019,2.398,2.3954,2.4071,2.4111,2.4111,2.4111,2.4111,2.3936,2.3804,2.3878,2.3878,2.3774,2.3815,2.3975,2.4155,2.4333,2.44,2.4517,2.4805,2.5066,2.5225,2.5476,2.5657,2.5759,2.5994,2.6253,0.3987,0.4474,0.4491,0.4491,0.4491,0.4491,0.4491,0.4501,0.457,0.457,0.4726,0.5279,0.597,0.676,0.7628,0.8374,0.8922,0.9342,0.9494,0.9494,0.9494,0.9494,0.9516,0.958,0.9868,1.0165,1.057,1.1075,1.1794,1.2359,1.2652,1.2775,1.2775,1.2867,1.2965,1.3094,1.3338,1.3778,1.4144,1.4538,1.5045,1.5474,1.5963,1.6498,1.6985,1.739,1.7478,1.7675,1.7944,1.7923,1.7912,1.7882,1.7835,1.7671,1.7467,1.752,1.7774,1.8153,1.874,1.9344,1.9927,2.0359,2.0661,2.0766,2.0844,2.0726,2.0712,2.0909,2.1014,2.1433,2.1825,2.2086,2.2427,2.2832,2.3146,2.3263,2.3418,2.3653,2.3797,2.3902,2.3941,2.4111,2.4111,2.4111,2.4111,2.4111,2.4111,2.4111,2.4111,2.4111,2.4111,2.4111,2.4111,2.4111,2.4111,2.4111,2.4111,2.4068,2.4109,2.4081,2.3951,2.4047,2.4187,2.4463,2.4779,2.4951,2.5121,2.5315,2.5534,2.585,2.6154,2.6562,2.6719,2.669,2.6742,0.4363,0.4491,0.4491,0.4491,0.4491,0.4491,0.4491,0.4543,0.4942,0.5103,0.5175,0.5539,0.6226,0.7216,0.7847,0.8508,0.9008,0.9344,0.947,0.9494,0.9494,0.9558,0.959,0.982,1.0149,1.0507,1.1012,1.17,1.2251,1.256,1.2652,1.2652,1.2675,1.2737,1.2912,1.3018,1.3255,1.3954,1.4499,1.4936,1.5406,1.6302,1.7008,1.7368,1.7758,1.7723,1.7693,1.7551,1.7554,1.7456,1.747,1.7653,1.7955,1.7861,1.7839,1.7888,1.801,1.8284,1.8735,1.9345,1.994,2.0258,2.0538,2.0912,2.1028,2.083,2.087,2.1158,2.1498,2.1982,2.24,2.2635,2.2896,2.3354,2.3746,2.3784,2.3822,2.3954,2.4098,2.4111,2.4111,2.4111,2.4111,2.4111,2.4111,2.4111,2.4111,2.4111,2.4111,2.4111,2.4111,2.4111,2.4111,2.4111,2.4111,2.4111,2.4111,2.4164,2.4189,2.4163,2.415,2.4476,2.479,2.5027,2.5275,2.55,2.5644,2.568,2.5926,2.6373,2.6595,2.6899,2.7131,2.7154,2.7232,0.4491,0.4491,0.4491,0.4491,0.4491,0.4491,0.4625,0.4887,0.5181,0.5619,0.6077,0.6271,0.6695,0.7494,0.804,0.847,0.898,0.9322,0.9452,0.9494,0.9526,0.9702,0.9846,0.9996,1.0523,1.0926,1.1685,1.2313,1.256,1.2606,1.2606,1.2606,1.2629,1.2698,1.2889,1.2897,1.3301,1.4267,1.4851,1.5371,1.5837,1.6764,1.7191,1.7537,1.7622,1.7686,1.7726,1.7562,1.766,1.762,1.7675,1.7558,1.7707,1.7606,1.7653,1.7687,1.7821,1.8129,1.8643,1.9239,1.9913,2.0284,2.0797,2.1315,2.142,2.1302,2.1642,2.1904,2.1904,2.2309,2.2727,2.3,2.3327,2.3732,2.3902,2.3967,2.3993,2.4045,2.4111,2.4111,2.4111,2.4111,2.4111,2.4111,2.4111,2.4111,2.4111,2.4111,2.4111,2.4111,2.4111,2.4111,2.4111,2.4111,2.4111,2.4111,2.4111,2.4178,2.4321,2.4557,2.4753,2.5105,2.5432,2.5707,2.5942,2.6128,2.6216,2.6253,2.6527,2.6984,2.7089,2.7183,2.7376,2.7503,2.7464,0.4463,0.4491,0.4491,0.4491,0.4519,0.4584,0.4859,0.5263,0.5496,0.6109,0.6936,0.7104,0.7192,0.7557,0.8189,0.8506,0.8857,0.9296,0.9452,0.9494,0.9494,0.9638,0.9798,1.0005,1.0785,1.1553,1.2259,1.2467,1.259,1.2606,1.2606,1.2606,1.2621,1.2667,1.2745,1.2932,1.3356,1.4213,1.4931,1.5683,1.6406,1.7138,1.728,1.7259,1.7229,1.7362,1.7529,1.7628,1.789,1.7846,1.7748,1.7609,1.7467,1.7412,1.739,1.7456,1.767,1.817,1.8799,1.9373,2.0039,2.0643,2.1251,2.1642,2.1786,2.206,2.2401,2.2584,2.2584,2.2688,2.3106,2.3405,2.3745,2.3941,2.4032,2.4111,2.4111,2.4111,2.4111,2.4111,2.4111,2.4111,2.4111,2.4111,2.4111,2.4111,2.4111,2.4111,2.4111,2.4111,2.4111,2.4111,2.4111,2.4111,2.4111,2.4164,2.4178,2.4439,2.465,2.5003,2.5356,2.5722,2.6088,2.6452,2.6674,2.6739,2.6883,2.6942,2.7268,2.7411,2.7389,2.7337,2.7402,2.7503,2.7503,0.4356,0.4491,0.4491,0.4491,0.4556,0.4952,0.5226,0.5459,0.6344,0.6936,0.7179,0.7561,0.7741,0.7778,0.839,0.871,0.88,0.9248,0.9452,0.9494,0.9494,0.958,0.9894,1.0444,1.1381,1.2027,1.2467,1.256,1.2606,1.2606,1.2606,1.2606,1.2606,1.2645,1.27,1.2983,1.3503,1.4378,1.5204,1.599,1.656,1.7246,1.7869,1.7939,1.7962,1.7915,1.7824,1.7576,1.7478,1.7423,1.7467,1.7401,1.7347,1.7306,1.7306,1.739,1.7617,1.8225,1.8854,1.9576,2.0274,2.1146,2.1745,2.2319,2.2528,2.2831,2.3145,2.3472,2.3459,2.3353,2.3626,2.3784,2.4045,2.4045,2.4098,2.4111,2.4111,2.4111,2.4111,2.4111,2.4111,2.4111,2.4111,2.4111,2.4111,2.4111,2.4111,2.4111,2.4124,2.4111,2.4163,2.4202,2.4256,2.4111,2.4111,2.4243,2.4334,2.465,2.5055,2.5552,2.5984,2.6324,2.669,2.6961,2.7154,2.7245,2.7398,2.7359,2.7398,2.7464,2.7477,2.7477,2.7503,2.7503,2.7503]},{"header":{"parameterUnit":"m.s-1","parameterCategory":1,"la1":31.0,"la2":29.5877,"lo1":-88.7671,"lo2":-86.6584,"dy":0.0162,"dx":0.0185,"nx":115,"ny":88,"refTime":"2026-03-14T12:00:00:Z","depth":0,"parameterNumber":3,"parameterNumberName":"V-component_of_WINDS"},"data":[0.0,0.0,0.0,0.0,0.0,0.0,0.0,0.0,0.0,0.0,0.0,0.0,0.0,0.0,0.0,0.0,0.0,0.0,0.0,0.0,0.0,0.0,0.0,0.0,0.0,0.0,0.0,0.0,0.0,0.0,0.0,0.0,0.0,0.0,0.0,0.0,0.0,0.0,0.0,0.0,0.0,0.0,0.0,0.0,0.0,0.0,0.0,0.0,0.0,0.0,0.0,0.0,0.0,0.0,0.0,0.0,0.0,0.0,0.0,0.0,0.0,0.0,0.0,0.0,0.0,0.0,0.0,0.0,0.0,0.0,0.0,0.0,0.0,0.0,0.0,0.0,0.0,0.0,0.0,0.0,0.0,0.0,0.0,0.0,0.0,0.0,0.0,0.0,0.0,0.0,0.0,0.0,0.0,0.0,0.0,0.0,0.0,0.0,0.0,0.0,0.0,0.0,0.0,0.0,0.0,0.0,0.0,0.0,0.0,0.0,0.0,0.0,0.0,0.0,0.0,0.0,0.0,0.0,0.0,0.0,0.0,0.0,0.0,0.0,0.0,0.0,0.0,0.0,0.0,0.0,0.0,0.0,0.0,0.0,0.0,0.0,0.0,0.0,0.0,0.0,0.0,0.0,0.0,0.0,0.0,0.0,0.0,0.0,0.0,0.0,0.0,0.0,0.0,0.0,0.0,0.0,0.0,0.0,0.0,0.0,0.0,0.0,0.0,0.0,0.0,0.0,0.0,0.0,0.0,0.0,0.0,0.0,0.0,0.0,0.0,0.0,0.0,0.0,0.0,0.0,0.0,0.0,0.0,0.0,0.0,0.0,0.0,0.0,0.0,0.0,0.0,0.0,0.0,0.0,0.0,0.0,0.0,0.0,0.0,0.0,0.0,0.0,0.0,0.0,0.0,0.0,0.0,0.0,0.0,0.0,0.0,0.0,0.0,0.0,0.0,0.0,0.0,0.0,0.0,0.0,0.0,0.0,0.0,0.0,0.0,0.0,0.0,0.0,0.0,0.0,0.0,0.0,0.0,0.0,0.0,0.0,0.0,0.0,0.0,0.0,0.0,0.0,0.0,0.0,0.0,0.0,0.0,0.0,0.0,0.0,0.0,0.0,0.0,0.0,0.0,0.0,0.0,0.0,0.0,0.0,0.0,0.0,0.0,0.0,0.0,0.0,0.0,0.0,0.0,0.0,0.0,0.0,0.0,0.0,0.0,0.0,0.0,0.0,0.0,0.0,0.0,0.0,0.0,0.0,0.0,0.0,0.0,0.0,0.0,0.0,0.0,0.0,0.0,0.0,0.0,0.0,0.0,0.0,0.0,0.0,0.0,0.0,0.0,0.0,0.0,0.0,0.0,0.0,0.0,0.0,0.0,0.0,0.0,0.0,0.0,0.0,0.0,0.0,0.0,0.0,0.0,0.0,0.0,0.0,0.0,0.0,0.0,0.0,0.0,0.0,0.0,0.0,0.0,0.0,0.0,0.0,0.0,0.0,0.0,0.0,0.0,0.0,0.0,0.0,0.0,0.0,0.0,0.0,0.0,0.0,0.0,0.0,0.0,0.0,0.0,0.0,0.0,0.0,0.0,0.0,0.0,0.0,0.0,0.0,0.0,0.0,0.0,0.0,0.0,0.0,0.0,0.0,0.0,0.0,0.0,0.0,0.0,0.0,0.0,0.0,0.0,0.0,0.0,0.0,0.0,0.0,0.0,0.0,0.0,0.0,0.0,0.0,0.0,0.0,0.0,0.0,0.0,0.0,0.0,0.0,0.0,0.0,0.0,0.0,0.0,0.0,0.0,0.0,0.0,0.0,0.0,0.0,0.0,0.0,0.0,0.0,0.0,0.0,0.0,0.0,0.0,0.0,0.0,0.0,0.0,0.0,0.0,0.0,0.0,0.0,0.0,0.0,0.0,0.0,0.0,0.0,0.0,0.0,0.0,0.0,0.0,0.0,0.0,0.0,0.0,0.0,0.0,0.0,0.0,0.0,0.0,0.0,0.0,0.0,0.0,0.0,0.0,0.0,0.0,0.0,0.0,0.0,0.0,0.0,0.0,0.0,0.0,0.0,0.0,0.0,0.0,0.0,0.0,0.0,0.0,0.0,0.0,0.0,0.0,0.0,0.0,0.0,0.0,0.0,0.0,0.0,0.0,0.0,0.0,0.0,0.0,0.0,0.0,0.0,0.0,0.0,0.0,0.0,0.0,0.0,0.0,0.0,0.0,0.0,0.0,0.0,0.0,0.0,0.0,0.0,0.0,0.0,0.0,0.0,0.0,0.0,0.0,0.0,0.0,0.0,0.0,0.0,0.0,0.0,0.0,0.0,0.0,0.0,0.0,0.0,0.0,0.0,0.0,0.0,0.0,0.0,0.0,0.0,0.0,0.0,0.0,0.0,0.0,0.0,0.0,0.0,0.0,0.0,0.0,0.0,0.0,0.0,0.0,0.0,0.0,0.0,0.0,0.0,0.0,0.0,0.0,0.0,0.0,0.0,0.0,0.0,0.0,0.0,0.0,0.0,0.0,0.0,0.0,0.0,0.0,0.0,0.0,0.0,0.0,0.0,0.0,0.0,0.0,0.0,0.0,0.0,0.0,0.0,0.0,0.0,0.0,0.0,0.0,0.0,0.0,0.0,0.0,0.0,0.0,0.0,0.0,0.0,0.0,0.0,0.0,0.0,0.0,0.0,0.0,0.0,0.0,0.0,0.0,0.0,0.0,0.0,0.0,0.0,0.0,0.0,0.0,0.0,0.0,0.0,0.0,0.0,0.0,0.0,0.0,0.0,0.0,0.0,0.0,0.0,0.0,0.0,0.0,0.0,0.0,0.0,0.0,0.0,0.0,0.0,0.0,0.0,0.0,0.0,0.0,0.0,0.0,0.0,0.0,0.0,0.0,0.0,0.0,0.0,0.0,0.0,0.0,0.0,0.0,0.0,0.0,0.0,0.0,0.0,0.0,0.0,0.0,0.0,0.0,0.0,0.0,0.0,0.0,0.0,0.0,0.0,0.0,0.0,0.0,0.0,0.0,0.0,0.0,0.0,0.0,0.0,0.0,0.0,0.0,0.0,0.0,0.0,0.0,0.0,0.0,0.0,0.0,0.0,0.0,0.0,0.0,0.0,0.0,0.0,0.0,0.0,0.0,0.0,0.0,0.0,0.0,0.0,0.0,0.0,0.0,0.0,0.0,0.0,0.0,0.0,0.0,0.0,0.0,0.0,0.0,0.0,0.0,0.0,0.0,0.0,0.0,0.0,0.0,0.0,0.0,0.0,0.0,0.0,0.0,0.0,0.0,0.0,0.0,0.0,0.0,0.0,0.0,0.0,0.0,0.0,0.0,0.0,0.0,0.0,0.0,0.0,0.0,0.0,0.0,0.0,0.0,0.0,0.0,0.0,0.0,0.0,0.0,0.0,0.0,0.0,0.0,0.0,0.0,0.0,0.0,0.0,0.0,0.0,0.0,0.0,0.0,0.0,0.0,0.0,0.0,0.0,0.0,0.0,0.0,0.0,0.0,0.0,0.0,0.0,0.0,0.0,0.0,0.0,0.0,0.0,0.0,0.0,0.0,0.0,0.0,0.0,0.0,0.0,0.0,0.0,0.0,0.0,0.0,0.0,0.0,0.0,0.0,0.0,0.0,0.0,0.0,0.0,0.0,0.0,0.0,0.0,0.0,0.0,0.0,0.0,0.0,0.0,0.0,0.0,0.0,0.0,0.0,0.0,0.0,0.0,0.0,0.0,0.0,0.0,0.0,0.0,0.0,0.0,0.0,0.0,0.0,0.0,0.0,0.0,0.0,0.0,0.0,0.0,0.0,0.0,0.0,0.0,0.0,0.0,0.0,0.0,0.0,0.0,0.0,0.0,0.0,0.0,0.0,0.0,0.0,0.0,0.0,0.0,0.0,0.0,0.0,0.0,0.0,0.0,0.0,0.0,0.0,0.0,0.0,0.0,0.0,0.0,0.0,0.0,0.0,0.0,0.0,0.0,0.0,0.0,0.0,0.0,0.0,0.0,0.0,0.0,0.0,0.0,0.0,0.0,0.0,0.0,0.0,0.0,0.0,0.0,0.0,0.0,0.0,0.0,0.0,0.0,0.0,0.0,0.0,0.0,0.0,0.0,0.0,0.0,0.0,0.0,0.0,0.0,0.0,0.0,0.0,0.0,0.0,0.0,0.0,0.0,0.0,0.0,0.0,0.0,0.0,0.0,0.0,0.0,0.0,0.0,0.0,0.0,0.0,0.0,0.0,0.0,0.0,0.0,0.0,0.0,0.4792,0.0,0.0,0.0,0.0,0.0,0.0,0.0,0.0,0.0,0.0,0.0,0.0,0.0,0.0,0.0,0.0,0.0,0.0,0.0,0.0,0.0,0.0,0.0,0.0,0.0,0.0,0.0,0.0,0.0,0.0,0.0,0.0,0.0,0.0,0.0,0.0,0.0,0.0,0.0,0.0,0.0,0.0,0.0,0.0,0.0,0.0,0.0,0.0,0.0,0.0,0.0,0.0,0.0,0.0,0.0,0.0,0.0,0.0,0.0,0.0,0.0,0.0,0.0,0.0,0.0,0.0,0.0,0.0,0.0,0.0,0.0,0.0,0.0,0.0,0.0,0.0,0.0,0.0,0.0,0.0,0.0,0.0,0.0,0.0,0.0,0.0,0.0,0.0,0.0,0.0,0.0,0.0,0.0,0.0,0.0,0.0,0.0,0.0,0.0,0.0,0.0,0.0,0.0,0.0,0.0,0.0,0.0,0.0,0.0,0.0,0.4329,0.4556,0.5101,0.5597,0.6038,0.0,0.0,0.0,0.0,0.0,0.0,0.0,0.0,0.0,0.0,0.0,0.0,0.0,0.0,0.0,0.0,0.0,0.0,0.0,0.0,0.0,0.0,0.0,0.0,0.0,0.0,0.0,0.0,0.0,0.0,0.0,0.0,0.0,0.0,0.0,0.0,0.0,0.0,0.0,0.0,0.0,0.0,0.0,0.0,0.0,0.0,0.0,0.0,0.0,0.0,0.0,0.0,0.0,0.0,0.0,0.0,0.0,0.0,0.0,0.0,0.0,0.0,0.0,0.0,0.0,0.0,0.0,0.0,0.0,0.0,0.0,0.0,0.0,0.0,0.0,0.0,0.0,0.0,0.0,0.0,0.0,0.0,0.0,0.0,0.0,0.0,0.0,0.0,0.0,0.0,0.0,0.0,0.0,0.0,0.0,0.0,0.0,0.0,0.0,0.0,0.0,0.0,0.0,0.0,0.0,0.0,0.0,0.0,0.0,0.0,0.0,0.0,0.5702,0.6458,0.7222,0.0,0.0,0.0,0.0,0.0,0.0,0.0,0.0,0.0,0.0,0.0,0.0,0.0,0.0,0.0,0.0,0.0,0.0,0.0,0.0,0.0,0.0,0.0,0.0,0.0,0.0,0.0,0.0,0.0,0.0,0.0,0.0,0.0,0.0,0.0,0.0,0.0,0.0,0.0,0.0,0.0,0.0,0.0,0.0,0.0,0.0,0.0,0.0,0.0,0.0,0.0,0.0,0.0,0.0,0.0,0.0,0.0,0.0,0.0,0.0,0.0,0.0,0.0,0.0,0.0,0.0,0.0,0.0,0.0,0.0,0.0,0.0,0.0,0.0,0.0,0.0,0.0,0.0,0.0,0.0,0.0,0.0,0.0,0.0,0.0,0.0,0.0,0.0,0.0,0.0,0.0,0.0,0.0,0.0,0.0,0.0,0.0,0.0,0.0,0.0,0.0,0.0,0.0,0.0,0.0,0.0,0.0,0.0,0.0,0.0,0.4986,0.5847,0.6036,0.0,0.7394,0.0,0.0,0.0,0.0,0.0,0.0,0.0,0.0,0.0,0.0,0.0,0.0,0.0,0.0,0.0,0.0,0.0,0.0,0.0,0.0,0.0,0.0,0.0,0.0,0.0,0.0,0.0,0.0,0.0,0.0,0.0,0.0,0.0,0.0,0.0,0.0,0.0,0.0,0.0,0.0,0.0,0.0,0.0,0.0,0.0,0.0,0.0,0.0,0.0,0.0,0.0,0.0,0.0,0.0,0.0,0.0,0.0,0.0,0.0,0.0,0.0,0.0,0.0,0.0,0.0,0.0,0.0,0.0,0.0,0.0,0.0,0.0,0.0,0.0,0.0,0.0,0.0,0.0,0.0,0.0,0.0,0.0,0.0,0.0,0.0,0.0,0.0,0.0,0.0,0.0,0.0,0.0,0.0,0.0,0.0,0.0,0.0,0.0,0.0,0.0,0.0,0.0,0.0,0.0,0.0,0.0,0.0,0.0,0.0,0.0,0.5691,0.6108,0.715,0.7914,0.0,0.0,0.0,0.0,0.0,0.0,0.0,0.0,0.0,0.0,0.0,0.0,0.0,0.0,0.0,0.0,0.0,0.0,0.0,0.0,0.0,0.0,0.0,0.0,0.0,0.0,0.0,0.0,0.0,0.0,0.0,0.0,0.0,0.0,0.0,0.0,0.0,0.0,0.0,0.0,0.0,0.0,0.0,0.0,0.0,0.0,0.0,0.0,0.0,0.0,0.0,0.0,0.0,0.0,0.0,0.0,0.0,0.0,0.0,0.0,0.0,0.0,0.0,0.0,0.0,0.0,0.0,0.0,0.0,0.0,0.0,0.0,0.0,0.0,0.0,0.0,0.0,0.0,0.0,0.0,0.0,0.0,0.0,0.0,0.0,0.0,0.0,0.0,0.0,0.0,0.0,0.0,0.0,0.0,0.0,0.0,0.0,0.0,0.0,0.0,0.0,0.0,0.0,0.0,0.0,0.0,0.0,0.0,0.0,0.0,0.5824,0.6366,0.6946,0.8161,0.8845,0.8878,0.0,0.0,0.0,0.0,0.0,0.0,0.0,0.0,0.0,0.0,0.0,0.0,0.0,0.0,0.0,0.0,0.0,0.0,0.0,0.0,0.0,0.0,0.0,0.0,0.0,0.0,0.0,0.0,0.0,0.0,0.0,0.0,0.0,0.0,0.0,0.0,0.0,0.0,0.0,0.0,0.0,0.0,0.0,0.0,0.0,0.0,0.0,0.0,0.0,0.0,0.0,0.0,0.0,0.0,0.0,0.0,0.0,0.0,0.0,0.0,0.0,0.0,0.0,0.0,0.0,0.0,0.0,0.0,0.0,0.0,0.0,0.0,0.0,0.0,0.0,0.0,0.0,0.0,0.0,0.0,0.0,0.0,0.0,0.0,0.0,0.0,0.0,0.0,0.0,0.0,0.0,0.0,0.0,0.0,0.0,0.0,0.0,0.0,0.0,0.0,0.0,0.0,0.0,0.0,0.0,0.0,0.0,0.0,0.0,0.656,0.7002,0.8577,0.8828,0.8908,0.0,0.0,0.0,0.0,0.0,0.0,0.0,0.0,0.0,0.0,0.0,0.0,0.0,0.0,0.0,0.0,0.0,0.0,0.0,0.0,0.0,0.0,0.0,0.0,0.0,0.0,0.0,0.0,0.0,0.0,0.0,0.0,0.0,0.0,0.0,0.0,0.0,0.0,0.0,0.0,0.0,0.0,0.0,0.0,0.0,0.0,0.0,0.0,0.0,0.0,0.0,0.0,0.0,0.0,0.0,0.0,0.0,0.0,0.0,0.0,0.0,0.0,0.0,0.0,0.0,0.0,0.0,0.0,0.0,0.0,0.0,0.0,0.0,0.0,0.0,0.0,0.0,0.0,0.0,0.0,0.0,0.0,0.0,0.0,0.0,0.0,0.0,0.0,0.0,0.0,0.0,0.0,0.0,0.0,0.0,0.0,0.0,0.0,0.0,0.0,0.0,0.0,0.0,0.0,0.0,0.0,0.0,0.0,0.0,0.5768,0.6593,0.7543,0.8624,0.8773,0.8814,0.0,0.0,0.0,0.0,0.0,0.0,0.0,0.0,0.0,0.0,0.0,0.0,0.0,0.0,0.0,0.0,0.0,0.0,0.0,0.0,0.0,0.0,0.0,0.0,0.0,0.0,0.0,0.0,0.0,0.0,0.0,0.0,0.0,0.0,0.0,0.0,0.0,0.0,0.0,0.0,0.0,0.0,0.0,0.0,0.0,0.0,0.0,0.0,0.0,0.0,0.0,0.0,0.0,0.0,0.0,0.0,0.0,0.0,0.0,0.0,0.0,0.0,0.0,0.0,0.0,0.0,0.0,0.0,0.0,0.0,0.0,0.0,0.0,0.0,0.0,0.0,0.0,0.0,0.0,0.0,0.0,0.0,0.0,0.0,0.0,0.0,0.0,0.0,0.0,0.0,0.0,0.0,0.0,0.0,0.0,0.0,0.0,0.0,0.0,0.0,0.0,0.0,0.0,0.0,0.0,0.0,0.0,0.0,0.0,0.5593,0.0,0.8292,0.0,0.8989,0.8959,0.0,0.0,0.0,0.0,0.0,0.0,0.0,0.0,0.0,0.0,0.0,0.0,0.0,0.0,0.0,0.0,0.0,0.0,0.0,0.0,0.0,0.0,0.0,0.0,0.0,0.0,0.0,0.0,0.0,0.0,0.0,0.0,0.0,0.0,0.0,0.0,0.0,0.0,0.0,0.0,0.0,0.0,0.0,0.0,0.0,0.0,0.0,0.0,0.0,0.0,0.0,0.0,0.0,0.0,0.0,0.0,0.0,0.0,0.0,0.0,0.0,0.0,0.0,0.0,0.0,0.0,0.0,0.0,0.0,0.0,0.0,0.0,0.0,0.0,0.0,0.0,0.0,0.0,0.0,0.0,0.0,0.0,0.0,0.0,0.0,0.0,0.0,0.0,0.0,0.0,0.0,0.0,0.0,0.0,0.0,0.0,0.0,0.0,0.0,0.0,0.0,0.0,0.0,0.0,0.0,0.0,0.0,0.0,0.5582,0.693,0.83,0.9082,0.9377,0.9413,0.9243,0.0,0.0,0.0,0.0,0.0,0.0,0.0,0.0,0.0,0.0,0.0,0.0,0.0,0.0,0.0,0.0,0.0,0.0,0.0,0.0,0.0,0.0,0.0,0.0,0.0,0.0,0.0,0.0,0.0,0.0,0.0,0.0,0.0,0.0,0.0,0.0,0.0,0.0,0.0,0.0,0.0,0.0,0.0,0.0,0.0,0.0,0.0,0.0,0.0,0.0,0.0,0.0,0.0,0.0,0.0,0.0,0.0,0.0,0.0,0.0,0.0,0.0,0.0,0.0,0.0,0.0,0.0,0.0,0.0,0.0,0.0,0.0,0.0,0.0,0.0,0.0,0.0,0.0,0.0,0.0,0.0,0.0,0.0,0.0,0.0,0.0,0.0,0.0,0.0,0.0,0.0,0.0,0.0,0.0,0.0,0.0,0.0,0.0,0.0,0.0,0.0,0.0,0.0,0.0,0.0,0.0,0.0,0.0,0.0,0.6312,0.755,0.8294,0.8481,0.8058,0.8038,0.0,0.0,0.0,0.0,0.0,0.0,0.0,0.0,0.0,0.0,0.0,0.0,0.0,0.0,0.0,0.0,0.0,0.0,0.0,0.0,0.0,0.0,0.0,0.0,0.0,0.0,0.0,0.0,0.0,0.0,0.0,0.0,0.0,0.0,0.0,0.0,0.0,0.0,0.0,0.0,0.0,0.0,0.0,0.0,0.0,0.0,0.0,0.0,0.0,0.0,0.0,0.0,0.0,0.0,0.0,0.0,0.0,0.0,0.0,0.0,0.0,0.0,0.0,0.0,0.0,0.0,0.0,0.0,0.0,0.0,0.0,0.0,0.0,0.0,0.0,0.0,0.0,0.0,0.0,0.0,0.0,0.0,0.0,0.0,0.0,0.0,0.0,0.0,0.0,0.0,0.0,0.0,0.0,0.0,0.0,0.0,0.0,0.0,0.0,0.0,0.0,0.0,0.0,0.0,0.0,0.0,0.0,0.0,0.0,0.6649,0.723,0.7672,0.7931,0.7272,0.7365,0.8312,0.0,0.0,0.0,0.0,0.0,0.0,0.0,0.0,0.0,0.0,0.0,0.0,0.0,0.0,0.0,0.0,0.0,0.0,0.0,0.0,0.0,0.0,0.0,0.0,0.0,0.0,0.0,0.0,0.0,0.0,0.0,0.0,0.0,0.0,0.0,0.0,0.0,0.0,0.0,0.0,0.0,0.0,0.0,0.0,0.0,0.0,0.0,0.0,0.0,0.0,0.0,0.0,0.0,0.0,0.0,0.0,0.0,0.0,0.0,0.0,0.0,0.0,0.0,0.0,0.0,0.0,0.0,0.0,0.0,0.0,0.0,0.0,0.0,0.0,0.0,0.0,0.0,0.0,0.0,0.0,0.0,0.0,0.0,0.0,0.0,0.0,0.0,0.0,0.0,0.0,0.0,0.0,0.0,0.0,0.0,0.0,0.0,0.0,0.0,0.0,0.0,0.0,0.0,0.0,0.0,0.0,0.0,0.0,0.7604,0.7281,0.7301,0.7678,0.7104,0.7237,0.0,0.0,0.0,0.0,0.0,0.0,0.0,0.0,0.0,0.0,0.0,0.0,0.0,0.0,0.0,0.0,0.0,0.0,0.0,0.0,0.0,0.0,0.0,0.0,0.0,0.0,0.0,0.0,0.0,0.0,0.0,0.0,0.0,0.0,0.0,0.0,0.0,0.0,0.0,0.0,0.0,0.0,0.0,0.0,0.0,0.0,0.0,0.0,0.0,0.0,0.0,0.0,0.0,0.0,0.0,0.0,0.0,0.0,0.0,0.0,0.0,0.0,0.0,0.0,0.0,0.0,0.0,0.0,0.0,0.0,0.0,0.0,0.0,0.0,0.0,0.0,0.0,0.0,0.0,0.0,0.0,0.0,0.0,0.0,0.0,0.0,0.0,0.0,0.0,0.0,0.0,0.0,0.0,0.0,0.0,0.0,0.0,0.0,0.0,0.0,0.0,0.0,0.0,0.0,0.0,0.0,0.0,0.0,0.0,0.6659,0.6947,0.7287,0.7682,0.7579,0.7466,0.0,0.0,0.0,0.0,0.0,0.0,0.0,0.0,0.0,0.0,0.0,0.0,0.0,0.0,0.0,0.0,0.0,0.0,0.0,0.0,0.0,0.0,0.0,0.0,0.0,0.0,0.0,0.0,0.0,0.0,0.0,0.0,0.0,0.0,0.0,0.0,0.0,0.0,0.0,0.0,0.0,0.0,0.0,0.0,0.0,0.0,0.0,0.0,0.0,0.0,0.0,0.0,0.0,0.0,0.0,0.0,0.0,0.0,0.0,0.0,0.0,0.0,0.0,0.0,0.0,0.0,0.0,0.0,0.0,0.0,0.0,0.0,0.0,0.0,0.0,0.0,0.0,0.0,0.0,0.0,0.0,0.0,0.0,0.0,0.0,0.0,0.0,0.0,0.0,0.0,0.0,0.0,0.0,0.0,0.0,0.0,0.0,0.0,0.0,0.0,0.0,0.0,0.0,0.0,0.0,0.0,0.0,0.0,0.6805,0.7052,0.7415,0.7589,0.7527,0.7586,0.7387,0.0,0.0,0.0,0.0,0.0,0.0,0.0,0.0,0.0,0.0,0.0,0.0,0.0,0.0,0.0,0.0,0.0,0.0,0.0,0.0,0.0,0.0,0.0,0.0,0.0,0.0,0.0,0.0,0.0,0.0,0.0,0.0,0.0,0.0,0.0,0.0,0.0,0.0,0.0,0.0,0.0,0.0,0.0,0.0,0.0,0.0,0.0,0.0,0.0,0.0,0.0,0.0,0.0,0.0,0.0,0.0,0.0,0.0,0.0,0.0,0.0,0.0,0.0,0.0,0.0,0.0,0.0,0.0,0.0,0.0,0.0,0.0,0.0,0.0,0.0,0.0,0.0,0.0,0.0,0.0,0.0,0.0,0.0,0.0,0.0,0.0,0.0,0.0,0.0,0.0,0.0,0.0,0.0,0.0,0.0,0.0,0.0,0.0,0.0,0.0,0.0,0.0,0.0,0.0,0.0,0.0,0.0,0.0,0.744,0.7991,0.8177,0.7961,0.7346,0.7488,0.7361,0.0,0.0,0.0,0.0,0.0,0.0,0.0,0.0,0.0,0.0,0.0,0.0,0.0,0.0,0.0,0.0,0.0,0.0,0.0,0.0,0.0,0.0,0.0,0.0,0.0,0.0,0.0,0.0,0.0,0.0,0.0,0.0,0.0,0.0,0.0,0.0,0.0,0.0,0.0,0.0,0.0,0.0,0.0,0.0,0.0,0.0,0.0,0.0,0.0,0.0,0.0,0.0,0.0,0.0,0.0,0.0,0.0,0.0,0.0,0.0,0.0,0.0,0.0,0.0,0.0,0.0,0.0,0.0,0.0,0.0,0.0,0.0,0.0,0.0,0.0,0.0,0.0,0.0,0.0,0.0,0.0,0.0,0.0,0.0,0.0,0.0,0.0,0.0,0.0,0.0,0.0,0.0,0.0,0.0,0.0,0.0,0.0,0.0,0.0,0.0,0.0,0.0,0.0,0.0,0.0,0.0,0.0,0.0,0.7135,0.7455,0.7915,0.7874,0.7339,0.868,0.8568,0.0,0.0,0.0,0.0,0.0,0.0,0.0,0.0,0.0,0.0,0.0,0.0,0.0,0.0,0.0,0.0,0.0,0.0,0.0,0.0,0.0,0.0,0.0,0.0,0.0,0.0,0.0,0.0,0.0,0.0,0.0,0.0,0.0,0.0,0.0,0.0,0.0,0.0,0.0,0.0,0.0,0.0,0.0,0.0,0.0,0.0,0.0,0.0,0.7623,0.0,0.0,0.0,0.0,0.0,0.0,0.0,0.0,0.0,0.0,0.0,0.0,0.0,0.0,0.0,0.0,0.0,0.0,0.0,0.0,0.0,0.0,0.0,0.0,0.0,0.0,0.0,0.0,0.0,0.0,0.0,0.0,0.0,0.0,0.0,0.0,0.0,0.0,0.0,0.0,0.0,0.0,0.0,0.0,0.0,0.0,0.0,0.0,0.0,0.0,0.0,0.0,0.0,0.0,0.0,0.0,0.0,0.0,0.0,0.7574,0.7599,0.7973,0.8067,0.7849,0.9088,0.8992,0.0,0.0,0.0,0.0,0.0,0.0,0.0,0.0,0.0,0.0,0.0,0.0,0.0,0.0,0.0,0.0,0.0,0.0,0.0,0.0,0.0,0.0,0.0,0.0,0.0,0.0,0.0,0.0,0.0,0.0,0.0,0.0,0.0,0.0,0.0,0.0,0.0,0.0,0.0,0.0,0.0,0.0,0.0,0.0,0.0,0.0,0.0,0.0,0.0,0.0,0.0,0.0,0.0,0.0,0.0,0.0,0.0,0.0,0.0,0.0,0.0,0.0,0.0,0.0,0.0,0.0,0.0,0.0,0.0,0.0,0.0,0.0,0.0,0.0,0.0,0.0,0.0,0.0,0.0,0.0,0.0,0.0,0.0,0.0,0.0,0.0,0.0,0.0,0.0,0.0,0.0,0.0,0.0,0.0,0.0,0.0,0.0,0.0,0.0,0.0,0.0,0.0,0.0,0.0,0.0,0.0,0.0,0.7797,0.8147,0.7954,0.8174,0.8305,0.8305,0.9044,0.8968,0.7933,0.0,0.0,0.0,0.0,0.0,0.0,0.0,0.0,0.0,0.0,0.0,0.0,0.0,0.0,0.0,0.0,0.0,0.0,0.0,0.0,0.0,0.0,0.0,0.0,0.0,0.0,0.0,0.0,0.0,0.0,0.0,0.0,0.0,0.0,0.0,0.0,0.0,0.0,0.6145,0.7295,0.0,0.0,0.0,0.0,0.0,0.0,0.0,0.0,0.8081,0.0,0.0,0.0,0.0,0.0,0.0,0.0,0.0,0.0,0.0,0.0,0.0,0.0,0.0,0.0,0.0,0.0,0.0,0.0,0.0,0.0,0.0,0.0,0.0,0.0,0.0,0.0,0.0,0.0,0.0,0.0,0.0,0.0,0.0,0.0,0.0,0.0,0.0,0.0,0.0,0.0,0.0,0.0,0.0,0.0,0.0,0.0,0.0,0.0,0.0,0.0,0.0,0.0,0.0,0.0,0.0,0.7086,0.766,0.7996,0.807,0.8226,0.8305,0.8299,0.8651,0.8771,0.8646,0.0,0.0,0.0,0.0,0.0,0.0,0.0,0.0,0.0,0.0,0.0,0.0,0.0,0.0,0.0,0.0,0.0,0.0,0.0,0.0,0.0,0.0,0.0,0.0,0.0,0.0,0.0,0.0,0.0,0.0,0.0,0.0,0.0,0.0,0.0,0.0,0.0,0.0,0.0,0.7252,0.8274,0.0,0.0,0.0,0.0,0.0,0.0,0.0,0.0,0.7746,0.0,0.0,0.0,0.0,0.0,0.0,0.0,0.0,0.0,0.0,0.0,0.0,0.0,0.0,0.0,0.0,0.0,0.0,0.0,0.0,0.0,0.0,0.0,0.0,0.0,0.0,0.0,0.0,0.0,0.0,0.0,0.0,0.0,0.0,0.0,0.0,0.0,0.0,0.0,0.0,0.0,0.0,0.0,0.0,0.0,0.0,0.0,0.0,0.0,0.0,0.0,0.0,0.0,0.0,0.0,0.7269,0.7717,0.8085,0.8206,0.8322,0.8438,0.851,0.8635,0.8755,0.0,0.0,0.0,0.0,0.0,0.0,0.0,0.0,0.0,0.0,0.0,0.0,0.0,0.0,0.0,0.0,0.0,0.0,0.0,0.0,0.0,0.0,0.0,0.0,0.0,0.0,0.0,0.0,0.0,0.0,0.0,0.0,0.0,0.0,0.0,0.0,0.0,0.0,0.0,0.0,0.7466,0.792,0.7526,0.0,0.0,0.0,0.0,0.0,0.0,0.8354,0.811,0.0,0.0,0.0,0.0,0.0,0.0,0.0,0.0,0.0,0.0,0.0,0.0,0.0,0.0,0.0,0.0,0.0,0.0,0.0,0.0,0.0,0.0,0.0,0.0,0.0,0.0,0.0,0.0,0.0,0.0,0.0,0.0,0.0,0.0,0.0,0.0,0.0,0.0,0.0,0.0,0.0,0.0,0.0,0.0,0.0,0.0,0.0,0.0,0.0,0.0,0.0,0.0,0.0,0.0,0.0,0.7435,0.7875,0.8201,0.8332,0.8469,0.8589,0.8711,0.9006,0.9095,0.0,0.0,0.0,0.0,0.0,0.0,0.0,0.0,0.0,0.0,0.0,0.0,0.0,0.0,0.0,0.0,0.0,0.0,0.0,0.0,0.0,0.0,0.0,0.0,0.0,0.0,0.0,0.0,0.0,0.0,0.0,0.0,0.0,0.0,0.0,0.0,0.0,0.0,0.0,0.0,0.0,0.7752,0.7715,0.8204,0.0,0.0,0.0,0.0,0.9427,0.9116,0.0,0.0,0.0,0.0,0.0,0.0,0.0,0.0,0.0,0.0,0.0,0.0,0.0,0.0,0.0,0.0,0.0,0.0,0.0,0.0,0.0,0.0,0.0,0.0,0.0,0.0,0.0,0.0,0.0,0.0,0.0,0.0,0.0,0.0,0.0,0.0,0.0,0.0,0.0,0.0,0.0,0.0,0.0,0.0,0.0,0.0,0.0,0.0,0.0,0.0,0.0,0.0,0.0,0.0,0.0,0.0,0.7771,0.8089,0.8326,0.8462,0.8604,0.8696,0.8714,1.0078,1.0258,0.0,0.0,0.0,0.0,0.0,0.0,0.0,0.0,0.0,0.0,0.0,0.0,0.0,0.0,0.0,0.0,0.0,0.0,0.0,0.0,0.0,0.0,0.0,0.0,0.0,0.0,0.0,0.0,0.0,0.0,0.0,0.0,0.0,0.0,0.0,0.0,0.0,0.0,0.0,0.0,0.0,0.8388,0.6967,0.7947,0.8754,0.0,0.0,0.938,0.9269,0.938,0.0,0.0,0.0,0.0,0.0,0.0,0.0,0.0,0.0,0.0,0.0,0.0,0.0,0.0,0.0,0.0,0.0,0.0,0.0,0.0,0.0,0.0,0.0,0.0,0.0,0.0,0.0,0.0,0.0,0.0,0.0,0.0,0.0,0.0,0.0,0.0,0.0,0.0,0.0,0.0,0.0,0.0,0.0,0.0,0.0,0.0,0.0,0.0,0.0,0.0,0.0,0.0,0.0,0.0,0.0,0.8611,0.8432,0.8427,0.8478,0.8611,0.8667,0.8726,0.8821,0.9929,1.0073,0.0,0.0,0.0,0.0,0.0,0.0,0.0,0.0,0.0,0.0,0.0,0.0,0.0,0.0,0.0,0.0,0.0,0.0,0.0,0.0,0.0,0.0,0.0,0.0,0.0,0.0,0.0,0.0,0.0,0.0,0.0,0.0,0.0,0.0,0.0,0.0,0.0,0.0,0.0,0.0,0.0,0.0,0.8017,0.8578,0.0,0.0,0.0,0.9772,1.0606,0.0,0.0,0.0,0.0,0.0,0.0,0.0,0.0,0.0,0.0,0.0,0.0,0.0,0.0,0.0,0.0,0.0,0.0,0.0,0.0,0.0,0.0,0.0,0.0,0.0,0.0,0.0,0.0,0.0,0.0,0.0,0.0,0.0,0.0,0.0,0.0,0.0,0.0,0.0,0.0,0.0,0.0,0.0,0.0,0.0,0.0,0.0,0.0,0.0,0.0,0.0,0.0,0.0,0.0,0.0,0.0,0.0,0.8936,0.8666,0.862,0.8732,0.8747,0.8784,0.8917,0.9477,0.0,0.0,0.0,0.0,0.0,0.0,0.0,0.0,0.0,0.0,0.0,0.0,0.0,0.0,0.0,0.0,0.0,0.0,0.0,0.0,0.0,0.0,0.0,0.0,0.0,0.0,0.0,0.3626,0.0,0.0,0.0,0.0,0.0,0.0,0.0,0.0,0.0,0.0,0.0,0.0,0.0,0.0,0.8168,0.8818,0.925,0.9644,0.0,0.0,1.0421,1.1511,1.0641,0.9996,0.0,0.0,0.0,0.0,0.0,0.0,0.0,0.0,0.0,0.0,0.0,0.0,0.0,0.0,0.0,0.0,0.0,0.0,0.0,0.0,0.0,0.0,0.0,0.0,0.0,0.0,0.0,0.0,0.0,0.0,0.0,0.0,0.0,0.0,0.0,0.0,0.0,0.0,0.0,0.0,0.0,0.0,0.0,0.0,0.0,0.0,0.0,0.0,0.0,0.0,0.0,0.0,0.0,0.0,0.0,0.9066,0.8824,0.8744,0.888,0.8888,0.8888,0.8917,0.8948,0.9037,0.0,0.0,0.0,0.0,0.0,0.0,0.0,0.0,0.0,0.0,0.0,0.0,0.0,0.0,0.0,0.0,0.0,0.0,0.0,0.0,0.0,0.0,0.0,0.0,0.0,0.0,0.0,0.0,0.0,0.0,0.0,0.0,0.0,0.0,0.0,0.0,0.0,0.0,0.0,0.0,0.0,0.9122,0.845,0.9639,1.0349,0.0,0.0,1.1599,1.1214,1.1265,1.1376,1.1436,0.0,0.0,0.0,0.0,0.0,0.0,0.0,0.0,0.0,0.0,0.0,0.0,0.0,0.0,0.0,0.0,0.0,0.0,0.0,0.0,0.0,0.0,0.0,0.0,0.0,0.0,0.0,0.0,0.0,0.0,0.0,0.0,0.0,0.0,0.0,0.0,0.0,0.0,0.0,0.0,0.0,0.0,0.0,0.0,0.0,0.0,0.0,0.0,0.0,0.0,0.0,0.0,0.0,0.9067,0.9087,0.8916,0.8849,0.8897,0.8917,0.8917,0.8917,0.9364,0.9469,0.0,0.0,0.0,0.0,0.0,0.0,0.0,0.0,0.0,0.0,0.0,0.0,0.0,0.0,0.0,0.0,0.0,0.0,0.0,0.0,0.0,0.0,0.0,0.0,0.0,0.0,0.0,0.0,0.3841,0.4307,0.4926,0.0,0.0,0.0,0.0,0.0,0.0,0.0,0.0,0.0,0.0,0.938,0.9726,1.0169,0.0,0.0,1.0977,1.1416,1.2086,1.133,1.0964,1.1913,1.0987,0.0,0.0,0.0,0.0,0.0,0.0,0.0,0.0,0.0,0.0,0.0,0.0,0.0,0.0,0.0,0.0,0.0,0.0,0.0,0.0,0.0,0.0,0.0,0.0,0.0,0.0,0.0,0.0,0.0,0.0,0.0,0.0,0.0,0.0,0.0,0.0,0.0,0.0,0.0,0.0,0.0,0.0,0.0,0.0,0.0,0.0,0.0,0.0,0.0,0.0,0.0,0.0,0.9091,0.9034,0.8955,0.8917,0.8917,0.8917,0.8917,0.8942,0.925,0.9289,0.0,0.0,0.0,0.0,0.0,0.0,0.0,0.0,0.0,0.0,0.0,0.0,0.0,0.0,0.0,0.0,0.0,0.0,0.0,0.0,0.0,0.0,0.0,0.0,0.0,0.0,0.0,0.0,0.4362,0.5009,0.5957,0.0,0.0,0.0,0.0,0.0,0.0,0.0,0.0,0.0,0.0,0.9779,1.0855,1.1043,1.1292,1.1863,1.1766,1.1966,1.2915,1.2096,1.1593,1.2274,0.0,0.0,0.0,0.0,0.0,0.0,0.0,0.0,0.0,0.0,0.0,0.0,0.0,0.0,0.0,0.0,0.0,0.0,0.0,0.0,0.0,0.0,0.0,0.0,0.0,0.0,0.0,0.0,0.0,0.0,0.8926,0.0,0.0,0.0,0.0,0.0,0.0,0.0,0.0,0.0,0.0,0.0,0.0,0.0,0.0,0.0,0.0,0.0,0.0,0.0,0.0,0.0,0.0,0.9034,0.8919,0.8934,0.8911,0.8917,0.8917,0.8942,0.897,0.8267,0.8229,0.898,0.0,0.0,0.0,0.0,0.0,0.0,0.0,0.0,0.0,0.0,0.0,0.0,0.0,0.0,0.0,0.0,0.0,0.0,0.0,0.0,0.0,0.0,0.0,0.0,0.0,0.0,0.5002,0.5152,0.5472,0.0,0.0,0.0,0.0,0.0,0.0,0.0,0.0,0.0,0.0,1.0009,1.0481,1.1551,1.2331,1.2842,1.2938,1.3396,1.3643,1.3444,1.3826,1.3812,0.0,0.0,0.0,0.0,0.0,0.0,0.0,0.0,0.0,0.0,0.0,0.0,0.0,0.0,0.0,0.0,0.0,0.0,0.0,0.0,0.0,0.0,0.0,0.0,0.0,0.0,0.0,0.907,0.9302,0.0,0.0,0.0,0.0,0.0,0.0,0.0,0.0,0.0,0.0,0.0,0.9449,0.8889,0.0,0.0,0.0,0.0,0.0,0.0,0.0,0.0,0.0,0.0,0.0,0.0,0.895,0.8934,0.9391,0.9396,0.8928,0.9426,0.9483,0.9024,0.8738,0.876,0.9107,0.0,0.0,0.0,0.0,0.0,0.0,0.0,0.0,0.0,0.0,0.0,0.0,0.0,0.0,0.0,0.0,0.0,0.0,0.0,0.0,0.0,0.0,0.0,0.0,0.0,0.5025,0.0,0.0,0.0,0.0,0.0,0.0,0.0,0.0,0.0,0.0,0.0,0.9578,1.0094,1.1081,1.2009,1.2745,1.3247,1.3495,0.0,0.0,0.0,0.0,0.0,0.0,0.0,0.0,0.0,0.0,0.0,0.0,0.0,0.0,1.336,1.1234,1.0334,0.9909,0.9894,0.0,0.0,0.0,0.0,0.0,0.0,0.0,0.0,0.0,0.0,0.0,0.0,0.0,0.0,0.9574,0.0,0.9995,0.0,0.0,0.0,0.0,0.0,0.0,0.0,0.0,1.0234,1.0584,1.0268,1.0249,1.0237,0.0,1.0152,1.01,0.0,0.0,0.0,0.0,0.0,0.0,0.0,0.0,0.9191,0.9656,0.9946,0.9978,0.9737,1.0277,1.0213,0.9441,0.9155,0.8931,0.8758,0.8051,0.7994,0.0,0.0,0.0,0.0,0.0,0.0,0.0,0.0,0.0,0.0,0.0,0.0,0.0,0.0,0.0,0.0,0.0,0.0,0.0,0.0,0.0,0.0,0.0,0.5674,0.0,0.0,0.0,0.0,0.0,0.0,0.0,0.0,0.0,0.8482,0.9256,1.0121,1.093,1.1704,1.2584,1.3573,0.0,0.0,0.0,0.0,0.0,0.0,0.0,1.5298,1.5305,1.4935,1.4493,1.405,1.4348,1.4566,1.4341,0.0,0.0,1.2514,1.1655,1.1225,1.1236,1.1919,1.2474,1.248,1.3489,1.4376,0.0,0.0,0.0,0.0,0.0,0.0,0.0,0.0,0.9864,1.0114,0.0,0.9946,0.0,0.0,0.0,0.0,0.0,1.0895,0.0,0.0,1.0462,1.112,1.171,1.1731,1.1752,1.178,1.2553,1.2546,1.1761,0.9782,0.0,0.0,0.0,0.0,0.0,0.0,0.9803,1.1012,1.0646,1.0633,1.1155,1.1412,1.1106,1.0196,0.9519,0.879,0.8019,0.8637,0.8704,0.7989,0.7881,0.0,0.0,0.0,0.0,0.0,0.0,0.0,0.0,0.0,0.0,0.0,0.0,0.0,0.0,0.0,0.0,0.0,0.0,0.0,0.0,0.6301,0.0,0.0,0.0,0.0,0.0,0.0,0.0,0.0,0.0,0.0,1.0506,0.9947,1.0157,1.2156,0.0,0.0,0.0,0.0,1.4826,1.5995,1.6756,1.7162,1.709,1.7113,1.6704,1.553,0.0,0.0,1.3729,1.4493,1.508,1.4493,1.4435,1.4573,1.5196,1.4558,1.4116,1.4159,1.4167,1.4312,1.4428,1.5262,1.6132,1.4815,0.0,0.0,0.0,0.0,1.264,1.2355,1.2329,1.1977,1.172,1.1576,1.1537,0.0,0.0,0.0,0.0,0.0,0.0,1.2053,1.1229,1.1925,1.2332,1.2385,1.1784,1.1764,1.2253,1.1881,1.1559,1.1313,1.072,1.0479,1.0594,0.0,0.0,0.0,0.0,1.0792,1.1309,1.168,1.1717,1.1411,1.1979,1.1617,1.0249,0.9988,0.9533,0.879,0.8435,0.8403,0.8724,0.77,0.0,0.0,0.0,0.0,0.0,0.0,0.0,0.0,0.0,0.0,0.0,0.0,0.0,0.0,0.0,0.0,0.0,0.0,0.0,0.5775,0.6035,0.6492,0.0,0.0,0.0,0.0,0.0,0.0,0.0,0.0,0.0,1.1687,1.2078,1.2446,0.0,0.0,1.5044,1.5589,1.6068,1.6335,1.6219,0.0,0.0,0.0,1.6197,1.6364,1.6002,1.5929,1.5821,1.5458,1.5334,1.5378,1.5595,1.5653,1.5864,1.6401,1.5001,1.3933,1.4203,1.4681,1.516,1.561,1.635,1.6907,1.6316,1.5064,1.4884,1.4895,1.502,1.4821,1.454,1.4274,1.4046,1.4038,1.4158,1.3743,1.3555,1.3506,1.2787,0.0,0.0,0.0,1.362,1.3079,1.3846,1.415,1.4048,1.3562,1.3331,1.3382,1.2826,1.2375,1.2021,1.2021,1.2102,1.2258,0.0,0.0,1.1805,1.1471,1.1663,1.2378,1.2562,1.2587,1.242,1.2512,1.1957,1.0728,1.0435,0.9901,0.9124,0.865,0.863,0.9049,0.7927,0.7432,0.0,0.0,0.0,0.0,0.0,0.0,0.0,0.0,0.0,0.0,0.0,0.4525,0.0,0.0,0.0,0.0,0.5406,0.6043,0.6152,0.678,0.0,0.0,0.0,0.0,0.0,0.0,0.0,1.0933,1.0868,1.1234,1.2619,1.3345,1.3678,1.3444,1.4601,1.5552,1.5799,0.0,1.6393,1.6219,1.6764,1.6938,1.6176,1.6132,1.6198,1.6198,1.6422,1.659,1.6582,1.63,1.6213,1.648,1.6596,1.6727,1.7142,1.5916,1.4994,1.5363,1.577,1.6176,1.653,1.7127,1.7597,1.7582,1.6996,1.7851,1.7499,1.6508,1.7248,1.6589,1.5077,1.5777,1.6448,1.6944,1.6036,1.5654,1.5629,1.4158,0.0,1.4352,1.5127,1.5367,1.5153,1.5894,1.6244,1.6228,1.6209,1.5777,1.4928,1.4915,1.4469,1.365,1.3629,1.3764,1.3946,1.2457,1.2048,1.2661,1.2173,1.2578,1.397,1.3409,1.3323,1.3811,1.3048,1.2245,1.1447,1.082,1.0073,0.9177,0.9169,0.9167,0.9072,0.8265,0.784,0.7863,0.0,0.0,0.0,0.0,0.0,0.0,0.0,0.0,0.0,0.0,0.0,0.0,0.0,0.0,0.0,0.6551,0.0,0.668,0.7985,0.0,0.0,0.0,0.8477,0.8787,0.9299,0.9899,1.057,0.0,0.0,1.3315,0.0,1.4152,1.3547,1.4036,1.4674,1.5283,1.5421,1.5581,1.6132,1.6713,1.7113,1.6922,1.6619,1.635,1.6364,1.6808,1.7148,1.7148,1.7148,1.7177,1.7278,1.7278,1.733,1.7351,1.7322,1.7336,1.7307,1.7287,1.7287,1.7394,1.7859,1.8274,1.9149,1.9654,2.0499,1.8832,1.5618,1.576,1.5538,1.5079,1.5164,1.565,1.6309,1.593,1.6064,1.6568,1.6134,1.6026,1.6162,1.6266,1.6312,1.6297,1.6506,1.6589,1.657,1.6463,1.6302,1.6102,1.5949,1.5764,1.5543,1.5525,1.5558,1.5615,1.5292,1.495,1.4634,1.4388,1.4527,1.5037,1.4899,1.4604,1.419,1.3872,1.3038,1.1656,1.147,1.0689,0.9239,0.9184,0.9172,0.9055,0.7787,0.7282,0.7718,0.6993,0.0,0.0,0.0,0.0,0.0,0.0,0.0,0.0,0.0,0.6957,0.6306,0.0,0.7187,0.0,0.7238,0.7015,0.6249,0.6999,0.0,0.0,0.8798,0.9297,1.0647,1.033,1.0481,1.1809,1.2212,1.2663,1.3328,1.4362,1.4805,1.4188,1.5044,1.5813,1.5965,1.5987,1.6031,1.6176,1.6364,1.6437,1.6518,1.6748,1.6974,1.6967,1.7104,1.7214,1.7214,1.7214,1.7359,1.7838,1.7951,1.8134,1.8535,1.8651,1.8637,1.8613,1.8279,1.8129,1.855,1.8782,1.8883,1.9521,1.9975,2.0072,1.8689,1.6514,1.7217,1.7268,1.6809,1.6326,1.6339,1.6715,1.6498,1.6631,1.6927,1.6908,1.7081,1.7358,1.7297,1.7448,1.7727,1.7765,1.7765,1.7719,1.7668,1.7431,1.7026,1.6922,1.6647,1.6217,1.62,1.6237,1.6337,1.6373,1.644,1.6537,1.6036,1.5835,1.6033,1.5635,1.5033,1.4242,1.4126,1.35,1.2303,1.2281,1.1689,1.0334,1.0299,1.026,1.0106,0.8961,0.8444,0.8695,0.8271,0.8,0.0,0.0,0.0,0.0,0.0,0.0,0.0,0.0,0.0,0.0,0.0,0.7904,0.0,0.7912,0.785,0.7677,0.8494,0.9241,0.962,0.9633,0.9992,1.0951,1.085,1.1167,1.2278,1.2671,1.3084,1.373,1.4413,1.4856,1.4732,1.5334,1.5813,1.5828,1.6016,1.6198,1.6213,1.6451,1.664,1.6648,1.7206,1.7632,1.767,1.7873,1.8033,1.8042,1.8042,1.8178,1.8521,1.8598,1.87,1.9043,1.9106,1.9106,1.9058,1.884,1.8767,1.9034,1.9106,1.9106,1.9472,1.9409,1.8765,1.8405,1.836,1.979,1.9874,1.8966,1.8134,1.7736,1.7673,1.7611,1.7502,1.7383,1.7365,1.7699,1.8298,1.8302,1.8556,1.9013,1.9099,1.9083,1.9009,1.9091,1.8696,1.7916,1.7907,1.7476,1.6635,1.663,1.6715,1.6882,1.6882,1.7343,1.8174,1.7395,1.6955,1.6939,1.6118,1.5242,1.4332,1.4401,1.4088,1.3297,1.3248,1.2789,1.1821,1.1703,1.1576,1.139,1.0606,1.0083,0.9875,0.9777,0.9358,0.0,0.9091,0.0,0.0,0.0,0.0,0.0,0.0,0.0,0.0,0.8123,0.8695,0.8331,0.8642,0.9066,0.96,1.0617,1.0951,1.0245,1.0425,1.0652,1.0763,1.1341,1.1948,1.2462,1.3113,1.3722,1.4203,1.437,1.4674,1.5153,1.5414,1.553,1.5479,1.5886,1.6219,1.6284,1.6901,1.7365,1.7519,1.7954,1.8332,1.8375,1.8671,1.9092,1.9034,1.9043,1.9077,1.9077,1.9058,1.9087,1.9106,1.9106,1.9106,1.9101,1.9072,1.9072,1.9092,1.9106,1.9106,2.0351,2.041,2.0937,2.0714,2.0033,2.0342,1.9982,1.914,1.8873,1.8678,1.8608,1.9276,1.9517,1.9425,1.9315,1.931,1.9381,1.9292,1.9232,1.9257,1.9247,1.919,1.9105,1.9213,1.9188,1.9004,1.9042,1.8981,1.8801,1.8838,1.89,1.8928,1.8933,1.9011,1.9136,0.0,0.0,0.0,1.7049,1.622,1.5455,1.6036,1.5985,1.519,1.4441,0.0,1.2686,1.1939,1.1501,1.1383,1.0523,0.0,0.0,0.0,0.0,0.0,0.0,0.0,0.0,0.0,0.0,0.0,0.9094,0.8953,0.8352,0.941,0.978,0.8969,0.9636,0.992,0.9436,0.9719,1.0078,1.0407,1.096,1.1487,1.1977,1.2619,1.3095,1.3199,1.3745,1.4166,1.4326,1.4761,1.5153,1.5334,1.5718,1.6016,1.6045,1.6198,1.6408,1.6922,1.7612,1.8187,1.8666,1.882,1.8883,1.8947,1.8976,1.9092,1.9106,1.9106,1.9106,1.9106,1.9106,1.9106,1.9106,1.9106,1.9106,1.9106,1.9106,1.9106,1.9106,1.9106,1.9106,2.0932,0.0,2.1054,2.0975,0.0,2.0981,2.0898,2.0366,1.9009,1.8377,1.8354,1.9186,1.9514,1.9466,1.9754,1.9846,1.9754,1.964,1.952,1.9394,1.9413,1.9345,1.9242,1.9326,1.9368,1.9394,1.9427,1.9459,1.9506,1.9533,1.957,1.9595,1.9616,1.9547,1.9448,1.9354,1.8908,1.8096,1.7312,1.6511,1.5732,1.5704,1.5518,1.5093,0.0,0.0,0.0,0.0,0.0,0.0,0.0,0.0,0.0,0.0,0.0,0.9616,1.0237,1.023,0.9391,0.9491,0.9506,0.9275,0.9484,0.9584,0.9536,0.956,0.9499,0.9346,1.0016,1.0476,1.0414,1.0762,1.1234,1.1858,1.2245,1.2586,1.2881,1.3447,1.3831,1.3904,1.4413,1.4798,1.4798,1.5051,1.5421,1.5697,1.601,1.6459,1.7046,1.7191,1.7432,1.8027,1.839,1.8744,1.9029,1.9106,1.9106,1.9092,1.9106,1.9106,1.9106,1.9106,1.9106,1.9106,1.9106,1.9106,1.9106,1.9106,1.9106,1.9106,1.9106,1.9106,1.9106,1.9106,1.9106,2.1525,2.0767,2.0819,2.0742,2.0644,2.1284,2.1547,2.1414,0.0,0.0,0.0,1.8943,1.9192,1.918,1.9755,1.9946,1.9814,1.975,1.9669,1.9534,1.9553,1.9577,1.9638,1.9523,1.9536,1.9739,1.9629,1.9592,1.9664,1.9669,1.9685,1.9744,1.9741,1.9663,1.9496,1.9376,1.8985,1.8317,1.7667,1.6937,1.6133,1.5487,1.5132,1.5117,1.4698,1.4432,1.4317,1.3965,1.3425,1.2753,1.2663,1.2195,1.1272,1.1723,1.1864,1.1582,1.2104,1.187,1.0575,1.0809,1.0487,0.9264,0.9746,1.0204,1.0502,0.9647,0.938,1.0049,1.0668,1.1254,1.1774,1.225,1.2787,1.3336,1.3496,1.3554,1.3584,1.4101,1.4486,1.4529,1.4957,1.5283,1.5276,1.5392,1.5624,1.6103,1.6459,1.6967,1.8033,1.8303,1.8448,1.8883,1.8999,1.9077,1.9106,1.9106,1.9106,1.9106,1.9106,1.9106,1.9106,1.9106,1.9106,1.9106,1.9106,1.9106,1.9106,1.9106,1.9106,1.9106,1.9106,1.913,1.9246,1.9266,1.9304,2.2445,2.1714,2.1717,2.125,2.0523,2.0632,2.0644,2.0619,2.0985,2.0714,2.0044,2.0094,2.0079,2.002,2.0062,2.0019,1.9884,1.9864,1.9797,0.0,1.9663,2.0006,2.057,1.9968,2.0018,2.0618,2.0129,1.9854,1.9871,1.9909,1.9958,1.9955,1.9909,1.975,1.9506,1.9365,1.9238,1.9132,1.904,1.8577,1.7781,1.7671,1.7597,1.7532,1.5973,1.5153,1.5113,1.4169,1.3594,1.3446,1.3213,1.274,1.1994,1.1819,1.1494,1.0905,1.0938,1.0829,1.0466,1.0325,1.0273,1.0347,1.1336,1.158,1.0604,1.0868,1.1353,1.1948,1.2524,1.3031,1.3139,1.3205,1.33,1.3459,1.3889,1.4174,1.4188,1.4725,1.5117,1.5109,1.5233,1.5312,1.5385,1.5755,1.6066,1.6372,1.7185,1.8158,1.8709,1.8985,1.8999,1.9087,1.9106,1.9106,1.9106,1.9106,1.9106,1.9106,1.9106,1.9106,1.9106,1.9106,1.9106,1.9106,1.9106,1.9106,1.9106,1.9106,1.9135,1.915,1.9188,1.9319,1.9832,2.0011,2.004,2.3247,2.2541,2.2531,2.2304,2.1914,2.1908,2.1868,2.1846,2.2214,2.1641,2.0439,2.0376,2.0316,2.0259,2.0178,2.0117,2.0003,1.9972,1.9891,1.9809,1.9806,1.9979,2.0257,1.9954,2.0016,2.0388,2.0095,1.9969,2.0017,2.0058,2.0045,2.0031,1.9877,1.9713,1.9593,1.9416,1.9282,1.9282,1.8853,1.8467,1.8111,1.7664,1.7444,1.7437,1.6049,1.5289,1.5289,1.4202,1.3411,1.3014,1.282,1.2339,1.1563,1.1691,1.1653,1.129,1.1634,1.1785,1.1661,1.1649,1.178,1.2059,1.2599,1.2719,1.214,1.2347,1.2638,1.291,1.3234,1.354,1.3839,1.3883,1.4028,1.4398,1.4681,1.4834,1.487,1.5073,1.5283,1.5283,1.5283,1.5436,1.5741,1.6031,1.6553,1.7162,1.8143,1.8796,1.9058,1.9106,1.9106,1.9106,1.9106,1.9106,1.9106,1.9106,1.9106,1.9106,1.9106,1.9106,1.9106,1.9106,1.9106,1.9106,1.9106,1.9106,1.9106,1.9106,1.9237,1.9609,1.9628,1.9938,2.0626,2.1238,2.1514,2.4081,2.3295,2.3361,2.3277,2.3103,2.3123,2.3091,2.3015,2.3033,2.2269,2.1096,2.0977,2.0922,2.0841,2.0589,2.0454,2.0361,2.0143,1.9991,1.9945,1.9941,2.0019,2.0143,2.0013,2.0039,2.0226,2.0126,2.0144,2.0336,2.0193,2.011,2.0072,1.9829,1.9717,1.9679,1.9434,1.9282,1.926,1.8684,1.8353,1.835,1.7594,1.719,1.7132,1.6132,1.5546,1.5521,1.4628,1.3835,1.3317,1.3144,1.2741,1.2071,1.2406,1.2579,1.2493,1.2958,1.3198,1.3059,1.3183,1.3301,1.3375,1.3525,1.3598,1.3612,1.3758,1.3758,1.3649,1.3773,1.4064,1.4435,1.4522,1.474,1.5225,1.5283,1.5254,1.5283,1.5283,1.537,1.5457,1.5494,1.5741,1.6271,1.6567,1.7133,1.8178,1.8825,1.9087,1.9106,1.9106,1.9106,1.9106,1.9106,1.9106,1.9106,1.9106,1.9106,1.9106,1.9106,1.9106,1.9106,1.9106,1.9106,1.9121,1.9275,1.9367,1.9348,1.9508,1.9808,2.0323,2.045,2.0754,2.1705,2.2622,2.3086,2.4962,2.4239,2.4236,2.3823,2.3222,2.3223,2.322,2.3152,2.3093,2.3007,2.2766,2.2686,2.2624,2.2463,2.1669,2.129,2.1217,2.0439,2.0131,2.0119,2.0026,2.038,2.0913,2.0329,2.0411,2.0953,2.0417,2.0462,2.1056,2.0501,2.0131,2.0069,1.9826,1.9738,1.967,1.9427,1.9282,1.9282,1.922,1.9183,1.9146,1.8412,1.8026,1.8068,1.6916,1.6318,1.6361,1.5941,1.5645,1.558,1.538,1.523,1.4957,1.4906,1.4774,1.4562,1.4632,1.4537,1.4124,1.4085,1.3903,1.3502,1.3948,1.4224,1.4246,1.4754,1.4848,1.4449,1.4754,1.5052,1.5204,1.5196,1.5247,1.5356,1.5399,1.5283,1.5378,1.5283,1.5508,1.606,1.6118,1.6372,1.7011,1.7568,1.8221,1.8811,1.8927,1.9043,1.9092,1.9029,1.9072,1.9087,1.9106,1.9106,1.9106,1.9106,1.9106,1.9106,1.9106,1.9145,1.9174,1.9222,1.9145,1.9588,1.9715,2.0035,2.0186,2.0427,2.0893,2.1282,2.1501,2.1774,2.2808,2.3741,2.4112,2.5289,2.4968,2.5056,2.492,2.4643,2.4667,2.4667,2.4639,2.4636,2.4607,2.4535,2.4511,2.3891,2.2798,2.2389,2.2205,2.2121,2.1761,2.1564,2.1522,2.1026,2.0953,2.1143,2.0389,2.0242,2.0556,2.0252,2.0544,2.1251,2.149,2.1089,2.0244,2.0335,2.0223,1.9742,1.943,1.9282,1.9282,1.9282,1.9323,1.932,1.9048,1.8864,1.8754,1.7857,1.7289,1.7093,1.6474,1.6027,1.5903,1.5774,1.5612,1.5409,1.5281,1.5124,1.4913,1.4885,1.4888,1.4919,1.4791,1.4723,1.4703,1.4819,1.4892,1.4906,1.516,1.516,1.4993,1.5146,1.5283,1.5349,1.5602,1.5834,1.5886,1.6176,1.6422,1.6414,1.64,1.6538,1.6756,1.68,1.7032,1.7708,1.8346,1.8811,1.9014,1.884,1.8718,1.8999,1.8811,1.8753,1.9029,1.9106,1.9106,1.9106,1.9106,1.9106,1.9106,1.9106,1.9174,1.9623,1.9888,2.0081,2.0391,2.072,2.1015,2.1241,2.1218,2.1465,2.2099,2.3066,2.3533,2.4047,2.4597,2.4855,2.5385,2.541,2.5522,2.5629,2.5694,2.57,2.5703,2.57,2.5695,2.5671,2.5614,2.56,2.4854,2.3663,2.3333,2.3187,2.3122,2.2828,2.2669,2.2606,2.1988,2.1676,2.1616,2.1059,2.0591,2.0453,2.0482,2.0671,2.1113,2.1877,2.1531,2.0351,2.0467,2.0342,1.9729,1.9434,1.9282,1.9282,1.9323,1.9353,1.9368,1.9405,1.9405,1.9298,1.8651,1.8165,1.7946,1.7206,1.6705,1.6579,1.6395,1.6213,1.6016,1.5856,1.5687,1.5529,1.5501,1.5571,1.5729,1.5587,1.5516,1.5593,1.547,1.5431,1.5516,1.5552,1.5639,1.5828,1.5835,1.5812,1.5615,1.6102,1.645,1.6517,1.6932,1.7206,1.7185,1.7214,1.722,1.7423,1.7475,1.7714,1.8294,1.8666,1.8796,1.8753,1.8491,1.8317,1.8753,1.8637,1.8642,1.9029,1.9092,1.9106,1.9106,1.9106,1.9106,1.9164,1.9208,1.9633,2.0109,2.0419,2.0911,2.1107,2.1589,2.2004,2.2228,2.2184,2.2395,2.3294,2.4129,2.4711,2.4849,2.5175,2.5288,2.5384,2.5414,2.5549,2.5632,2.5694,2.5699,2.57,2.5683,2.5702,2.5651,2.5602,2.5595,2.5541,2.5319,2.455,2.4222,2.4099,2.338,2.3045,2.301,2.2738,2.2637,2.2635,2.2516,2.2024,2.1309,2.1308,2.0979,2.0363,2.1115,2.1001,2.0158,1.9983,1.9798,1.9666,1.9427,1.9301,1.9319,1.9342,1.9364,1.9334,1.9446,1.9475,1.9431,1.9089,1.8822,1.8753,1.8422,1.8163,1.8166,1.7853,1.7636,1.7461,1.7248,1.7041,1.6942,1.6927,1.6818,1.6567,1.6404,1.6219,1.5826,1.572,1.5764,1.6166,1.6201,1.6442,1.7011,1.7019,1.6824,1.6383,1.6802,1.7152,1.7159,1.7213,1.7313,1.7278,1.7409,1.7539,1.7989,1.8158,1.8332,1.8883,1.8579,1.8361,1.8303,1.8221,1.8265,1.8526,1.8802,1.9019,1.9203,1.9246,1.9135,1.9135,1.9261,1.9232,1.9487,1.9977,2.0284,2.0377,2.0616,2.129,2.1919,2.2581,2.3037,2.3227,2.3538,2.3947,2.4478,2.476,2.5185,2.5243,2.533,2.5422,2.5393,2.5465,2.5558,2.5647,2.569,2.5695,2.5661,2.5644,2.5637,2.5619,2.5612,2.5596,2.5597,2.5572,2.529,2.5143,2.511,2.4718,2.4536,2.4435,2.383,2.353,2.3465,2.2895,2.2454,2.2189,2.2137,2.1727,2.1192,2.2295,2.1987,2.0441,2.0407,2.0283,1.9754,1.943,1.9327,1.9342,1.9357,1.9368,1.9416,1.9424,1.9453,1.9494,1.9282,1.9051,1.8838,1.8601,1.8426,1.8253,1.8015,1.7811,1.7601,1.7339,1.7144,1.7101,1.7095,1.7032,1.6873,1.6662,1.6576,1.6536,1.6546,1.6706,1.6994,1.7091,1.7217,1.7441,1.7713,1.7676,1.7615,1.7719,1.7847,1.7889,1.8176,1.8375,1.8419,1.8419,1.8511,1.8724,1.8767,1.8753,1.8521,1.8337,1.8192,1.814,1.7853,1.8172,1.9058,1.9266,1.9382,2.0078,2.032,2.032,2.032,1.9957,1.989,2.045,2.0961,2.1481,2.1724,2.2215,2.2865,2.3318,2.3871,2.4057,2.4247,2.4383,2.4895,2.5023,2.5346,2.5384,2.5505,2.5489,2.5517,2.5348,2.5492,2.5539,2.561,2.5686,2.569,2.5678,2.5625,2.5636,2.5618,2.5619,2.5619,2.5603,2.5614,2.5637,2.5614,2.5619,2.5547,2.5493,2.5374,2.4752,2.4447,2.4327,2.3755,2.3272,2.2999,2.2712,2.2297,2.1959,2.2928,2.2372,2.0612,2.0852,2.0536,1.9746,1.9409,1.9327,1.936,1.9353,1.9379,1.9453,1.945,1.9424,1.9393,1.9282,1.9111,1.8851,1.8628,1.8418,1.823,1.8027,1.7783,1.7525,1.7236,1.7095,1.7095,1.7095,1.707,1.7049,1.7045,1.709,1.7196,1.7429,1.7662,1.7906,1.7906,1.7969,1.8116,1.8282,1.8491,1.8501,1.8491,1.8482,1.8511,1.8854,1.9092,1.9106,1.9077,1.9063,1.9029,1.884,1.8584,1.8265,1.8018,1.7873,1.7888,1.7766,1.8491,1.9377,1.9856,1.9928,2.0799,2.0901,2.1042,2.121,2.1082,2.0773,2.1218,2.1789,2.2405,2.3009,2.3602,2.4133,2.464,2.4938,2.5097,2.522,2.5298,2.5375,2.5425,2.5477,2.5505,2.5569,2.5588,2.5503,2.5317,2.5512,2.552,2.5582,2.5683,2.5706,2.5688,2.5694,2.5683,2.5694,2.5687,2.5632,2.5627,2.5627,2.5671,2.5696,2.5691,2.5633,2.556,2.5465,2.5352,2.5253,2.5189,2.5001,2.4571,2.3897,2.3097,2.2699,2.2658,2.2789,2.2272,2.1381,2.1035,2.0557,1.9555,1.9428,1.9301,1.9327,1.9383,1.9416,1.9424,1.9464,1.9405,1.9243,1.9145,1.9026,1.8878,1.851,1.8307,1.8267,1.8037,1.7721,1.7361,1.7169,1.7095,1.7095,1.7111,1.7128,1.7196,1.7677,1.7871,1.7881,1.8199,1.8524,1.8646,1.8616,1.8702,1.8914,1.9002,1.9043,1.9029,1.9005,1.9014,1.9072,1.9087,1.9092,1.9106,1.9106,1.9106,1.9043,1.8709,1.8265,1.8076,1.7888,1.765,1.778,1.8375,1.9159,1.9696,2.0378,2.0911,2.1104,2.1347,2.1648,2.1969,2.2213,2.1972,2.1898,2.2465,2.3066,2.3672,2.4271,2.461,2.5066,2.5214,2.5362,2.5362,2.5422,2.5325,2.5365,2.5465,2.5338,2.5149,2.5054,2.5234,2.5363,2.5486,2.5553,2.5628,2.5694,2.57,2.5702,2.5704,2.5702,2.5702,2.5697,2.5679,2.5656,2.5678,2.5697,2.5699,2.5698,2.5691,2.5638,2.5563,2.5457,2.5395,2.5334,2.5245,2.5055,2.4806,2.4539,2.4058,2.3591,2.3493,2.2996,2.2088,2.1337,2.0784,2.0311,1.9671,1.9327,1.9364,1.9394,1.9405,1.9461,1.9494,1.9405,1.9219,1.906,1.8865,1.8647,1.8467,1.8357,1.83,1.7911,1.7531,1.7253,1.7139,1.7095,1.7144,1.7549,1.7792,1.7866,1.8439,1.8881,1.9008,1.9178,1.9362,1.9552,1.9337,1.9241,1.9332,1.9223,1.9106,1.9106,1.9106,1.9058,1.9092,1.9106,1.9072,1.9058,1.9063,1.9106,1.9087,1.8918,1.8656,1.8395,1.8201,1.8453,1.8511,1.9261,2.0001,2.0872,2.122,2.1902,2.2185,2.2294,2.2163,2.2395,2.2609,2.2572,2.2651,2.3178,2.3611,2.4238,2.4718,2.5064,2.5301,2.5458,2.5466,2.5466,2.5388,2.5264,2.5049,2.4929,2.469,2.4385,2.4646,2.5192,2.5376,2.5478,2.5541,2.5599,2.5659,2.5687,2.569,2.5695,2.5695,2.5703,2.5701,2.5692,2.5691,2.5706,2.5702,2.5704,2.5703,2.57,2.5647,2.5556,2.545,2.5376,2.5315,2.5258,2.5207,2.5207,2.5207,2.4921,2.4415,2.4287,2.3781,2.2813,2.2168,2.1603,2.1129,2.0544,2.014,1.9909,1.9854,1.9737,1.9538,1.9424,1.9433,1.9452,1.9327,1.922,1.9245,1.9196,1.889,1.8325,1.7839,1.7472,1.7222,1.735,1.7462,1.7598,1.8084,1.8505,1.8579,1.9188,1.9577,1.9673,1.9853,1.9887,1.9878,1.9597,1.9493,1.9338,1.897,1.8758,1.8729,1.8491,1.8506,1.8767,1.8744,1.8758,1.8767,1.8767,1.8898,1.8941,1.886,1.8695,1.8709,1.9087,1.944,1.9556,2.0238,2.0756,2.1594,2.1797,2.2135,2.2269,2.2052,2.2171,2.2672,2.2914,2.3109,2.3442,2.3861,2.4224,2.4669,2.4999,2.5333,2.5422,2.555,2.5245,2.519,2.507,2.4936,2.4688,2.4675,2.4863,2.5036,2.5463,2.5964,2.5353,2.5416,2.5476,2.5545,2.5598,2.5669,2.5672,2.5697,2.5682,2.5699,2.5703,2.5699,2.5701,2.5691,2.5707,2.5691,2.569,2.5703,2.561,2.5517,2.542,2.5335,2.522,2.5219,2.521,2.5207,2.5207,2.5144,2.4997,2.4867,2.4458,2.3599,2.3213,2.2809,2.1985,2.1809,2.1279,2.0749,2.0665,2.0371,1.9834,1.9562,1.9637,2.0073,1.9912,1.9995,2.0273,2.0269,1.9722,1.8502,1.8127,1.7852,1.7621,1.7912,1.8168,1.819,1.8868,1.9193,1.9412,1.9932,2.0203,1.9949,2.0204,2.0318,1.9758,1.942,1.9185,1.9001,1.855,1.825,1.8149,1.8062,1.7998,1.8192,1.8453,1.8439,1.8294,1.8346,1.8651,1.8927,1.8666,1.8448,1.8999,1.9609,1.9928,2.0204,2.092,2.1303,2.1299,2.1434,2.1532,2.1608,2.169,2.1947,2.2371,2.2503,2.2727,2.331,2.3799,2.4196,2.4529,2.4812,2.5122,2.5259,2.5442,2.5137,2.5024,2.5049,2.5021,2.4988,2.5159,2.5492,2.5805,2.6115,2.6676,2.5421,2.548,2.5497,2.5543,2.5595,2.5629,2.5633,2.5635,2.5634,2.5651,2.5683,2.5703,2.5693,2.5706,2.5689,2.5689,2.5704,2.57,2.559,2.5455,2.5405,2.5331,2.5228,2.5207,2.521,2.521,2.5202,2.5119,2.4984,2.4934,2.465,2.4225,2.3582,2.3114,2.2667,2.2153,2.1729,2.1531,2.1549,2.1504,2.1268,2.0956,2.088,2.0832,2.0713,2.0585,2.05,2.0453,2.0279,1.9736,1.9386,1.9124,1.8858,1.8881,1.891,1.9024,1.9567,2.0005,2.0127,2.0621,2.09,2.0767,2.0463,2.0208,1.9947,1.9046,1.8594,1.841,1.825,1.8207,1.8323,1.8831,1.9106,1.8883,1.8869,1.884,1.8787,1.8874,1.8956,1.9058,1.8947,1.8961,1.9266,1.9725,2.0156,2.0277,2.0741,2.1235,2.1056,2.1009,2.111,2.1401,2.1559,2.1744,2.1929,2.2056,2.2361,2.2964,2.3406,2.3761,2.3937,2.4037,2.4348,2.458,2.5072,2.4984,2.525,2.5445,2.5389,2.5359,2.5612,2.5922,2.6138,2.6442,2.723,2.5457,2.552,2.5525,2.5576,2.5613,2.5607,2.5599,2.5604,2.5628,2.5654,2.5703,2.5703,2.5696,2.569,2.5699,2.5698,2.5707,2.5704,2.5575,2.5416,2.535,2.5266,2.5206,2.5216,2.5216,2.52,2.5153,2.5054,2.4917,2.4815,2.4685,2.4431,2.3949,2.3641,2.3533,2.3096,2.2622,2.2418,2.237,2.2267,2.184,2.1539,2.154,2.1485,2.1405,2.1208,2.1338,2.1382,2.1025,2.0247,1.9853,1.9674,1.9441,1.9581,1.9655,1.9704,2.033,2.0726,2.0767,2.1099,2.1182,2.0998,2.0572,2.0073,1.9602,1.8939,1.8689,1.8268,1.8433,1.855,1.8738,1.9522,1.9817,1.9599,1.9522,1.9295,1.8816,1.8671,1.9005,1.9261,1.9304,1.9362,1.9754,2.0229,2.0388,2.0538,2.077,2.0828,2.0654,2.0664,2.0696,2.0926,2.1213,2.1386,2.1714,2.1921,2.248,2.3044,2.3975,2.4125,2.4249,2.4224,2.4511,2.492,2.4952,2.5098,2.5542,2.5843,2.5844,2.59,2.6101,2.6627,2.7092,2.7339,2.8063,2.5506,2.5512,2.558,2.5604,2.5603,2.5611,2.5614,2.5607,2.5669,2.5683,2.5702,2.5702,2.5694,2.5696,2.5689,2.5689,2.5692,2.5684,2.5567,2.5408,2.5308,2.5204,2.5231,2.5211,2.5181,2.5144,2.5047,2.4934,2.4826,2.4657,2.4541,2.4407,2.4274,2.427,2.4137,2.4082,2.3833,2.3329,2.3223,2.288,2.2283,2.1958,2.1996,2.2166,2.1941,2.2029,2.2373,2.2479,2.1871,2.0189,2.0036,1.9993,1.9719,2.0178,2.0353,2.0443,2.0872,2.1212,2.1253,2.1253,2.1102,2.0774,2.0586,2.0051,1.9209,1.9078,1.9013,1.8442,1.8869,1.9275,1.9638,2.003,2.0175,2.0161,2.0146,1.9498,1.8651,1.8303,1.8744,1.9745,1.9415,1.9769,2.0349,2.0799,2.0712,2.003,2.032,2.032,2.0322,2.0474,2.0367,2.0284,2.0612,2.0956,2.1386,2.1842,2.2578,2.3338,2.4654,2.5256,2.551,2.555,2.5546,2.5646,2.5697,2.5843,2.6118,2.6276,2.6399,2.6838,2.7336,2.8099,2.8793,2.8823,2.9288,2.5565,2.5586,2.5595,2.5608,2.5605,2.56,2.5602,2.5605,2.5611,2.5662,2.5703,2.5702,2.5695,2.5706,2.5691,2.5705,2.5687,2.5644,2.5538,2.5412,2.5251,2.5225,2.5255,2.5223,2.5144,2.5063,2.498,2.4811,2.4642,2.4557,2.4431,2.4298,2.4298,2.4294,2.4294,2.4289,2.427,2.4113,2.403,2.3787,2.3415,2.3102,2.2928,2.2847,2.2563,2.2544,2.2682,2.2725,2.2407,2.1939,2.1563,2.1218,2.1048,2.0996,2.101,2.1034,2.1147,2.1309,2.1293,2.1237,2.0996,2.0495,2.037,1.9921,1.9112,1.917,1.9164,1.9005,1.9498,2.0306,2.1061,2.0959,2.0872,2.0785,2.0407,1.9841,1.9116,1.8889,1.9058,1.9261,1.9275,1.9232,1.9512,1.9653,1.9648,1.9537,1.9667,1.973,2.0016,2.0362,2.0382,2.0343,2.1188,2.1699,2.1799,2.252,2.3603,2.4433,2.5638,2.643,2.6693,2.6716,2.6649,2.6555,2.6468,2.6662,2.6911,2.7256,2.7511,2.805,2.8531,2.9032,2.9535,2.9866,2.984,2.5601,2.5604,2.5611,2.5598,2.5605,2.5636,2.5633,2.566,2.5644,2.5664,2.5699,2.5698,2.5691,2.5696,2.5696,2.5687,2.5626,2.554,2.5462,2.5382,2.5283,2.5269,2.5263,2.5212,2.5112,2.5,2.4843,2.467,2.4561,2.4479,2.4397,2.4298,2.4312,2.4307,2.433,2.4317,2.4284,2.4271,2.4289,2.4168,2.3881,2.369,2.3382,2.3006,2.2779,2.2718,2.2738,2.2718,2.2531,2.2274,2.208,2.1943,2.173,2.1488,2.1325,2.1309,2.1309,2.1309,2.1277,2.1026,2.0828,2.0854,2.0571,2.0191,1.9959,2.0023,1.9948,1.9909,2.0436,2.1409,2.2269,2.2185,2.1834,2.1394,2.0886,2.0262,1.9682,1.9295,1.9251,1.9377,1.9333,1.9391,1.9391,1.9319,1.9464,1.9783,1.9914,2.0016,2.0451,2.0751,2.0825,2.1096,2.2096,2.2609,2.2546,2.3336,2.4847,2.5872,2.7049,2.7608,2.7917,2.7824,2.7688,2.7537,2.7342,2.7585,2.7871,2.8229,2.8579,2.9039,2.944,2.9797,2.986,2.9732,2.9617,2.5604,2.5599,2.5605,2.5608,2.5627,2.5679,2.5703,2.5702,2.5695,2.5692,2.5687,2.5706,2.5704,2.5701,2.5677,2.5653,2.5561,2.5485,2.5395,2.536,2.532,2.5257,2.5242,2.5127,2.5028,2.5025,2.4772,2.4598,2.4509,2.4465,2.4375,2.4358,2.4344,2.4348,2.4381,2.4321,2.428,2.4275,2.4266,2.4062,2.3717,2.3549,2.3248,2.2863,2.2725,2.2705,2.2699,2.2622,2.2467,2.2108,2.1991,2.1904,2.1781,2.1503,2.1309,2.1309,2.1309,2.1414,2.1463,2.1094,2.0967,2.1654,2.1113,2.0649,2.0664,2.0971,2.1012,2.0993,2.1303,2.2019,2.2667,2.233,2.2066,2.1656,2.109,2.0611,2.0045,1.9483,1.9585,1.9599,1.9406,1.9333,1.957,1.9672,1.9861,2.0045,2.019,2.0451,2.0915,2.1326,2.1545,2.1982,2.297,2.3911,2.3968,2.4854,2.6267,2.6924,2.8157,2.8457,2.8806,2.8849,2.8665,2.8379,2.8314,2.8509,2.8697,2.8961,2.9377,2.9903,2.9816,2.9619,2.9535,2.9489,2.9358,2.5611,2.5611,2.5599,2.5634,2.5681,2.5703,2.5701,2.5693,2.569,2.5688,2.5706,2.5703,2.5703,2.5679,2.5634,2.5555,2.5468,2.5472,2.5478,2.5445,2.542,2.5389,2.5436,2.519,2.5,2.4753,2.4753,2.4727,2.4503,2.4367,2.4626,2.4377,2.4469,2.4547,2.4459,2.4289,2.433,2.4261,2.4158,2.3883,2.3617,2.3404,2.32,2.2803,2.2718,2.2692,2.2663,2.2542,2.2405,2.2314,2.1952,2.1855,2.1827,2.1534,2.1381,2.131,2.1374,2.1593,2.19,2.1716,2.1554,2.1632,2.1501,2.1124,2.0985,2.1361,2.1699,2.168,2.1695,2.2019,2.2091,2.1801,2.1123,2.0625,2.0455,2.0136,1.9687,1.9696,1.9769,1.9711,1.9464,1.9391,1.9827,2.019,2.0393,2.0698,2.0992,2.138,2.1873,2.2316,2.2666,2.3212,2.3916,2.4796,2.5488,2.6698,2.786,2.7934,2.864,2.8876,2.9248,2.9632,2.9567,2.8762,2.8865,2.9313,2.9513,2.9535,2.9464,2.9459,2.9339,2.9213,2.9222,2.9225,2.8983,2.56,2.5604,2.5638,2.5678,2.5703,2.5701,2.5696,2.5689,2.5688,2.5688,2.5706,2.5704,2.5677,2.5646,2.5609,2.5521,2.5505,2.5879,2.5972,2.5978,2.5985,2.6241,2.6276,2.5821,2.5833,2.594,2.5918,2.5484,2.5129,2.5495,2.549,2.5601,2.5606,2.5435,2.5023,2.4839,2.453,2.4322,2.3974,2.3707,2.3446,2.3242,2.2954,2.2812,2.2722,2.2646,2.2525,2.2474,2.2272,2.2041,2.1829,2.1708,2.1708,2.1798,2.1666,2.1432,2.1585,2.1908,2.2246,2.2075,2.2064,2.2391,2.2102,2.1874,2.1854,2.2181,2.2291,2.2004,2.1569,2.1481,2.1467,2.1173,2.0886,2.0654,2.0528,2.0378,2.0248,2.0417,2.0287,2.0083,2.0248,2.0364,2.0422,2.0727,2.093,2.1293,2.1732,2.2196,2.2701,2.3052,2.3377,2.4027,2.4636,2.5652,2.6366,2.7237,2.8276,2.856,2.8672,2.8919,2.9005,2.9086,2.8908,2.8379,2.8892,2.9778,2.9394,2.9097,2.9048,2.9032,2.8983,2.8976,2.9002,2.893,2.878,2.5611,2.5628,2.568,2.5703,2.5702,2.5694,2.5688,2.5688,2.5688,2.5704,2.568,2.5659,2.5642,2.5652,2.574,2.5801,2.573,2.6494,2.6818,2.6871,2.6865,2.7245,2.7276,2.7028,2.6575,2.682,2.7129,2.6702,2.6126,2.6353,2.67,2.6583,2.6712,2.6482,2.5777,2.5533,2.4957,2.4474,2.3903,2.3648,2.3294,2.2982,2.2758,2.2705,2.2705,2.2636,2.2504,2.2594,2.2435,2.2245,2.2098,2.1976,2.1786,2.2232,2.2303,2.1905,2.2204,2.2471,2.268,2.2364,2.2533,2.308,2.2501,2.2457,2.2507,2.2458,2.2432,2.1979,2.1249,2.0944,2.1046,2.0897,2.0872,2.0959,2.0955,2.0984,2.094,2.1027,2.1187,2.1144,2.1264,2.1278,2.1249,2.1293,2.1496,2.1906,2.2319,2.249,2.2954,2.336,2.3804,2.4516,2.532,2.6428,2.702,2.715,2.7907,2.8241,2.8175,2.8207,2.8174,2.8152,2.8087,2.8347,2.9145,2.9778,2.9216,2.8865,2.9021,2.9021,2.8816,2.8794,2.8932,2.898,2.8881,2.5636,2.5702,2.5703,2.5701,2.5692,2.5688,2.5688,2.5687,2.5706,2.5655,2.5613,2.5606,2.5584,2.5669,2.6243,2.6453,2.6685,2.7307,2.772,2.7739,2.772,2.7699,2.7568,2.7316,2.72,2.7468,2.7804,2.7414,2.7053,2.7026,2.6975,2.701,2.7064,2.6655,2.6415,2.6244,2.604,2.5518,2.4753,2.396,2.3235,2.2966,2.288,2.2774,2.2836,2.2783,2.2767,2.2902,2.2963,2.2924,2.308,2.2979,2.2742,2.305,2.3468,2.3505,2.3579,2.3592,2.3756,2.3266,2.2911,2.3282,2.2802,2.2536,2.2315,2.2116,2.1946,2.2004,2.0969,2.0509,2.0712,2.0538,2.0571,2.0857,2.1148,2.1148,2.1177,2.1699,2.1844,2.196,2.1997,2.1979,2.1964,2.1993,2.208,2.2508,2.287,2.3001,2.3293,2.3763,2.4019,2.4664,2.5324,2.6379,2.6712,2.699,2.7418,2.7813,2.7712,2.7593,2.7802,2.7948,2.8347,2.873,2.9405,2.9567,2.9086,2.8897,2.9076,2.8995,2.8784,2.882,2.8959,2.8986,2.9073,2.566,2.5703,2.57,2.5695,2.5688,2.5688,2.5688,2.5705,2.5653,2.5617,2.5598,2.5552,2.5508,2.5614,2.6284,2.6605,2.6873,2.797,2.8569,2.8538,2.853,2.86,2.8743,2.828,2.7916,2.8381,2.8643,2.8731,2.8312,2.8238,2.8289,2.815,2.815,2.787,2.7137,2.6933,2.6405,2.5787,2.5164,2.4663,2.4223,2.3998,2.3767,2.3357,2.3715,2.3539,2.3195,2.3467,2.3534,2.3374,2.324,2.3115,2.3237,2.3601,2.3995,2.4204,2.415,2.3988,2.3754,2.3601,2.3475,2.3177,2.2706,2.2089,2.1673,2.127,2.1013,2.0897,2.0451,2.0335,2.0596,2.0582,2.1003,2.1322,2.1543,2.1761,2.1895,2.22,2.2533,2.2624,2.2667,2.2548,2.2446,2.2461,2.245,2.2682,2.3088,2.336,2.3807,2.4385,2.4534,2.465,2.531,2.6062,2.6103,2.6218,2.6777,2.7125,2.7153,2.7183,2.7652,2.7964,2.833,2.8347,2.8444,2.8573,2.8692,2.8897,2.9027,2.8897,2.8719,2.9031,2.935,2.9507,2.9534,2.5702,2.5702,2.5693,2.5688,2.5706,2.5701,2.5679,2.5656,2.5584,2.5576,2.5532,2.548,2.5414,2.567,2.6412,2.703,2.7082,2.8659,2.9255,2.932,2.9318,2.9448,2.941,2.8997,2.8928,2.9556,2.9277,2.9234,2.9285,2.9285,2.919,2.931,2.9024,2.8677,2.7996,2.75,2.6964,2.5907,2.5635,2.5277,2.4948,2.4902,2.4577,2.4418,2.4457,2.4457,2.3736,2.3996,2.4132,2.3922,2.3822,2.3908,2.4135,2.4443,2.4661,2.4732,2.4621,2.3998,2.356,2.3235,2.3298,2.281,2.2204,2.1431,2.1146,2.0538,2.0509,2.0853,2.0548,2.0582,2.0799,2.1206,2.1514,2.195,2.2225,2.2533,2.274,2.274,2.2754,2.2783,2.2798,2.2827,2.2783,2.2827,2.2873,2.2931,2.3247,2.3604,2.3979,2.4432,2.4358,2.4209,2.4544,2.5236,2.5631,2.5744,2.6228,2.6677,2.6711,2.6999,2.7607,2.7943,2.8212,2.8067,2.8008,2.8399,2.902,2.8995,2.9032,2.9486,2.9826,2.9697,2.9827,2.9951,2.9945,2.569,2.5689,2.5688,2.5706,2.5685,2.564,2.5606,2.5602,2.5534,2.5473,2.5412,2.5367,2.5329,2.5748,2.6924,2.772,2.7893,2.9538,2.9934,2.9994,3.0011,2.979,2.9655,2.9485,2.9368,2.9417,2.9407,2.9407,2.9373,2.9347,2.9376,2.9381,2.9246,2.8884,2.8389,2.7868,2.7292,2.6456,2.618,2.5809,2.5407,2.5205,2.5101,2.494,2.4767,2.4577,2.4506,2.4738,2.483,2.4732,2.4839,2.4975,2.5056,2.5202,2.5283,2.504,2.4605,2.3874,2.319,2.2514,2.2,2.163,2.1261,2.0907,2.0807,2.0959,2.1202,2.1579,2.1278,2.1572,2.1993,2.2359,2.2258,2.2417,2.2606,2.2682,2.2827,2.2841,2.2856,2.2873,2.2888,2.2888,2.2888,2.2888,2.2888,2.2931,2.2931,2.3273,2.3261,2.3558,2.355,2.3499,2.3637,2.4218,2.5087,2.5512,2.6055,2.6723,2.7084,2.7369,2.7824,2.8075,2.8543,2.8682,2.8828,2.9073,2.9234,2.9236,2.9561,3.0538,3.0812,3.0172,2.9934,3.0016,3.0025,2.5688,2.5706,2.5651,2.5643,2.5641,2.5608,2.5564,2.553,2.547,2.5393,2.5326,2.5341,2.5594,2.6308,2.7236,2.8203,2.8709,2.9663,3.0045,3.0029,2.9892,2.9732,2.9584,2.9522,2.9436,2.9399,2.9383,2.9383,2.9378,2.931,2.932,2.9288,2.9145,2.8755,2.8349,2.7947,2.7395,2.7143,2.6884,2.664,2.6555,2.6368,2.6178,2.5682,2.5974,2.5557,2.5211,2.5418,2.5427,2.54,2.5508,2.5567,2.5597,2.5597,2.538,2.4968,2.4329,2.3544,2.2749,2.2033,2.1459,2.0682,2.0602,2.0742,2.0722,2.1129,2.1608,2.1917,2.2124,2.2432,2.2624,2.2696,2.2667,2.2827,2.2888,2.2888,2.2888,2.2888,2.2888,2.2888,2.2888,2.2888,2.2888,2.2888,2.2888,2.2888,2.2888,2.2914,2.3031,2.3149,2.3302,2.3531,2.3724,2.4029,2.4882,2.5428,2.5917,2.6684,2.7453,2.7883,2.8308,2.8903,2.9307,2.9447,2.9271,2.9057,2.9084,2.9395,2.9742,3.0065,3.0182,3.0021,2.995,3.0044,2.9968,2.5703,2.5675,2.5632,2.5601,2.5598,2.5552,2.5514,2.5447,2.5389,2.5359,2.5308,2.5327,2.5786,2.6656,2.7508,2.8299,2.8991,2.9716,2.9941,2.9896,2.9732,2.9603,2.9522,2.9461,2.9404,2.9383,2.9383,2.9383,2.9378,2.9232,2.9138,2.9064,2.9014,2.8658,2.8359,2.7785,2.7477,2.7392,2.737,2.7338,2.7287,2.7203,2.7075,2.6453,2.6525,2.6253,2.5781,2.5742,2.5674,2.5601,2.559,2.5606,2.5597,2.5509,2.5179,2.4556,2.3867,2.3184,2.2567,2.1785,2.1084,2.0277,2.092,2.0879,2.0868,2.1496,2.2254,2.2327,2.2667,2.2975,2.3065,2.3036,2.2844,2.2888,2.2888,2.2888,2.2888,2.2888,2.2888,2.2888,2.2888,2.2917,2.3073,2.3102,2.3145,2.3073,2.2902,2.3084,2.3409,2.3528,2.3643,2.3897,2.4183,2.452,2.4899,2.5586,2.6304,2.7249,2.7945,2.848,2.8973,2.9393,2.9502,2.9318,2.9087,2.8803,2.864,2.8577,2.8831,2.9169,2.9421,2.9803,2.994,2.9975,2.976,2.5673,2.5603,2.56,2.5597,2.5583,2.5462,2.5401,2.5385,2.5345,2.5317,2.5327,2.5363,2.5904,2.6769,2.7703,2.8467,2.9126,2.9759,2.9927,2.9706,2.9612,2.9522,2.9451,2.9393,2.9383,2.9383,2.9383,2.9383,2.9378,2.9222,2.8995,2.8791,2.8737,2.8607,2.8582,2.8024,2.7617,2.7423,2.7409,2.7376,2.737,2.7323,2.7178,2.6985,2.664,2.6335,2.6127,2.5793,2.5691,2.5625,2.5597,2.5597,2.5597,2.5493,2.5098,2.4427,2.3836,2.3299,2.281,2.1709,2.1016,2.0597,2.1397,2.1598,2.1413,2.204,2.2896,2.2936,2.3026,2.3285,2.336,2.3291,2.3021,2.2888,2.2888,2.2888,2.2888,2.3189,2.3261,2.3316,2.3102,2.2989,2.3203,2.336,2.3418,2.3305,2.303,2.3215,2.3757,2.3943,2.408,2.4311,2.464,2.5091,2.5491,2.5987,2.6712,2.7686,2.8227,2.8501,2.8752,2.8931,2.8997,2.9016,2.8662,2.8207,2.7864,2.7567,2.7943,2.8368,2.9268,2.9702,2.9861,2.9769,2.9415,2.5633,2.5595,2.5507,2.5468,2.5462,2.5437,2.5359,2.5321,2.5322,2.5308,2.5442,2.5846,2.6637,2.7467,2.8183,2.8922,2.96,2.9538,2.9639,2.9617,2.9508,2.9451,2.9417,2.9383,2.9383,2.9383,2.9383,2.9378,2.9396,2.9132,2.8955,2.8779,2.85,2.8271,2.8027,2.7696,2.7506,2.7432,2.7384,2.7368,2.7346,2.7315,2.7202,2.6998,2.659,2.6322,2.6155,2.5787,2.5625,2.5597,2.5597,2.5597,2.5493,2.5331,2.4628,2.407,2.3527,2.3149,2.2782,2.2196,2.2109,2.1911,2.2008,2.2287,2.1906,2.2875,2.3397,2.3487,2.3386,2.3595,2.3737,2.3264,2.2957,2.2902,2.2888,2.2888,2.3001,2.3563,2.3865,2.3908,2.3792,2.401,2.4227,2.4242,2.4242,2.436,2.423,2.4117,2.4488,2.4505,2.4588,2.4791,2.5116,2.5626,2.6087,2.6394,2.6837,2.7624,2.7876,2.7892,2.8152,2.8479,2.8499,2.8507,2.8049,2.7578,2.7429,2.7291,2.7238,2.765,2.8481,2.8999,2.9018,2.8919,2.8706,2.5583,2.5522,2.5436,2.5392,2.5367,2.5346,2.5326,2.5293,2.5308,2.5308,2.5481,2.6214,2.7009,2.7803,2.8578,2.9231,2.9863,2.9713,2.9551,2.9546,2.946,2.9404,2.9388,2.9383,2.9383,2.9383,2.9396,2.9381,2.9267,2.8867,2.87,2.8595,2.8324,2.802,2.7774,2.763,2.7503,2.7461,2.7423,2.7368,2.7321,2.7225,2.7063,2.6783,2.6479,2.6189,2.599,2.5787,2.5597,2.5597,2.5597,2.5613,2.5428,2.5121,2.4499,2.407,2.3649,2.34,2.3208,2.3371,2.3227,2.2801,2.3067,2.2896,2.2617,2.3281,2.347,2.3586,2.3604,2.3589,2.3516,2.3015,2.303,2.296,2.3189,2.3203,2.3432,2.4007,2.4413,2.4457,2.4559,2.4863,2.5195,2.5212,2.517,2.5359,2.5504,2.5373,2.5187,2.5158,2.5204,2.5462,2.5664,2.6097,2.6409,2.6586,2.7068,2.7615,2.7635,2.7552,2.78,2.8128,2.8064,2.7938,2.7542,2.7242,2.719,2.7119,2.7073,2.7138,2.7548,2.7933,2.8088,2.8275,2.8406,2.5518,2.5401,2.5387,2.5376,2.5298,2.532,2.5293,2.5308,2.5308,2.5308,2.5365,2.6291,2.7116,2.7708,2.8538,2.9224,2.9567,2.9589,2.9522,2.9455,2.9399,2.9383,2.9383,2.9383,2.9383,2.9396,2.9365,2.9275,2.9119,2.8851,2.8626,2.8349,2.8049,2.7847,2.7745,2.7674,2.7579,2.7503,2.743,2.7392,2.7362,2.7145,2.6932,2.6649,2.6322,2.6064,2.5881,2.5722,2.5635,2.5597,2.5597,2.5639,2.5639,2.5597,2.513,2.4666,2.4199,2.4009,2.405,2.4283,2.4015,2.3501,2.3592,2.3423,2.3226,2.3284,2.3357,2.3229,2.3117,2.3102,2.3015,2.3073,2.3145,2.3363,2.3693,2.3836,2.4022,2.4411,2.4817,2.5006,2.5069,2.533,2.5734,2.5879,2.5879,2.6083,2.617,2.6083,2.5923,2.585,2.5966,2.6286,2.646,2.6605,2.6777,2.6774,2.7034,2.7496,2.741,2.7348,2.7612,2.7725,2.7572,2.7395,2.7076,2.6909,2.6961,2.6951,2.6903,2.7065,2.7425,2.7493,2.7849,2.8455,2.8645,2.5415,2.5385,2.5359,2.5332,2.5308,2.5308,2.5308,2.5308,2.5308,2.5308,2.5382,2.6868,2.7397,2.7714,2.8992,2.9441,2.9522,2.9493,2.946,2.9417,2.9383,2.9383,2.9383,2.9383,2.9383,2.9336,2.928,2.9163,2.901,2.8785,2.8372,2.7957,2.7965,2.7886,2.7789,2.7748,2.7659,2.7572,2.7485,2.7392,2.7272,2.7022,2.6783,2.647,2.6173,2.5936,2.5724,2.573,2.5687,2.5662,2.5613,2.5752,2.6377,2.593,2.5396,2.5273,2.4755,2.4341,2.4535,2.4393,2.4048,2.3603,2.3366,2.3168,2.3015,2.3059,2.3128,2.2986,2.2928,2.2986,2.3284,2.3444,2.365,2.3986,2.4288,2.4515,2.473,2.5093,2.5471,2.5616,2.5678,2.591,2.6328,2.6386,2.6402,2.6676,2.6749,2.6633,2.6531,2.64,2.6415,2.672,2.6807,2.6807,2.6807,2.6791,2.7039,2.7258,2.7168,2.7143,2.731,2.7335,2.7104,2.6992,2.6973,2.6891,2.6819,2.6923,2.7244,2.7375,2.7664,2.7591,2.7706,2.8445,2.8925,2.539,2.5352,2.5313,2.5308,2.5308,2.5308,2.5308,2.5308,2.5308,2.5308,2.5454,2.6686,2.721,2.7219,2.8452,2.9139,2.8956,2.9292,2.9393,2.9393,2.9383,2.9383,2.9383,2.9391,2.9344,2.928,2.9158,2.9021,2.8821,2.8512,2.8112,2.7993,2.8053,2.7989,2.7893,2.7818,2.777,2.7669,2.7551,2.7399,2.7169,2.6916,2.6573,2.6372,2.6094,2.5803,2.5709,2.5785,2.5979,2.6027,2.6027,2.6189,2.6555,2.6037,2.5613,2.5446,2.5019,2.4606,2.4486,2.411,2.3711,2.3315,2.3031,2.2947,2.2902,2.2943,2.2957,2.2888,2.2957,2.3099,2.3528,2.3946,2.4314,2.4696,2.4926,2.517,2.5517,2.5878,2.6081,2.6226,2.6415,2.6604,2.6763,2.6807,2.6807,2.6807,2.6807,2.6763,2.6705,2.6662,2.6633,2.6763,2.6807,2.6807,2.6807,2.6807,2.6937,2.7054,2.6989,2.6989,2.708,2.7096,2.698,2.7004,2.7054,2.7099,2.7229,2.7549,2.7839,2.7985,2.8232,2.8463,2.8608,2.8869,2.9188,2.5352,2.5291,2.5308,2.5308,2.5308,2.5308,2.5308,2.5286,2.5274,2.5274,2.5424,2.6092,2.6384,2.6616,2.7861,2.8441,2.8622,2.9022,2.9383,2.9383,2.9383,2.9383,2.9396,2.9376,2.928,2.9158,2.8992,2.8804,2.8517,2.8298,2.8168,2.8112,2.8112,2.8071,2.8003,2.7922,2.7806,2.7635,2.7647,2.7596,2.7212,2.6835,2.6501,2.6402,2.6092,2.5752,2.5882,2.6173,2.6604,2.6571,2.6555,2.6481,2.6442,2.6199,2.5865,2.5522,2.5179,2.4786,2.4395,2.3968,2.3512,2.3164,2.2922,2.3012,2.3073,2.2943,2.2902,2.3171,2.3287,2.3778,2.4239,2.4556,2.488,2.533,2.5678,2.5836,2.6037,2.6299,2.6458,2.6575,2.6618,2.6807,2.6807,2.6807,2.6807,2.6807,2.6807,2.6807,2.6807,2.6807,2.6807,2.6807,2.6807,2.6807,2.6807,2.6807,2.6807,2.6819,2.6835,2.6833,2.6923,2.6943,2.6922,2.7199,2.752,2.768,2.7869,2.8115,2.839,2.871,2.9015,2.9436,2.961,2.961,2.9668,2.531,2.5308,2.5308,2.5308,2.5308,2.5308,2.5308,2.5279,2.5204,2.5152,2.5296,2.5919,2.6184,2.6131,2.7536,2.8157,2.8247,2.8918,2.9309,2.9383,2.9383,2.9362,2.9352,2.9296,2.9163,2.9015,2.8828,2.8555,2.8345,2.8209,2.8168,2.8168,2.8179,2.8151,2.8049,2.7957,2.7868,2.7721,2.7705,2.7871,2.7793,2.7436,2.712,2.7099,2.6893,2.6306,2.6231,2.6021,2.5995,2.5849,2.584,2.6141,2.662,2.6448,2.6416,2.6241,2.5395,2.4908,2.4472,2.3943,2.3476,2.3253,2.3137,2.3327,2.3328,2.3059,2.3102,2.3473,2.3876,2.4413,2.4878,2.5139,2.5456,2.5937,2.6373,2.6444,2.6515,2.6633,2.6792,2.6807,2.6807,2.6807,2.6807,2.6807,2.6807,2.6807,2.6807,2.6807,2.6807,2.6807,2.6807,2.6807,2.6807,2.6807,2.6807,2.6807,2.6807,2.6837,2.6894,2.6865,2.6851,2.7214,2.7562,2.7795,2.8071,2.8289,2.8449,2.8521,2.8825,2.929,2.9537,2.9842,3.0132,3.019,3.0278,2.5308,2.5308,2.5308,2.5308,2.5308,2.5308,2.5264,2.5214,2.5116,2.5021,2.4954,2.5389,2.5543,2.5606,2.7033,2.776,2.7845,2.8905,2.9253,2.9383,2.9373,2.9315,2.9267,2.9237,2.901,2.8839,2.8562,2.8318,2.8209,2.8189,2.8189,2.8189,2.82,2.8147,2.8039,2.8056,2.8083,2.8001,2.7894,2.7946,2.8134,2.7729,2.705,2.7037,2.6655,2.6283,2.628,2.6037,2.6183,2.6092,2.6173,2.5969,2.6222,2.6102,2.6141,2.5976,2.548,2.4924,2.4517,2.4078,2.3549,2.3334,2.3455,2.3673,2.3789,2.3633,2.3957,2.4273,2.43,2.475,2.5241,2.5573,2.5936,2.6386,2.6575,2.6647,2.6676,2.6734,2.6807,2.6807,2.6807,2.6807,2.6807,2.6807,2.6807,2.6807,2.6807,2.6807,2.6807,2.6807,2.6807,2.6807,2.6807,2.6807,2.6807,2.6807,2.6807,2.6852,2.7012,2.7273,2.749,2.7882,2.8245,2.855,2.8811,2.8986,2.9116,2.9188,2.9493,3.0002,3.0118,3.019,3.0437,3.0612,3.0569,2.5313,2.5308,2.5308,2.5308,2.5303,2.5271,2.522,2.5099,2.5049,2.4906,2.4749,2.4722,2.4676,2.5159,2.6171,2.6623,2.7413,2.877,2.9253,2.9383,2.9383,2.9336,2.9283,2.9213,2.8893,2.8594,2.832,2.825,2.8196,2.8189,2.8189,2.8189,2.8182,2.8161,2.8169,2.8255,2.836,2.8159,2.8007,2.7862,2.7783,2.766,2.6994,2.6356,2.5907,2.5771,2.5988,2.6134,2.6523,2.6458,2.6312,2.6076,2.5865,2.5785,2.5752,2.5637,2.5442,2.4895,2.4472,2.4246,2.3724,2.3461,2.3784,2.4062,2.4222,2.45,2.4824,2.5027,2.5027,2.517,2.5662,2.6023,2.64,2.6618,2.672,2.6807,2.6807,2.6807,2.6807,2.6807,2.6807,2.6807,2.6807,2.6807,2.6807,2.6807,2.6807,2.6807,2.6807,2.6807,2.6807,2.6807,2.6807,2.6807,2.6807,2.6837,2.6852,2.7142,2.7346,2.7738,2.813,2.8536,2.8942,2.9377,2.9624,2.9697,2.9856,2.9987,3.0351,3.051,3.0452,3.0394,3.0466,3.0612,3.0612,2.5351,2.5308,2.5308,2.5308,2.5276,2.5182,2.5126,2.5077,2.4867,2.4749,2.468,2.4586,2.4551,2.4621,2.6209,2.6907,2.7185,2.8621,2.9253,2.9383,2.9383,2.9376,2.9251,2.9038,2.8663,2.8419,2.825,2.8209,2.8189,2.8189,2.8189,2.8189,2.8189,2.8235,2.8317,2.8447,2.855,2.8295,2.8148,2.8047,2.6892,2.6876,2.7287,2.7007,2.6851,2.6623,2.6426,2.6027,2.5882,2.5801,2.5865,2.5768,2.5687,2.5597,2.5597,2.554,2.5336,2.4999,2.4627,2.4583,2.4215,2.3981,2.439,2.4924,2.513,2.5384,2.5705,2.6068,2.6054,2.5965,2.6297,2.6444,2.6734,2.6734,2.6792,2.6807,2.6807,2.6807,2.6807,2.6807,2.6807,2.6807,2.6807,2.6807,2.6807,2.6807,2.6807,2.6807,2.6821,2.6807,2.6865,2.6909,2.6939,2.6807,2.6807,2.6924,2.7026,2.7346,2.7796,2.8347,2.8826,2.9203,2.961,2.9943,3.019,3.0292,3.0496,3.0452,3.0496,3.0569,3.0583,3.0583,3.0612,3.0612,3.0612]}]]